Wetterdaten: Samstag, 27.08.2016
Datum Zeit Temp. A. Feuchte A. Luftdruck Regen Wind Richtung Richtung Sonnenschein ET UV Solar Taupunkt Windchill Windben Empfang
27.08.2016 00:00 19,0 C 79 % 1017,7 hPa 0,0 l/m 3,2 km/h (1 Bft) O-NO 61 0 min 0,000 mm 0,0 UV-I 0 W/m 15,3 C 19,0 C 4,8 km/h (1 Bft) 100,00 %
27.08.2016 00:02 18,9 C 79 % 1017,7 hPa 0,0 l/m 2,3 km/h (1 Bft) O-NO 61 0 min 0,000 mm 0,0 UV-I 0 W/m 15,2 C 18,9 C 3,2 km/h (1 Bft) 97,78 %
27.08.2016 00:04 18,8 C 79 % 1017,7 hPa 0,0 l/m 3,0 km/h (1 Bft) O-NO 61 0 min 0,000 mm 0,0 UV-I 0 W/m 15,1 C 18,8 C 4,8 km/h (1 Bft) 97,87 %
27.08.2016 00:06 18,8 C 80 % 1017,7 hPa 0,0 l/m 3,4 km/h (1 Bft) O-NO 61 0 min 0,000 mm 0,0 UV-I 0 W/m 15,3 C 18,8 C 4,8 km/h (1 Bft) 97,87 %
27.08.2016 00:08 18,8 C 80 % 1017,7 hPa 0,0 l/m 3,3 km/h (1 Bft) O-NO 61 0 min 0,000 mm 0,0 UV-I 0 W/m 15,3 C 18,8 C 4,8 km/h (1 Bft) 100,00 %
27.08.2016 00:10 18,8 C 80 % 1017,7 hPa 0,0 l/m 3,5 km/h (1 Bft) O-NO 70 0 min 0,000 mm 0,0 UV-I 0 W/m 15,3 C 18,8 C 4,8 km/h (1 Bft) 97,87 %
27.08.2016 00:12 18,8 C 80 % 1017,7 hPa 0,0 l/m 3,1 km/h (1 Bft) O-NO 70 0 min 0,000 mm 0,0 UV-I 0 W/m 15,3 C 18,8 C 4,8 km/h (1 Bft) 97,37 %
27.08.2016 00:14 18,8 C 80 % 1017,6 hPa 0,0 l/m 3,1 km/h (1 Bft) O-NO 70 0 min 0,000 mm 0,0 UV-I 0 W/m 15,3 C 18,8 C 4,8 km/h (1 Bft) 100,00 %
27.08.2016 00:16 18,9 C 80 % 1017,7 hPa 0,0 l/m 2,6 km/h (1 Bft) O-NO 70 0 min 0,000 mm 0,0 UV-I 0 W/m 15,4 C 18,9 C 4,8 km/h (1 Bft) 97,87 %
27.08.2016 00:18 18,9 C 79 % 1017,7 hPa 0,0 l/m 3,1 km/h (1 Bft) O-NO 70 0 min 0,000 mm 0,0 UV-I 0 W/m 15,2 C 18,9 C 4,8 km/h (1 Bft) 100,00 %
27.08.2016 00:20 18,9 C 79 % 1017,7 hPa 0,0 l/m 3,0 km/h (1 Bft) O-NO 70 0 min 0,000 mm 0,0 UV-I 0 W/m 15,2 C 18,9 C 4,8 km/h (1 Bft) 97,87 %
27.08.2016 00:22 18,9 C 79 % 1017,7 hPa 0,0 l/m 2,5 km/h (1 Bft) O-NO 70 0 min 0,000 mm 0,0 UV-I 0 W/m 15,2 C 18,9 C 3,2 km/h (1 Bft) 100,00 %
27.08.2016 00:24 19,0 C 79 % 1017,6 hPa 0,0 l/m 2,7 km/h (1 Bft) O-NO 70 0 min 0,000 mm 0,0 UV-I 0 W/m 15,3 C 19,0 C 3,2 km/h (1 Bft) 100,00 %
27.08.2016 00:26 19,1 C 78 % 1017,7 hPa 0,0 l/m 1,6 km/h (1 Bft) O-NO 70 0 min 0,000 mm 0,0 UV-I 0 W/m 15,2 C 19,1 C 3,2 km/h (1 Bft) 95,74 %
27.08.2016 00:28 19,1 C 78 % 1017,7 hPa 0,0 l/m 1,8 km/h (1 Bft) O-NO 70 0 min 0,000 mm 0,0 UV-I 0 W/m 15,2 C 19,1 C 3,2 km/h (1 Bft) 100,00 %
27.08.2016 00:30 19,1 C 78 % 1017,7 hPa 0,0 l/m 1,9 km/h (1 Bft) O-NO 70 0 min 0,000 mm 0,0 UV-I 0 W/m 15,2 C 19,1 C 3,2 km/h (1 Bft) 100,00 %
27.08.2016 00:32 18,9 C 79 % 1017,7 hPa 0,0 l/m 1,8 km/h (1 Bft) O-NO 70 0 min 0,000 mm 0,0 UV-I 0 W/m 15,2 C 18,9 C 3,2 km/h (1 Bft) 100,00 %
27.08.2016 00:34 18,6 C 80 % 1017,7 hPa 0,0 l/m 1,5 km/h (1 Bft) O-NO 70 0 min 0,000 mm 0,0 UV-I 0 W/m 15,1 C 18,6 C 3,2 km/h (1 Bft) 97,87 %
27.08.2016 00:36 18,3 C 81 % 1017,7 hPa 0,0 l/m 1,7 km/h (1 Bft) O-NO 70 0 min 0,000 mm 0,0 UV-I 0 W/m 15,0 C 18,3 C 3,2 km/h (1 Bft) 100,00 %
27.08.2016 00:38 18,2 C 82 % 1017,7 hPa 0,0 l/m 1,6 km/h (1 Bft) O-NO 70 0 min 0,000 mm 0,0 UV-I 0 W/m 15,1 C 18,2 C 3,2 km/h (1 Bft) 100,00 %
27.08.2016 00:40 18,2 C 82 % 1017,7 hPa 0,0 l/m 2,2 km/h (1 Bft) O-NO 70 0 min 0,000 mm 0,0 UV-I 0 W/m 15,1 C 18,2 C 3,2 km/h (1 Bft) 97,87 %
27.08.2016 00:42 18,2 C 82 % 1017,7 hPa 0,0 l/m 2,2 km/h (1 Bft) O-NO 70 0 min 0,000 mm 0,0 UV-I 0 W/m 15,1 C 18,2 C 3,2 km/h (1 Bft) 100,00 %
27.08.2016 00:44 18,2 C 82 % 1017,8 hPa 0,0 l/m 2,1 km/h (1 Bft) O-NO 70 0 min 0,000 mm 0,0 UV-I 0 W/m 15,1 C 18,2 C 3,2 km/h (1 Bft) 97,87 %
27.08.2016 00:46 18,2 C 82 % 1017,7 hPa 0,0 l/m 1,7 km/h (1 Bft) O-NO 70 0 min 0,000 mm 0,0 UV-I 0 W/m 15,1 C 18,2 C 3,2 km/h (1 Bft) 100,00 %
27.08.2016 00:48 18,3 C 82 % 1017,8 hPa 0,0 l/m 1,2 km/h (1 Bft) O-NO 70 0 min 0,000 mm 0,0 UV-I 0 W/m 15,2 C 18,3 C 1,6 km/h (1 Bft) 100,00 %
27.08.2016 00:50 18,3 C 82 % 1017,8 hPa 0,0 l/m 1,1 km/h (1 Bft) O-NO 70 0 min 0,000 mm 0,0 UV-I 0 W/m 15,2 C 18,3 C 1,6 km/h (1 Bft) 100,00 %
27.08.2016 00:52 18,3 C 82 % 1017,8 hPa 0,0 l/m 1,2 km/h (1 Bft) O-NO 70 0 min 0,000 mm 0,0 UV-I 0 W/m 15,2 C 18,3 C 1,6 km/h (1 Bft) 100,00 %
27.08.2016 00:54 18,3 C 82 % 1017,8 hPa 0,0 l/m 1,3 km/h (1 Bft) O-NO 70 0 min 0,000 mm 0,0 UV-I 0 W/m 15,2 C 18,3 C 1,6 km/h (1 Bft) 100,00 %
27.08.2016 00:56 18,3 C 82 % 1017,8 hPa 0,0 l/m 1,7 km/h (1 Bft) O-NO 70 0 min 0,000 mm 0,0 UV-I 0 W/m 15,2 C 18,3 C 3,2 km/h (1 Bft) 100,00 %
27.08.2016 00:58 18,2 C 82 % 1017,8 hPa 0,0 l/m 1,6 km/h (1 Bft) O-NO 70 0 min 0,000 mm 0,0 UV-I 0 W/m 15,1 C 18,2 C 3,2 km/h (1 Bft) 100,00 %
27.08.2016 01:00 18,2 C 82 % 1017,8 hPa 0,0 l/m 2,4 km/h (1 Bft) O-NO 70 0 min 0,000 mm 0,0 UV-I 0 W/m 15,1 C 18,2 C 3,2 km/h (1 Bft) 100,00 %
27.08.2016 01:02 18,2 C 82 % 1017,8 hPa 0,0 l/m 2,9 km/h (1 Bft) O-NO 70 0 min 0,000 mm 0,0 UV-I 0 W/m 15,1 C 18,2 C 3,2 km/h (1 Bft) 100,00 %
27.08.2016 01:04 18,1 C 82 % 1017,8 hPa 0,0 l/m 3,0 km/h (1 Bft) O-NO 70 0 min 0,000 mm 0,0 UV-I 0 W/m 15,0 C 18,1 C 4,8 km/h (1 Bft) 100,00 %
27.08.2016 01:06 18,1 C 82 % 1017,8 hPa 0,0 l/m 2,9 km/h (1 Bft) O-NO 70 0 min 0,000 mm 0,0 UV-I 0 W/m 15,0 C 18,1 C 4,8 km/h (1 Bft) 95,83 %
27.08.2016 01:08 18,0 C 82 % 1017,8 hPa 0,0 l/m 3,2 km/h (1 Bft) O-NO 70 0 min 0,000 mm 0,0 UV-I 0 W/m 14,9 C 18,0 C 4,8 km/h (1 Bft) 97,96 %
27.08.2016 01:10 18,0 C 83 % 1017,8 hPa 0,0 l/m 3,2 km/h (1 Bft) O-NO 70 0 min 0,000 mm 0,0 UV-I 0 W/m 15,1 C 18,0 C 4,8 km/h (1 Bft) 93,62 %
27.08.2016 01:12 17,9 C 83 % 1017,8 hPa 0,0 l/m 3,0 km/h (1 Bft) O-NO 70 0 min 0,000 mm 0,0 UV-I 0 W/m 15,0 C 17,9 C 3,2 km/h (1 Bft) 97,87 %
27.08.2016 01:14 17,9 C 83 % 1017,8 hPa 0,0 l/m 2,5 km/h (1 Bft) O-NO 70 0 min 0,000 mm 0,0 UV-I 0 W/m 15,0 C 17,9 C 3,2 km/h (1 Bft) 97,87 %
27.08.2016 01:16 17,9 C 83 % 1017,8 hPa 0,0 l/m 2,2 km/h (1 Bft) O-NO 70 0 min 0,000 mm 0,0 UV-I 0 W/m 15,0 C 17,9 C 3,2 km/h (1 Bft) 95,74 %
27.08.2016 01:18 17,9 C 83 % 1017,9 hPa 0,0 l/m 1,8 km/h (1 Bft) O-NO 70 0 min 0,000 mm 0,0 UV-I 0 W/m 15,0 C 17,9 C 3,2 km/h (1 Bft) 95,74 %
27.08.2016 01:20 17,9 C 83 % 1017,8 hPa 0,0 l/m 1,8 km/h (1 Bft) O-NO 70 0 min 0,000 mm 0,0 UV-I 0 W/m 15,0 C 17,9 C 3,2 km/h (1 Bft) 93,62 %
27.08.2016 01:22 17,8 C 83 % 1017,8 hPa 0,0 l/m 2,1 km/h (1 Bft) O-NO 70 0 min 0,000 mm 0,0 UV-I 0 W/m 14,9 C 17,8 C 3,2 km/h (1 Bft) 93,62 %
27.08.2016 01:24 17,8 C 83 % 1017,8 hPa 0,0 l/m 1,7 km/h (1 Bft) O-NO 70 0 min 0,000 mm 0,0 UV-I 0 W/m 14,9 C 17,8 C 3,2 km/h (1 Bft) 97,87 %
27.08.2016 01:26 17,8 C 83 % 1017,8 hPa 0,0 l/m 1,3 km/h (1 Bft) O-NO 70 0 min 0,000 mm 0,0 UV-I 0 W/m 14,9 C 17,8 C 3,2 km/h (1 Bft) 96,00 %
27.08.2016 01:28 17,7 C 83 % 1017,8 hPa 0,0 l/m 1,7 km/h (1 Bft) O-NO 70 0 min 0,000 mm 0,0 UV-I 0 W/m 14,8 C 17,7 C 3,2 km/h (1 Bft) 95,74 %
27.08.2016 01:30 17,6 C 84 % 1017,8 hPa 0,0 l/m 1,3 km/h (1 Bft) O-NO 70 0 min 0,000 mm 0,0 UV-I 0 W/m 14,9 C 17,6 C 1,6 km/h (1 Bft) 95,74 %
27.08.2016 01:32 17,6 C 84 % 1017,8 hPa 0,0 l/m 1,2 km/h (1 Bft) O-NO 70 0 min 0,000 mm 0,0 UV-I 0 W/m 14,9 C 17,6 C 3,2 km/h (1 Bft) 97,87 %
27.08.2016 01:34 17,5 C 84 % 1017,8 hPa 0,0 l/m 0,9 km/h (0 Bft) O-NO 70 0 min 0,000 mm 0,0 UV-I 0 W/m 14,8 C 17,5 C 1,6 km/h (1 Bft) 97,87 %
27.08.2016 01:36 17,4 C 84 % 1017,8 hPa 0,0 l/m 1,3 km/h (1 Bft) O-NO 70 0 min 0,000 mm 0,0 UV-I 0 W/m 14,7 C 17,4 C 1,6 km/h (1 Bft) 97,30 %
27.08.2016 01:38 17,4 C 84 % 1017,9 hPa 0,0 l/m 1,4 km/h (1 Bft) O-NO 70 0 min 0,000 mm 0,0 UV-I 0 W/m 14,7 C 17,4 C 1,6 km/h (1 Bft) 98,00 %
27.08.2016 01:40 17,3 C 85 % 1017,9 hPa 0,0 l/m 1,0 km/h (0 Bft) O-NO 70 0 min 0,000 mm 0,0 UV-I 0 W/m 14,8 C 17,3 C 1,6 km/h (1 Bft) 98,08 %
27.08.2016 01:42 17,2 C 85 % 1017,9 hPa 0,0 l/m 0,1 km/h (0 Bft) O-NO 70 0 min 0,000 mm 0,0 UV-I 0 W/m 14,7 C 17,2 C 1,6 km/h (1 Bft) 100,00 %
27.08.2016 01:44 17,1 C 85 % 1017,9 hPa 0,0 l/m 0,0 km/h (0 Bft) O-NO 70 0 min 0,000 mm 0,0 UV-I 0 W/m 14,6 C 17,1 C 1,6 km/h (1 Bft) 100,00 %
27.08.2016 01:46 16,8 C 86 % 1017,8 hPa 0,0 l/m 1,3 km/h (1 Bft) O-NO 70 0 min 0,000 mm 0,0 UV-I 0 W/m 14,4 C 16,8 C 1,6 km/h (1 Bft) 100,00 %
27.08.2016 01:48 16,7 C 87 % 1017,9 hPa 0,0 l/m 0,6 km/h (0 Bft) O-NO 70 0 min 0,000 mm 0,0 UV-I 0 W/m 14,5 C 16,7 C 1,6 km/h (1 Bft) 100,00 %
27.08.2016 01:50 16,6 C 87 % 1017,9 hPa 0,0 l/m 0,5 km/h (0 Bft) O-NO 70 0 min 0,000 mm 0,0 UV-I 0 W/m 14,4 C 16,6 C 1,6 km/h (1 Bft) 97,87 %
27.08.2016 01:52 16,5 C 87 % 1017,9 hPa 0,0 l/m 0,3 km/h (0 Bft) O-NO 70 0 min 0,000 mm 0,0 UV-I 0 W/m 14,3 C 16,5 C 1,6 km/h (1 Bft) 98,00 %
27.08.2016 01:54 16,4 C 88 % 1017,9 hPa 0,0 l/m 0,0 km/h (0 Bft) O-NO 70 0 min 0,000 mm 0,0 UV-I 0 W/m 14,4 C 16,4 C 0,0 km/h (0 Bft) 97,87 %
27.08.2016 01:56 16,4 C 88 % 1017,9 hPa 0,0 l/m 0,0 km/h (0 Bft) O-NO 70 0 min 0,000 mm 0,0 UV-I 0 W/m 14,4 C 16,4 C 0,0 km/h (0 Bft) 100,00 %
27.08.2016 01:58 16,4 C 89 % 1017,8 hPa 0,0 l/m 0,9 km/h (0 Bft) O-NO 70 0 min 0,000 mm 0,0 UV-I 0 W/m 14,6 C 16,4 C 1,6 km/h (1 Bft) 100,00 %
27.08.2016 02:00 16,4 C 89 % 1017,9 hPa 0,0 l/m 1,7 km/h (1 Bft) O-NO 70 0 min 0,000 mm 0,0 UV-I 0 W/m 14,6 C 16,4 C 3,2 km/h (1 Bft) 100,00 %
27.08.2016 02:02 16,3 C 88 % 1017,8 hPa 0,0 l/m 1,8 km/h (1 Bft) O-NO 70 0 min 0,000 mm 0,0 UV-I 0 W/m 14,3 C 16,3 C 3,2 km/h (1 Bft) 100,00 %
27.08.2016 02:04 16,3 C 88 % 1017,8 hPa 0,0 l/m 1,5 km/h (1 Bft) O-NO 70 0 min 0,000 mm 0,0 UV-I 0 W/m 14,3 C 16,3 C 3,2 km/h (1 Bft) 100,00 %
27.08.2016 02:06 16,2 C 88 % 1017,8 hPa 0,0 l/m 0,8 km/h (0 Bft) O-NO 70 0 min 0,000 mm 0,0 UV-I 0 W/m 14,2 C 16,2 C 1,6 km/h (1 Bft) 97,87 %
27.08.2016 02:08 16,1 C 89 % 1017,8 hPa 0,0 l/m 0,0 km/h (0 Bft) O-NO 70 0 min 0,000 mm 0,0 UV-I 0 W/m 14,3 C 16,1 C 0,0 km/h (0 Bft) 100,00 %
27.08.2016 02:10 16,0 C 89 % 1017,8 hPa 0,0 l/m 0,0 km/h (0 Bft) O-NO 70 0 min 0,000 mm 0,0 UV-I 0 W/m 14,2 C 16,0 C 0,0 km/h (0 Bft) 100,00 %
27.08.2016 02:12 15,9 C 89 % 1017,8 hPa 0,0 l/m 0,0 km/h (0 Bft) O-NO 70 0 min 0,000 mm 0,0 UV-I 0 W/m 14,1 C 15,9 C 0,0 km/h (0 Bft) 100,00 %
27.08.2016 02:14 15,9 C 90 % 1017,8 hPa 0,0 l/m 0,0 km/h (0 Bft) O-NO 70 0 min 0,000 mm 0,0 UV-I 0 W/m 14,3 C 15,9 C 0,0 km/h (0 Bft) 100,00 %
27.08.2016 02:16 15,9 C 90 % 1017,8 hPa 0,0 l/m 0,0 km/h (0 Bft) O-NO 70 0 min 0,000 mm 0,0 UV-I 0 W/m 14,3 C 15,9 C 1,6 km/h (1 Bft) 100,00 %
27.08.2016 02:18 15,9 C 90 % 1017,8 hPa 0,0 l/m 0,0 km/h (0 Bft) O-NO 70 0 min 0,000 mm 0,0 UV-I 0 W/m 14,3 C 15,9 C 0,0 km/h (0 Bft) 100,00 %
27.08.2016 02:20 15,9 C 90 % 1017,9 hPa 0,0 l/m 0,0 km/h (0 Bft) O-NO 70 0 min 0,000 mm 0,0 UV-I 0 W/m 14,3 C 15,9 C 0,0 km/h (0 Bft) 100,00 %
27.08.2016 02:22 15,9 C 90 % 1017,8 hPa 0,0 l/m 0,1 km/h (0 Bft) O-NO 70 0 min 0,000 mm 0,0 UV-I 0 W/m 14,3 C 15,9 C 1,6 km/h (1 Bft) 97,87 %
27.08.2016 02:24 16,0 C 90 % 1017,8 hPa 0,0 l/m 0,0 km/h (0 Bft) O-NO 70 0 min 0,000 mm 0,0 UV-I 0 W/m 14,4 C 16,0 C 0,0 km/h (0 Bft) 97,92 %
27.08.2016 02:26 15,9 C 90 % 1017,8 hPa 0,0 l/m 0,0 km/h (0 Bft) O-NO 70 0 min 0,000 mm 0,0 UV-I 0 W/m 14,3 C 15,9 C 1,6 km/h (1 Bft) 100,00 %
27.08.2016 02:28 15,9 C 90 % 1017,9 hPa 0,0 l/m 0,0 km/h (0 Bft) O-NO 70 0 min 0,000 mm 0,0 UV-I 0 W/m 14,3 C 15,9 C 1,6 km/h (1 Bft) 100,00 %
27.08.2016 02:30 15,9 C 90 % 1017,9 hPa 0,0 l/m 0,0 km/h (0 Bft) O-NO 70 0 min 0,000 mm 0,0 UV-I 0 W/m 14,3 C 15,9 C 1,6 km/h (1 Bft) 100,00 %
27.08.2016 02:32 15,9 C 90 % 1017,9 hPa 0,0 l/m 0,8 km/h (0 Bft) O-NO 70 0 min 0,000 mm 0,0 UV-I 0 W/m 14,3 C 15,9 C 1,6 km/h (1 Bft) 97,87 %
27.08.2016 02:34 15,8 C 89 % 1017,9 hPa 0,0 l/m 1,0 km/h (0 Bft) O-NO 70 0 min 0,000 mm 0,0 UV-I 0 W/m 14,0 C 15,8 C 1,6 km/h (1 Bft) 100,00 %
27.08.2016 02:36 15,7 C 89 % 1017,9 hPa 0,0 l/m 0,6 km/h (0 Bft) O-NO 70 0 min 0,000 mm 0,0 UV-I 0 W/m 13,9 C 15,7 C 1,6 km/h (1 Bft) 100,00 %
27.08.2016 02:38 15,7 C 89 % 1017,9 hPa 0,0 l/m 0,9 km/h (0 Bft) O-NO 70 0 min 0,000 mm 0,0 UV-I 0 W/m 13,9 C 15,7 C 3,2 km/h (1 Bft) 100,00 %
27.08.2016 02:40 15,6 C 90 % 1018,0 hPa 0,0 l/m 1,9 km/h (1 Bft) O-NO 70 0 min 0,000 mm 0,0 UV-I 0 W/m 14,0 C 15,6 C 3,2 km/h (1 Bft) 100,00 %
27.08.2016 02:42 15,7 C 90 % 1017,9 hPa 0,0 l/m 1,2 km/h (1 Bft) O-NO 70 0 min 0,000 mm 0,0 UV-I 0 W/m 14,1 C 15,7 C 3,2 km/h (1 Bft) 100,00 %
27.08.2016 02:44 15,6 C 90 % 1018,0 hPa 0,0 l/m 0,5 km/h (0 Bft) O-NO 70 0 min 0,000 mm 0,0 UV-I 0 W/m 14,0 C 15,6 C 1,6 km/h (1 Bft) 98,00 %
27.08.2016 02:46 15,5 C 90 % 1018,0 hPa 0,0 l/m 0,3 km/h (0 Bft) O-NO 70 0 min 0,000 mm 0,0 UV-I 0 W/m 13,9 C 15,5 C 1,6 km/h (1 Bft) 100,00 %
27.08.2016 02:48 15,4 C 90 % 1018,0 hPa 0,0 l/m 0,7 km/h (0 Bft) O-NO 70 0 min 0,000 mm 0,0 UV-I 0 W/m 13,8 C 15,4 C 1,6 km/h (1 Bft) 100,00 %
27.08.2016 02:50 15,4 C 91 % 1018,0 hPa 0,0 l/m 1,7 km/h (1 Bft) O-NO 70 0 min 0,000 mm 0,0 UV-I 0 W/m 13,9 C 15,4 C 3,2 km/h (1 Bft) 100,00 %
27.08.2016 02:52 15,4 C 91 % 1018,0 hPa 0,0 l/m 1,5 km/h (1 Bft) O-NO 70 0 min 0,000 mm 0,0 UV-I 0 W/m 13,9 C 15,4 C 3,2 km/h (1 Bft) 96,00 %
27.08.2016 02:54 15,4 C 91 % 1018,0 hPa 0,0 l/m 1,6 km/h (1 Bft) O-NO 70 0 min 0,000 mm 0,0 UV-I 0 W/m 13,9 C 15,4 C 3,2 km/h (1 Bft) 95,74 %
27.08.2016 02:56 15,5 C 91 % 1018,1 hPa 0,0 l/m 0,9 km/h (0 Bft) O-NO 70 0 min 0,000 mm 0,0 UV-I 0 W/m 14,0 C 15,5 C 1,6 km/h (1 Bft) 97,87 %
27.08.2016 02:58 15,5 C 91 % 1018,2 hPa 0,0 l/m 0,9 km/h (0 Bft) O-NO 70 0 min 0,000 mm 0,0 UV-I 0 W/m 14,0 C 15,5 C 1,6 km/h (1 Bft) 100,00 %
27.08.2016 03:00 15,4 C 91 % 1018,2 hPa 0,0 l/m 1,0 km/h (0 Bft) O-NO 70 0 min 0,000 mm 0,0 UV-I 0 W/m 13,9 C 15,4 C 1,6 km/h (1 Bft) 100,00 %
27.08.2016 03:02 15,4 C 91 % 1018,1 hPa 0,0 l/m 1,0 km/h (0 Bft) O-NO 70 0 min 0,000 mm 0,0 UV-I 0 W/m 13,9 C 15,4 C 1,6 km/h (1 Bft) 95,74 %
27.08.2016 03:04 15,4 C 91 % 1018,1 hPa 0,0 l/m 0,2 km/h (0 Bft) O-NO 70 0 min 0,000 mm 0,0 UV-I 0 W/m 13,9 C 15,4 C 1,6 km/h (1 Bft) 97,87 %
27.08.2016 03:06 15,4 C 90 % 1018,2 hPa 0,0 l/m 0,0 km/h (0 Bft) O-NO 70 0 min 0,000 mm 0,0 UV-I 0 W/m 13,8 C 15,4 C 1,6 km/h (1 Bft) 96,00 %
27.08.2016 03:08 15,3 C 91 % 1018,2 hPa 0,0 l/m 1,3 km/h (1 Bft) O-NO 70 0 min 0,000 mm 0,0 UV-I 0 W/m 13,8 C 15,3 C 3,2 km/h (1 Bft) 96,00 %
27.08.2016 03:10 15,3 C 91 % 1018,2 hPa 0,0 l/m 0,3 km/h (0 Bft) O-NO 70 0 min 0,000 mm 0,0 UV-I 0 W/m 13,8 C 15,3 C 1,6 km/h (1 Bft) 95,74 %
27.08.2016 03:12 15,4 C 91 % 1018,2 hPa 0,0 l/m 0,0 km/h (0 Bft) O-NO 70 0 min 0,000 mm 0,0 UV-I 0 W/m 13,9 C 15,4 C 0,0 km/h (0 Bft) 95,74 %
27.08.2016 03:14 15,4 C 92 % 1018,2 hPa 0,0 l/m 0,0 km/h (0 Bft) O-NO 70 0 min 0,000 mm 0,0 UV-I 0 W/m 14,1 C 15,4 C 0,0 km/h (0 Bft) 95,74 %
27.08.2016 03:16 15,4 C 92 % 1018,3 hPa 0,0 l/m 0,0 km/h (0 Bft) O-NO 70 0 min 0,000 mm 0,0 UV-I 0 W/m 14,1 C 15,4 C 0,0 km/h (0 Bft) 95,74 %
27.08.2016 03:18 15,4 C 92 % 1018,3 hPa 0,0 l/m 0,0 km/h (0 Bft) O-NO 70 0 min 0,000 mm 0,0 UV-I 0 W/m 14,1 C 15,4 C 0,0 km/h (0 Bft) 95,74 %
27.08.2016 03:20 15,4 C 91 % 1018,3 hPa 0,0 l/m 0,0 km/h (0 Bft) O-NO 70 0 min 0,000 mm 0,0 UV-I 0 W/m 13,9 C 15,4 C 0,0 km/h (0 Bft) 97,87 %
27.08.2016 03:22 15,4 C 92 % 1018,3 hPa 0,0 l/m 0,7 km/h (0 Bft) O-NO 70 0 min 0,000 mm 0,0 UV-I 0 W/m 14,1 C 15,4 C 1,6 km/h (1 Bft) 94,00 %
27.08.2016 03:24 15,4 C 91 % 1018,3 hPa 0,0 l/m 1,2 km/h (1 Bft) O-NO 70 0 min 0,000 mm 0,0 UV-I 0 W/m 13,9 C 15,4 C 1,6 km/h (1 Bft) 100,00 %
27.08.2016 03:26 15,4 C 91 % 1018,3 hPa 0,0 l/m 1,2 km/h (1 Bft) O-NO 70 0 min 0,000 mm 0,0 UV-I 0 W/m 13,9 C 15,4 C 1,6 km/h (1 Bft) 95,74 %
27.08.2016 03:28 15,4 C 91 % 1018,3 hPa 0,0 l/m 1,2 km/h (1 Bft) O-NO 70 0 min 0,000 mm 0,0 UV-I 0 W/m 13,9 C 15,4 C 3,2 km/h (1 Bft) 95,74 %
27.08.2016 03:30 15,4 C 91 % 1018,3 hPa 0,0 l/m 0,7 km/h (0 Bft) O-NO 70 0 min 0,000 mm 0,0 UV-I 0 W/m 13,9 C 15,4 C 1,6 km/h (1 Bft) 95,74 %
27.08.2016 03:32 15,4 C 91 % 1018,3 hPa 0,0 l/m 0,0 km/h (0 Bft) O-NO 70 0 min 0,000 mm 0,0 UV-I 0 W/m 13,9 C 15,4 C 0,0 km/h (0 Bft) 95,74 %
27.08.2016 03:34 15,3 C 91 % 1018,2 hPa 0,0 l/m 0,0 km/h (0 Bft) O-NO 70 0 min 0,000 mm 0,0 UV-I 0 W/m 13,8 C 15,3 C 1,6 km/h (1 Bft) 97,92 %
27.08.2016 03:36 15,3 C 91 % 1018,3 hPa 0,0 l/m 0,2 km/h (0 Bft) O-NO 70 0 min 0,000 mm 0,0 UV-I 0 W/m 13,8 C 15,3 C 1,6 km/h (1 Bft) 97,87 %
27.08.2016 03:38 15,2 C 91 % 1018,3 hPa 0,0 l/m 0,8 km/h (0 Bft) O-NO 70 0 min 0,000 mm 0,0 UV-I 0 W/m 13,7 C 15,2 C 1,6 km/h (1 Bft) 97,87 %
27.08.2016 03:40 15,2 C 92 % 1018,2 hPa 0,0 l/m 0,3 km/h (0 Bft) O-NO 70 0 min 0,000 mm 0,0 UV-I 0 W/m 13,9 C 15,2 C 1,6 km/h (1 Bft) 95,74 %
27.08.2016 03:42 15,2 C 92 % 1018,3 hPa 0,0 l/m 0,0 km/h (0 Bft) O-NO 70 0 min 0,000 mm 0,0 UV-I 0 W/m 13,9 C 15,2 C 0,0 km/h (0 Bft) 100,00 %
27.08.2016 03:44 15,2 C 92 % 1018,3 hPa 0,0 l/m 0,0 km/h (0 Bft) O-NO 70 0 min 0,000 mm 0,0 UV-I 0 W/m 13,9 C 15,2 C 0,0 km/h (0 Bft) 97,87 %
27.08.2016 03:46 15,2 C 91 % 1018,3 hPa 0,0 l/m 0,0 km/h (0 Bft) O-NO 70 0 min 0,000 mm 0,0 UV-I 0 W/m 13,7 C 15,2 C 0,0 km/h (0 Bft) 97,87 %
27.08.2016 03:48 15,2 C 91 % 1018,3 hPa 0,0 l/m 0,0 km/h (0 Bft) O-NO 70 0 min 0,000 mm 0,0 UV-I 0 W/m 13,7 C 15,2 C 0,0 km/h (0 Bft) 100,00 %
27.08.2016 03:50 15,2 C 92 % 1018,3 hPa 0,0 l/m 0,0 km/h (0 Bft) O-NO 70 0 min 0,000 mm 0,0 UV-I 0 W/m 13,9 C 15,2 C 0,0 km/h (0 Bft) 97,87 %
27.08.2016 03:52 15,2 C 91 % 1018,3 hPa 0,0 l/m 0,5 km/h (0 Bft) O-NO 70 0 min 0,000 mm 0,0 UV-I 0 W/m 13,7 C 15,2 C 1,6 km/h (1 Bft) 100,00 %
27.08.2016 03:54 15,2 C 91 % 1018,3 hPa 0,0 l/m 0,2 km/h (0 Bft) O-NO 70 0 min 0,000 mm 0,0 UV-I 0 W/m 13,7 C 15,2 C 1,6 km/h (1 Bft) 98,00 %
27.08.2016 03:56 15,1 C 91 % 1018,4 hPa 0,0 l/m 0,6 km/h (0 Bft) O-NO 70 0 min 0,000 mm 0,0 UV-I 0 W/m 13,6 C 15,1 C 1,6 km/h (1 Bft) 100,00 %
27.08.2016 03:58 15,1 C 91 % 1018,4 hPa 0,0 l/m 0,0 km/h (0 Bft) O-NO 70 0 min 0,000 mm 0,0 UV-I 0 W/m 13,6 C 15,1 C 0,0 km/h (0 Bft) 100,00 %
27.08.2016 04:00 15,1 C 91 % 1018,4 hPa 0,0 l/m 0,0 km/h (0 Bft) O-NO 70 0 min 0,000 mm 0,0 UV-I 0 W/m 13,6 C 15,1 C 0,0 km/h (0 Bft) 100,00 %
27.08.2016 04:02 15,0 C 92 % 1018,4 hPa 0,0 l/m 0,6 km/h (0 Bft) O-NO 70 0 min 0,000 mm 0,0 UV-I 0 W/m 13,7 C 15,0 C 1,6 km/h (1 Bft) 100,00 %
27.08.2016 04:04 15,0 C 92 % 1018,4 hPa 0,0 l/m 1,1 km/h (1 Bft) O-NO 70 0 min 0,000 mm 0,0 UV-I 0 W/m 13,7 C 15,0 C 1,6 km/h (1 Bft) 100,00 %
27.08.2016 04:06 15,0 C 92 % 1018,4 hPa 0,0 l/m 1,2 km/h (1 Bft) O-NO 70 0 min 0,000 mm 0,0 UV-I 0 W/m 13,7 C 15,0 C 1,6 km/h (1 Bft) 100,00 %
27.08.2016 04:08 15,0 C 92 % 1018,4 hPa 0,0 l/m 1,8 km/h (1 Bft) O-NO 70 0 min 0,000 mm 0,0 UV-I 0 W/m 13,7 C 15,0 C 3,2 km/h (1 Bft) 100,00 %
27.08.2016 04:10 15,0 C 92 % 1018,4 hPa 0,0 l/m 2,2 km/h (1 Bft) O-NO 70 0 min 0,000 mm 0,0 UV-I 0 W/m 13,7 C 15,0 C 3,2 km/h (1 Bft) 100,00 %
27.08.2016 04:12 15,0 C 93 % 1018,4 hPa 0,0 l/m 2,2 km/h (1 Bft) O-NO 70 0 min 0,000 mm 0,0 UV-I 0 W/m 13,9 C 15,0 C 3,2 km/h (1 Bft) 95,74 %
27.08.2016 04:14 15,0 C 93 % 1018,3 hPa 0,0 l/m 2,3 km/h (1 Bft) O-NO 70 0 min 0,000 mm 0,0 UV-I 0 W/m 13,9 C 15,0 C 3,2 km/h (1 Bft) 97,87 %
27.08.2016 04:16 15,0 C 93 % 1018,4 hPa 0,0 l/m 1,2 km/h (1 Bft) O-NO 70 0 min 0,000 mm 0,0 UV-I 0 W/m 13,9 C 15,0 C 3,2 km/h (1 Bft) 100,00 %
27.08.2016 04:18 14,9 C 92 % 1018,3 hPa 0,0 l/m 1,2 km/h (1 Bft) O-NO 70 0 min 0,000 mm 0,0 UV-I 0 W/m 13,6 C 14,9 C 1,6 km/h (1 Bft) 100,00 %
27.08.2016 04:20 14,8 C 92 % 1018,3 hPa 0,0 l/m 0,9 km/h (0 Bft) O-NO 70 0 min 0,000 mm 0,0 UV-I 0 W/m 13,5 C 14,8 C 1,6 km/h (1 Bft) 100,00 %
27.08.2016 04:22 14,8 C 92 % 1018,3 hPa 0,0 l/m 1,3 km/h (1 Bft) O-NO 70 0 min 0,000 mm 0,0 UV-I 0 W/m 13,5 C 14,8 C 3,2 km/h (1 Bft) 100,00 %
27.08.2016 04:24 14,8 C 93 % 1018,3 hPa 0,0 l/m 1,3 km/h (1 Bft) O-NO 70 0 min 0,000 mm 0,0 UV-I 0 W/m 13,7 C 14,8 C 1,6 km/h (1 Bft) 97,87 %
27.08.2016 04:26 14,8 C 93 % 1018,3 hPa 0,0 l/m 0,4 km/h (0 Bft) O-NO 70 0 min 0,000 mm 0,0 UV-I 0 W/m 13,7 C 14,8 C 1,6 km/h (1 Bft) 100,00 %
27.08.2016 04:28 14,8 C 93 % 1018,3 hPa 0,0 l/m 0,1 km/h (0 Bft) O-NO 70 0 min 0,000 mm 0,0 UV-I 0 W/m 13,7 C 14,8 C 1,6 km/h (1 Bft) 100,00 %
27.08.2016 04:30 14,8 C 93 % 1018,3 hPa 0,0 l/m 0,1 km/h (0 Bft) O-NO 70 0 min 0,000 mm 0,0 UV-I 0 W/m 13,7 C 14,8 C 1,6 km/h (1 Bft) 100,00 %
27.08.2016 04:32 14,7 C 93 % 1018,3 hPa 0,0 l/m 0,0 km/h (0 Bft) O-NO 70 0 min 0,000 mm 0,0 UV-I 0 W/m 13,6 C 14,7 C 1,6 km/h (1 Bft) 100,00 %
27.08.2016 04:34 14,7 C 93 % 1018,3 hPa 0,0 l/m 0,1 km/h (0 Bft) O-NO 70 0 min 0,000 mm 0,0 UV-I 0 W/m 13,6 C 14,7 C 1,6 km/h (1 Bft) 100,00 %
27.08.2016 04:36 14,8 C 93 % 1018,3 hPa 0,0 l/m 0,1 km/h (0 Bft) O-NO 70 0 min 0,000 mm 0,0 UV-I 0 W/m 13,7 C 14,8 C 1,6 km/h (1 Bft) 100,00 %
27.08.2016 04:38 14,8 C 94 % 1018,3 hPa 0,0 l/m 0,0 km/h (0 Bft) O-NO 70 0 min 0,000 mm 0,0 UV-I 0 W/m 13,8 C 14,8 C 0,0 km/h (0 Bft) 100,00 %
27.08.2016 04:40 14,8 C 94 % 1018,3 hPa 0,0 l/m 0,0 km/h (0 Bft) O-NO 70 0 min 0,000 mm 0,0 UV-I 0 W/m 13,8 C 14,8 C 1,6 km/h (1 Bft) 97,87 %
27.08.2016 04:42 14,8 C 93 % 1018,3 hPa 0,0 l/m 0,0 km/h (0 Bft) O-NO 70 0 min 0,000 mm 0,0 UV-I 0 W/m 13,7 C 14,8 C 0,0 km/h (0 Bft) 100,00 %
27.08.2016 04:44 14,8 C 93 % 1018,4 hPa 0,0 l/m 0,0 km/h (0 Bft) O-NO 70 0 min 0,000 mm 0,0 UV-I 0 W/m 13,7 C 14,8 C 0,0 km/h (0 Bft) 97,14 %
27.08.2016 04:46 14,8 C 93 % 1018,4 hPa 0,0 l/m 0,0 km/h (0 Bft) O-NO 70 0 min 0,000 mm 0,0 UV-I 0 W/m 13,7 C 14,8 C 0,0 km/h (0 Bft) 97,87 %
27.08.2016 04:48 14,7 C 93 % 1018,4 hPa 0,0 l/m 0,0 km/h (0 Bft) O-NO 70 0 min 0,000 mm 0,0 UV-I 0 W/m 13,6 C 14,7 C 0,0 km/h (0 Bft) 97,87 %
27.08.2016 04:50 14,7 C 93 % 1018,4 hPa 0,0 l/m 0,0 km/h (0 Bft) O-NO 70 0 min 0,000 mm 0,0 UV-I 0 W/m 13,6 C 14,7 C 0,0 km/h (0 Bft) 100,00 %
27.08.2016 04:52 14,7 C 93 % 1018,4 hPa 0,0 l/m 0,0 km/h (0 Bft) O-NO 70 0 min 0,000 mm 0,0 UV-I 0 W/m 13,6 C 14,7 C 0,0 km/h (0 Bft) 100,00 %
27.08.2016 04:54 14,7 C 93 % 1018,4 hPa 0,0 l/m 0,0 km/h (0 Bft) O-NO 70 0 min 0,000 mm 0,0 UV-I 0 W/m 13,6 C 14,7 C 0,0 km/h (0 Bft) 100,00 %
27.08.2016 04:56 14,6 C 93 % 1018,4 hPa 0,0 l/m 0,0 km/h (0 Bft) O-NO 70 0 min 0,000 mm 0,0 UV-I 0 W/m 13,5 C 14,6 C 0,0 km/h (0 Bft) 100,00 %
27.08.2016 04:58 14,7 C 93 % 1018,4 hPa 0,0 l/m 0,0 km/h (0 Bft) O-NO 70 0 min 0,000 mm 0,0 UV-I 0 W/m 13,6 C 14,7 C 0,0 km/h (0 Bft) 100,00 %
27.08.2016 05:00 14,7 C 92 % 1018,3 hPa 0,0 l/m 0,0 km/h (0 Bft) O-NO 70 0 min 0,000 mm 0,0 UV-I 0 W/m 13,4 C 14,7 C 0,0 km/h (0 Bft) 100,00 %
27.08.2016 05:02 14,6 C 93 % 1018,4 hPa 0,0 l/m 0,0 km/h (0 Bft) O-NO 70 0 min 0,000 mm 0,0 UV-I 0 W/m 13,5 C 14,6 C 0,0 km/h (0 Bft) 100,00 %
27.08.2016 05:04 14,6 C 93 % 1018,3 hPa 0,0 l/m 0,0 km/h (0 Bft) O-NO 70 0 min 0,000 mm 0,0 UV-I 0 W/m 13,5 C 14,6 C 0,0 km/h (0 Bft) 97,87 %
27.08.2016 05:06 14,7 C 93 % 1018,3 hPa 0,0 l/m 0,0 km/h (0 Bft) O-NO 70 0 min 0,000 mm 0,0 UV-I 0 W/m 13,6 C 14,7 C 0,0 km/h (0 Bft) 98,00 %
27.08.2016 05:08 14,7 C 93 % 1018,3 hPa 0,0 l/m 0,0 km/h (0 Bft) O-NO 70 0 min 0,000 mm 0,0 UV-I 0 W/m 13,6 C 14,7 C 0,0 km/h (0 Bft) 100,00 %
27.08.2016 05:10 14,6 C 93 % 1018,3 hPa 0,0 l/m 0,4 km/h (0 Bft) O-NO 70 0 min 0,000 mm 0,0 UV-I 0 W/m 13,5 C 14,6 C 1,6 km/h (1 Bft) 93,75 %
27.08.2016 05:12 14,7 C 94 % 1018,2 hPa 0,0 l/m 0,5 km/h (0 Bft) O-NO 70 0 min 0,000 mm 0,0 UV-I 0 W/m 13,7 C 14,7 C 1,6 km/h (1 Bft) 97,87 %
27.08.2016 05:14 14,7 C 94 % 1018,2 hPa 0,0 l/m 0,0 km/h (0 Bft) O-NO 70 0 min 0,000 mm 0,0 UV-I 0 W/m 13,7 C 14,7 C 0,0 km/h (0 Bft) 95,74 %
27.08.2016 05:16 14,7 C 94 % 1018,3 hPa 0,0 l/m 0,0 km/h (0 Bft) O-NO 70 0 min 0,000 mm 0,0 UV-I 0 W/m 13,7 C 14,7 C 0,0 km/h (0 Bft) 96,00 %
27.08.2016 05:18 14,7 C 94 % 1018,2 hPa 0,0 l/m 0,0 km/h (0 Bft) O-NO 70 0 min 0,000 mm 0,0 UV-I 0 W/m 13,7 C 14,7 C 0,0 km/h (0 Bft) 98,00 %
27.08.2016 05:20 14,7 C 94 % 1018,2 hPa 0,0 l/m 0,0 km/h (0 Bft) O-NO 70 0 min 0,000 mm 0,0 UV-I 0 W/m 13,7 C 14,7 C 0,0 km/h (0 Bft) 97,92 %
27.08.2016 05:22 14,7 C 94 % 1018,2 hPa 0,0 l/m 0,0 km/h (0 Bft) O-NO 70 0 min 0,000 mm 0,0 UV-I 0 W/m 13,7 C 14,7 C 0,0 km/h (0 Bft) 89,58 %
27.08.2016 05:24 14,7 C 94 % 1018,2 hPa 0,0 l/m 0,0 km/h (0 Bft) O-NO 70 0 min 0,000 mm 0,0 UV-I 0 W/m 13,7 C 14,7 C 0,0 km/h (0 Bft) 95,74 %
27.08.2016 05:26 14,6 C 94 % 1018,2 hPa 0,0 l/m 0,0 km/h (0 Bft) O-NO 70 0 min 0,000 mm 0,0 UV-I 0 W/m 13,6 C 14,6 C 0,0 km/h (0 Bft) 95,74 %
27.08.2016 05:28 14,4 C 93 % 1018,2 hPa 0,0 l/m 0,0 km/h (0 Bft) O-NO 70 0 min 0,000 mm 0,0 UV-I 0 W/m 13,3 C 14,4 C 0,0 km/h (0 Bft) 95,74 %
27.08.2016 05:30 14,4 C 93 % 1018,2 hPa 0,0 l/m 0,0 km/h (0 Bft) O-NO 70 0 min 0,000 mm 0,0 UV-I 0 W/m 13,3 C 14,4 C 0,0 km/h (0 Bft) 91,67 %
27.08.2016 05:32 14,3 C 93 % 1018,2 hPa 0,0 l/m 0,0 km/h (0 Bft) O-NO 70 0 min 0,000 mm 0,0 UV-I 0 W/m 13,2 C 14,3 C 0,0 km/h (0 Bft) 96,77 %
27.08.2016 05:34 14,3 C 93 % 1018,2 hPa 0,0 l/m 0,0 km/h (0 Bft) O-NO 70 0 min 0,000 mm 0,0 UV-I 0 W/m 13,2 C 14,3 C 0,0 km/h (0 Bft) 97,92 %
27.08.2016 05:36 14,3 C 93 % 1018,2 hPa 0,0 l/m 0,4 km/h (0 Bft) O-NO 70 0 min 0,000 mm 0,0 UV-I 0 W/m 13,2 C 14,3 C 1,6 km/h (1 Bft) 95,74 %
27.08.2016 05:38 14,2 C 93 % 1018,2 hPa 0,0 l/m 0,7 km/h (0 Bft) O-NO 70 0 min 0,000 mm 0,0 UV-I 0 W/m 13,1 C 14,2 C 1,6 km/h (1 Bft) 97,87 %
27.08.2016 05:40 14,2 C 93 % 1018,2 hPa 0,0 l/m 0,1 km/h (0 Bft) O-NO 70 0 min 0,000 mm 0,0 UV-I 0 W/m 13,1 C 14,2 C 1,6 km/h (1 Bft) 93,62 %
27.08.2016 05:42 14,2 C 93 % 1018,2 hPa 0,0 l/m 0,8 km/h (0 Bft) O-NO 70 0 min 0,000 mm 0,0 UV-I 0 W/m 13,1 C 14,2 C 1,6 km/h (1 Bft) 93,62 %
27.08.2016 05:44 14,1 C 93 % 1018,2 hPa 0,0 l/m 0,8 km/h (0 Bft) O-NO 70 0 min 0,000 mm 0,0 UV-I 0 W/m 13,0 C 14,1 C 1,6 km/h (1 Bft) 97,87 %
27.08.2016 05:46 14,1 C 93 % 1018,2 hPa 0,0 l/m 0,4 km/h (0 Bft) O-NO 70 0 min 0,000 mm 0,0 UV-I 0 W/m 13,0 C 14,1 C 1,6 km/h (1 Bft) 97,87 %
27.08.2016 05:48 14,1 C 94 % 1018,3 hPa 0,0 l/m 1,0 km/h (0 Bft) O-NO 70 0 min 0,000 mm 0,0 UV-I 0 W/m 13,1 C 14,1 C 1,6 km/h (1 Bft) 100,00 %
27.08.2016 05:50 14,1 C 94 % 1018,3 hPa 0,0 l/m 0,4 km/h (0 Bft) O-NO 70 0 min 0,000 mm 0,0 UV-I 0 W/m 13,1 C 14,1 C 1,6 km/h (1 Bft) 100,00 %
27.08.2016 05:52 14,2 C 94 % 1018,3 hPa 0,0 l/m 0,0 km/h (0 Bft) O-NO 70 0 min 0,000 mm 0,0 UV-I 0 W/m 13,2 C 14,2 C 0,0 km/h (0 Bft) 97,87 %
27.08.2016 05:54 14,2 C 94 % 1018,3 hPa 0,0 l/m 0,0 km/h (0 Bft) O-NO 70 0 min 0,000 mm 0,0 UV-I 0 W/m 13,2 C 14,2 C 0,0 km/h (0 Bft) 100,00 %
27.08.2016 05:56 14,2 C 94 % 1018,3 hPa 0,0 l/m 0,0 km/h (0 Bft) O-NO 70 0 min 0,000 mm 0,0 UV-I 0 W/m 13,2 C 14,2 C 0,0 km/h (0 Bft) 97,87 %
27.08.2016 05:58 14,1 C 94 % 1018,3 hPa 0,0 l/m 0,0 km/h (0 Bft) O-NO 70 0 min 0,000 mm 0,0 UV-I 0 W/m 13,1 C 14,1 C 0,0 km/h (0 Bft) 100,00 %
27.08.2016 06:00 14,1 C 94 % 1018,3 hPa 0,0 l/m 0,0 km/h (0 Bft) O-NO 70 0 min 0,000 mm 0,0 UV-I 0 W/m 13,1 C 14,1 C 0,0 km/h (0 Bft) 100,00 %
27.08.2016 06:02 14,0 C 94 % 1018,3 hPa 0,0 l/m 0,0 km/h (0 Bft) O-NO 70 0 min 0,000 mm 0,0 UV-I 0 W/m 13,0 C 14,0 C 0,0 km/h (0 Bft) 100,00 %
27.08.2016 06:04 13,9 C 94 % 1018,2 hPa 0,0 l/m 0,0 km/h (0 Bft) O-NO 70 0 min 0,000 mm 0,0 UV-I 0 W/m 12,9 C 13,9 C 1,6 km/h (1 Bft) 100,00 %
27.08.2016 06:06 13,9 C 94 % 1018,2 hPa 0,0 l/m 0,7 km/h (0 Bft) O-NO 70 0 min 0,000 mm 0,0 UV-I 0 W/m 12,9 C 13,9 C 1,6 km/h (1 Bft) 100,00 %
27.08.2016 06:08 13,8 C 94 % 1018,2 hPa 0,0 l/m 1,4 km/h (1 Bft) O-NO 70 0 min 0,000 mm 0,0 UV-I 0 W/m 12,9 C 13,8 C 3,2 km/h (1 Bft) 97,30 %
27.08.2016 06:10 13,8 C 94 % 1018,2 hPa 0,0 l/m 1,6 km/h (1 Bft) O-NO 70 0 min 0,000 mm 0,0 UV-I 0 W/m 12,9 C 13,8 C 3,2 km/h (1 Bft) 97,92 %
27.08.2016 06:12 13,8 C 95 % 1018,2 hPa 0,0 l/m 1,3 km/h (1 Bft) O-NO 70 0 min 0,000 mm 0,0 UV-I 0 W/m 13,0 C 13,8 C 1,6 km/h (1 Bft) 100,00 %
27.08.2016 06:14 14,0 C 95 % 1018,2 hPa 0,0 l/m 1,1 km/h (1 Bft) O-NO 70 0 min 0,000 mm 0,0 UV-I 5 W/m 13,2 C 14,0 C 1,6 km/h (1 Bft) 100,00 %
27.08.2016 06:16 14,2 C 95 % 1018,3 hPa 0,0 l/m 2,0 km/h (1 Bft) O-NO 70 0 min 0,000 mm 0,0 UV-I 5 W/m 13,4 C 14,2 C 3,2 km/h (1 Bft) 100,00 %
27.08.2016 06:18 14,3 C 95 % 1018,2 hPa 0,0 l/m 0,7 km/h (0 Bft) O-NO 70 0 min 0,000 mm 0,0 UV-I 6 W/m 13,5 C 14,3 C 3,2 km/h (1 Bft) 100,00 %
27.08.2016 06:20 14,3 C 95 % 1018,3 hPa 0,0 l/m 0,0 km/h (0 Bft) O-NO 70 0 min 0,000 mm 0,0 UV-I 7 W/m 13,5 C 14,3 C 0,0 km/h (0 Bft) 100,00 %
27.08.2016 06:22 14,3 C 95 % 1018,3 hPa 0,0 l/m 0,0 km/h (0 Bft) O-NO 70 0 min 0,000 mm 0,0 UV-I 8 W/m 13,5 C 14,3 C 0,0 km/h (0 Bft) 100,00 %
27.08.2016 06:24 14,2 C 94 % 1018,2 hPa 0,0 l/m 0,0 km/h (0 Bft) O-NO 70 0 min 0,000 mm 0,0 UV-I 9 W/m 13,2 C 14,2 C 0,0 km/h (0 Bft) 100,00 %
27.08.2016 06:26 14,2 C 94 % 1018,2 hPa 0,0 l/m 0,0 km/h (0 Bft) O-NO 70 2 min 0,000 mm 0,0 UV-I 10 W/m 13,2 C 14,2 C 0,0 km/h (0 Bft) 97,87 %
27.08.2016 06:28 14,2 C 94 % 1018,2 hPa 0,0 l/m 0,0 km/h (0 Bft) O-NO 70 0 min 0,000 mm 0,0 UV-I 11 W/m 13,2 C 14,2 C 0,0 km/h (0 Bft) 95,74 %
27.08.2016 06:30 14,1 C 94 % 1018,2 hPa 0,0 l/m 0,0 km/h (0 Bft) O-NO 70 0 min 0,000 mm 0,0 UV-I 11 W/m 13,1 C 14,1 C 0,0 km/h (0 Bft) 100,00 %
27.08.2016 06:32 14,1 C 94 % 1018,2 hPa 0,0 l/m 0,9 km/h (0 Bft) O-NO 70 0 min 0,000 mm 0,0 UV-I 12 W/m 13,1 C 14,1 C 1,6 km/h (1 Bft) 100,00 %
27.08.2016 06:34 14,1 C 95 % 1018,1 hPa 0,0 l/m 1,2 km/h (1 Bft) O-NO 70 0 min 0,000 mm 0,0 UV-I 13 W/m 13,3 C 14,1 C 1,6 km/h (1 Bft) 100,00 %
27.08.2016 06:36 14,1 C 95 % 1018,1 hPa 0,0 l/m 0,3 km/h (0 Bft) O-NO 70 0 min 0,000 mm 0,0 UV-I 14 W/m 13,3 C 14,1 C 1,6 km/h (1 Bft) 100,00 %
27.08.2016 06:38 14,1 C 95 % 1018,2 hPa 0,0 l/m 0,0 km/h (0 Bft) O-NO 70 0 min 0,000 mm 0,0 UV-I 15 W/m 13,3 C 14,1 C 0,0 km/h (0 Bft) 100,00 %
27.08.2016 06:40 14,1 C 95 % 1018,2 hPa 0,0 l/m 0,0 km/h (0 Bft) O-NO 70 0 min 0,000 mm 0,0 UV-I 16 W/m 13,3 C 14,1 C 0,0 km/h (0 Bft) 97,37 %
27.08.2016 06:42 14,1 C 95 % 1018,2 hPa 0,0 l/m 0,0 km/h (0 Bft) O-NO 70 0 min 0,000 mm 0,0 UV-I 18 W/m 13,3 C 14,1 C 0,0 km/h (0 Bft) 100,00 %
27.08.2016 06:44 14,1 C 95 % 1018,2 hPa 0,0 l/m 0,0 km/h (0 Bft) O-NO 70 0 min 0,000 mm 0,0 UV-I 19 W/m 13,3 C 14,1 C 0,0 km/h (0 Bft) 100,00 %
27.08.2016 06:46 14,0 C 95 % 1018,3 hPa 0,0 l/m 0,0 km/h (0 Bft) O-NO 70 0 min 0,000 mm 0,0 UV-I 19 W/m 13,2 C 14,0 C 0,0 km/h (0 Bft) 100,00 %
27.08.2016 06:48 14,0 C 95 % 1018,3 hPa 0,0 l/m 0,0 km/h (0 Bft) O-NO 70 0 min 0,000 mm 0,0 UV-I 21 W/m 13,2 C 14,0 C 0,0 km/h (0 Bft) 100,00 %
27.08.2016 06:50 14,0 C 95 % 1018,3 hPa 0,0 l/m 0,0 km/h (0 Bft) O-NO 70 0 min 0,000 mm 0,0 UV-I 22 W/m 13,2 C 14,0 C 0,0 km/h (0 Bft) 100,00 %
27.08.2016 06:52 14,0 C 95 % 1018,3 hPa 0,0 l/m 0,0 km/h (0 Bft) O-NO 70 0 min 0,000 mm 0,0 UV-I 24 W/m 13,2 C 14,0 C 0,0 km/h (0 Bft) 97,87 %
27.08.2016 06:54 14,0 C 96 % 1018,3 hPa 0,0 l/m 0,0 km/h (0 Bft) O-NO 70 0 min 0,000 mm 0,0 UV-I 25 W/m 13,4 C 14,0 C 0,0 km/h (0 Bft) 97,87 %
27.08.2016 06:56 14,1 C 96 % 1018,3 hPa 0,0 l/m 0,4 km/h (0 Bft) O-NO 70 0 min 0,000 mm 0,0 UV-I 28 W/m 13,5 C 14,1 C 1,6 km/h (1 Bft) 100,00 %
27.08.2016 06:58 14,1 C 96 % 1018,3 hPa 0,0 l/m 1,4 km/h (1 Bft) O-NO 70 0 min 0,000 mm 0,0 UV-I 34 W/m 13,5 C 14,1 C 1,6 km/h (1 Bft) 100,00 %
27.08.2016 07:00 14,2 C 96 % 1018,4 hPa 0,0 l/m 1,9 km/h (1 Bft) O-NO 70 0 min 0,000 mm 0,0 UV-I 39 W/m 13,6 C 14,2 C 3,2 km/h (1 Bft) 100,00 %
27.08.2016 07:02 14,3 C 96 % 1018,4 hPa 0,0 l/m 3,0 km/h (1 Bft) O-NO 70 0 min 0,000 mm 0,0 UV-I 39 W/m 13,7 C 14,3 C 4,8 km/h (1 Bft) 100,00 %
27.08.2016 07:04 14,4 C 96 % 1018,4 hPa 0,0 l/m 3,6 km/h (1 Bft) O-NO 70 0 min 0,000 mm 0,0 UV-I 41 W/m 13,8 C 14,4 C 4,8 km/h (1 Bft) 100,00 %
27.08.2016 07:06 14,4 C 96 % 1018,4 hPa 0,0 l/m 2,9 km/h (1 Bft) O-NO 70 0 min 0,000 mm 0,0 UV-I 44 W/m 13,8 C 14,4 C 4,8 km/h (1 Bft) 97,87 %
27.08.2016 07:08 14,4 C 96 % 1018,4 hPa 0,0 l/m 3,6 km/h (1 Bft) NO 53 0 min 0,000 mm 0,0 UV-I 52 W/m 13,8 C 14,4 C 4,8 km/h (1 Bft) 100,00 %
27.08.2016 07:10 14,6 C 96 % 1018,5 hPa 0,0 l/m 2,4 km/h (1 Bft) NO 53 0 min 0,000 mm 0,0 UV-I 56 W/m 14,0 C 14,6 C 3,2 km/h (1 Bft) 100,00 %
27.08.2016 07:12 14,6 C 96 % 1018,5 hPa 0,0 l/m 1,8 km/h (1 Bft) NO 53 0 min 0,000 mm 0,0 UV-I 54 W/m 14,0 C 14,6 C 3,2 km/h (1 Bft) 100,00 %
27.08.2016 07:14 14,7 C 96 % 1018,4 hPa 0,0 l/m 1,9 km/h (1 Bft) NO 53 0 min 0,000 mm 0,0 UV-I 59 W/m 14,1 C 14,7 C 3,2 km/h (1 Bft) 97,87 %
27.08.2016 07:16 14,7 C 96 % 1018,5 hPa 0,0 l/m 1,2 km/h (1 Bft) NO 53 0 min 0,000 mm 0,0 UV-I 62 W/m 14,1 C 14,7 C 3,2 km/h (1 Bft) 97,87 %
27.08.2016 07:18 14,8 C 96 % 1018,5 hPa 0,0 l/m 1,1 km/h (1 Bft) NO 53 0 min 0,000 mm 0,0 UV-I 76 W/m 14,2 C 14,8 C 3,2 km/h (1 Bft) 97,87 %
27.08.2016 07:20 14,9 C 96 % 1018,5 hPa 0,0 l/m 0,3 km/h (0 Bft) NO 53 0 min 0,000 mm 0,0 UV-I 90 W/m 14,3 C 14,9 C 1,6 km/h (1 Bft) 93,62 %
27.08.2016 07:22 14,9 C 96 % 1018,5 hPa 0,0 l/m 0,2 km/h (0 Bft) NO 53 0 min 0,000 mm 0,0 UV-I 84 W/m 14,3 C 14,9 C 1,6 km/h (1 Bft) 97,87 %
27.08.2016 07:24 15,0 C 95 % 1018,5 hPa 0,0 l/m 0,6 km/h (0 Bft) NO 53 0 min 0,000 mm 0,0 UV-I 80 W/m 14,2 C 15,0 C 3,2 km/h (1 Bft) 97,87 %
27.08.2016 07:26 15,1 C 95 % 1018,5 hPa 0,0 l/m 3,3 km/h (1 Bft) NO 44 0 min 0,000 mm 0,0 UV-I 75 W/m 14,3 C 15,1 C 4,8 km/h (1 Bft) 95,74 %
27.08.2016 07:28 15,1 C 96 % 1018,4 hPa 0,0 l/m 4,1 km/h (1 Bft) NO 44 0 min 0,000 mm 0,0 UV-I 64 W/m 14,5 C 15,1 C 6,4 km/h (2 Bft) 93,62 %
27.08.2016 07:30 15,1 C 96 % 1018,5 hPa 0,0 l/m 4,7 km/h (1 Bft) NO 44 0 min 0,000 mm 0,0 UV-I 65 W/m 14,5 C 15,1 C 6,4 km/h (2 Bft) 97,92 %
27.08.2016 07:32 15,1 C 96 % 1018,5 hPa 0,0 l/m 4,0 km/h (1 Bft) NO 44 0 min 0,000 mm 0,0 UV-I 73 W/m 14,5 C 15,1 C 4,8 km/h (1 Bft) 93,62 %
27.08.2016 07:34 15,1 C 96 % 1018,4 hPa 0,0 l/m 2,1 km/h (1 Bft) NO 44 0 min 0,000 mm 0,0 UV-I 80 W/m 14,5 C 15,1 C 3,2 km/h (1 Bft) 95,74 %
27.08.2016 07:36 15,1 C 96 % 1018,5 hPa 0,0 l/m 2,2 km/h (1 Bft) NO 44 0 min 0,000 mm 0,0 UV-I 83 W/m 14,5 C 15,1 C 3,2 km/h (1 Bft) 93,62 %
27.08.2016 07:38 15,2 C 96 % 1018,4 hPa 0,0 l/m 2,4 km/h (1 Bft) NO 44 0 min 0,000 mm 0,0 UV-I 78 W/m 14,6 C 15,2 C 3,2 km/h (1 Bft) 97,87 %
27.08.2016 07:40 15,2 C 96 % 1018,5 hPa 0,0 l/m 2,4 km/h (1 Bft) NO 44 0 min 0,000 mm 0,0 UV-I 78 W/m 14,6 C 15,2 C 4,8 km/h (1 Bft) 97,87 %
27.08.2016 07:42 15,3 C 96 % 1018,5 hPa 0,0 l/m 2,8 km/h (1 Bft) NO 44 0 min 0,000 mm 0,0 UV-I 76 W/m 14,7 C 15,3 C 4,8 km/h (1 Bft) 95,83 %
27.08.2016 07:44 15,3 C 96 % 1018,4 hPa 0,0 l/m 4,3 km/h (1 Bft) NO 53 0 min 0,000 mm 0,0 UV-I 83 W/m 14,7 C 15,3 C 6,4 km/h (2 Bft) 95,74 %
27.08.2016 07:46 15,3 C 96 % 1018,4 hPa 0,0 l/m 3,6 km/h (1 Bft) NO 54 0 min 0,000 mm 0,0 UV-I 92 W/m 14,7 C 15,3 C 6,4 km/h (2 Bft) 96,00 %
27.08.2016 07:48 15,4 C 96 % 1018,4 hPa 0,0 l/m 3,2 km/h (1 Bft) NO 54 0 min 0,000 mm 0,0 UV-I 112 W/m 14,8 C 15,4 C 6,4 km/h (2 Bft) 97,87 %
27.08.2016 07:50 15,4 C 96 % 1018,4 hPa 0,0 l/m 3,5 km/h (1 Bft) O-NO 66 0 min 0,000 mm 0,0 UV-I 122 W/m 14,8 C 15,4 C 6,4 km/h (2 Bft) 94,00 %
27.08.2016 07:52 15,4 C 96 % 1018,5 hPa 0,0 l/m 4,9 km/h (1 Bft) NO 44 0 min 0,000 mm 0,0 UV-I 108 W/m 14,8 C 15,4 C 6,4 km/h (2 Bft) 94,74 %
27.08.2016 07:54 15,4 C 96 % 1018,5 hPa 0,0 l/m 3,2 km/h (1 Bft) O-NO 61 0 min 0,000 mm 0,0 UV-I 112 W/m 14,8 C 15,4 C 4,8 km/h (1 Bft) 100,00 %
27.08.2016 07:56 15,4 C 96 % 1018,4 hPa 0,0 l/m 3,6 km/h (1 Bft) O-NO 58 0 min 0,000 mm 0,0 UV-I 112 W/m 14,8 C 15,4 C 4,8 km/h (1 Bft) 98,00 %
27.08.2016 07:58 15,4 C 96 % 1018,4 hPa 0,0 l/m 3,4 km/h (1 Bft) O-NO 57 0 min 0,000 mm 0,0 UV-I 122 W/m 14,8 C 15,4 C 4,8 km/h (1 Bft) 95,74 %
27.08.2016 08:00 15,6 C 97 % 1018,4 hPa 0,0 l/m 3,9 km/h (1 Bft) NO 56 0 min 0,051 mm 0,0 UV-I 119 W/m 15,1 C 15,6 C 4,8 km/h (1 Bft) 97,87 %
27.08.2016 08:02 15,6 C 97 % 1018,4 hPa 0,0 l/m 2,8 km/h (1 Bft) NO 56 0 min 0,000 mm 0,0 UV-I 138 W/m 15,1 C 15,6 C 4,8 km/h (1 Bft) 100,00 %
27.08.2016 08:04 15,5 C 97 % 1018,4 hPa 0,0 l/m 3,2 km/h (1 Bft) NO 56 0 min 0,000 mm 0,0 UV-I 137 W/m 15,0 C 15,5 C 4,8 km/h (1 Bft) 100,00 %
27.08.2016 08:06 15,4 C 96 % 1018,4 hPa 0,0 l/m 3,2 km/h (1 Bft) O-NO 65 0 min 0,000 mm 0,0 UV-I 135 W/m 14,8 C 15,4 C 4,8 km/h (1 Bft) 100,00 %
27.08.2016 08:08 15,4 C 97 % 1018,4 hPa 0,0 l/m 2,5 km/h (1 Bft) NO 55 0 min 0,000 mm 0,0 UV-I 140 W/m 14,9 C 15,4 C 4,8 km/h (1 Bft) 100,00 %
27.08.2016 08:10 15,6 C 97 % 1018,4 hPa 0,0 l/m 3,0 km/h (1 Bft) O-NO 62 0 min 0,000 mm 0,4 UV-I 127 W/m 15,1 C 15,6 C 6,4 km/h (2 Bft) 100,00 %
27.08.2016 08:12 15,6 C 97 % 1018,4 hPa 0,0 l/m 2,9 km/h (1 Bft) O-NO 60 0 min 0,000 mm 0,5 UV-I 148 W/m 15,1 C 15,6 C 4,8 km/h (1 Bft) 100,00 %
27.08.2016 08:14 15,6 C 97 % 1018,4 hPa 0,0 l/m 3,3 km/h (1 Bft) O-NO 60 0 min 0,000 mm 0,5 UV-I 166 W/m 15,1 C 15,6 C 4,8 km/h (1 Bft) 100,00 %
27.08.2016 08:16 15,7 C 97 % 1018,4 hPa 0,0 l/m 4,2 km/h (1 Bft) NO 55 2 min 0,000 mm 0,6 UV-I 189 W/m 15,2 C 15,7 C 6,4 km/h (2 Bft) 100,00 %
27.08.2016 08:18 15,8 C 97 % 1018,4 hPa 0,0 l/m 4,3 km/h (1 Bft) NO 52 2 min 0,000 mm 0,6 UV-I 204 W/m 15,3 C 15,8 C 6,4 km/h (2 Bft) 100,00 %
27.08.2016 08:20 15,8 C 97 % 1018,4 hPa 0,0 l/m 3,7 km/h (1 Bft) O-NO 58 2 min 0,000 mm 0,7 UV-I 199 W/m 15,3 C 15,8 C 6,4 km/h (2 Bft) 100,00 %
27.08.2016 08:22 15,9 C 97 % 1018,5 hPa 0,0 l/m 4,1 km/h (1 Bft) NO 53 2 min 0,000 mm 0,7 UV-I 201 W/m 15,4 C 15,9 C 6,4 km/h (2 Bft) 100,00 %
27.08.2016 08:24 16,1 C 97 % 1018,5 hPa 0,0 l/m 5,3 km/h (1 Bft) O-NO 62 2 min 0,000 mm 0,7 UV-I 212 W/m 15,6 C 16,1 C 8,0 km/h (2 Bft) 100,00 %
27.08.2016 08:26 16,2 C 96 % 1018,4 hPa 0,0 l/m 4,9 km/h (1 Bft) O-NO 63 2 min 0,000 mm 0,8 UV-I 213 W/m 15,6 C 16,2 C 6,4 km/h (2 Bft) 100,00 %
27.08.2016 08:28 16,3 C 96 % 1018,4 hPa 0,0 l/m 5,1 km/h (1 Bft) O-NO 70 2 min 0,000 mm 0,8 UV-I 208 W/m 15,7 C 16,3 C 6,4 km/h (2 Bft) 97,87 %
27.08.2016 08:30 16,4 C 95 % 1018,4 hPa 0,0 l/m 4,3 km/h (1 Bft) O-NO 58 2 min 0,000 mm 0,8 UV-I 202 W/m 15,6 C 16,4 C 6,4 km/h (2 Bft) 100,00 %
27.08.2016 08:32 16,6 C 94 % 1018,5 hPa 0,0 l/m 5,0 km/h (1 Bft) NO 34 0 min 0,000 mm 0,8 UV-I 199 W/m 15,6 C 16,6 C 6,4 km/h (2 Bft) 97,87 %
27.08.2016 08:34 16,9 C 94 % 1018,5 hPa 0,0 l/m 5,2 km/h (1 Bft) O-NO 58 0 min 0,000 mm 0,9 UV-I 197 W/m 15,9 C 16,9 C 8,0 km/h (2 Bft) 100,00 %
27.08.2016 08:36 17,1 C 93 % 1018,5 hPa 0,0 l/m 3,9 km/h (1 Bft) NO 45 0 min 0,000 mm 0,9 UV-I 200 W/m 16,0 C 17,1 C 6,4 km/h (2 Bft) 100,00 %
27.08.2016 08:38 17,3 C 92 % 1018,4 hPa 0,0 l/m 4,4 km/h (1 Bft) O-NO 67 0 min 0,000 mm 1,0 UV-I 205 W/m 16,0 C 17,3 C 6,4 km/h (2 Bft) 100,00 %
27.08.2016 08:40 17,4 C 91 % 1018,5 hPa 0,0 l/m 6,4 km/h (2 Bft) O-NO 59 2 min 0,000 mm 1,0 UV-I 216 W/m 15,9 C 17,4 C 8,0 km/h (2 Bft) 97,87 %
27.08.2016 08:42 17,4 C 90 % 1018,4 hPa 0,0 l/m 4,1 km/h (1 Bft) O-NO 59 2 min 0,000 mm 1,0 UV-I 235 W/m 15,7 C 17,4 C 6,4 km/h (2 Bft) 100,00 %
27.08.2016 08:44 17,6 C 89 % 1018,5 hPa 0,0 l/m 4,1 km/h (1 Bft) O-NO 75 2 min 0,000 mm 1,1 UV-I 253 W/m 15,8 C 17,6 C 6,4 km/h (2 Bft) 100,00 %
27.08.2016 08:46 17,7 C 90 % 1018,5 hPa 0,0 l/m 5,0 km/h (1 Bft) NO 54 2 min 0,000 mm 1,1 UV-I 272 W/m 16,0 C 17,7 C 8,0 km/h (2 Bft) 100,00 %
27.08.2016 08:48 17,8 C 89 % 1018,5 hPa 0,0 l/m 4,4 km/h (1 Bft) O-NO 76 2 min 0,000 mm 1,1 UV-I 288 W/m 16,0 C 17,8 C 6,4 km/h (2 Bft) 95,74 %
27.08.2016 08:50 17,8 C 89 % 1018,5 hPa 0,0 l/m 4,5 km/h (1 Bft) NO 37 2 min 0,000 mm 1,2 UV-I 302 W/m 16,0 C 17,8 C 8,0 km/h (2 Bft) 97,87 %
27.08.2016 08:52 18,0 C 88 % 1018,5 hPa 0,0 l/m 4,5 km/h (1 Bft) O-NO 78 2 min 0,000 mm 1,2 UV-I 314 W/m 16,0 C 18,0 C 11,3 km/h (2 Bft) 100,00 %
27.08.2016 08:54 18,1 C 87 % 1018,5 hPa 0,0 l/m 6,8 km/h (2 Bft) O-NO 60 2 min 0,000 mm 1,2 UV-I 326 W/m 15,9 C 17,9 C 9,7 km/h (2 Bft) 100,00 %
27.08.2016 08:56 18,1 C 87 % 1018,5 hPa 0,0 l/m 7,3 km/h (2 Bft) O-NO 72 2 min 0,000 mm 1,3 UV-I 339 W/m 15,9 C 17,7 C 11,3 km/h (2 Bft) 100,00 %
27.08.2016 08:58 18,1 C 86 % 1018,5 hPa 0,0 l/m 7,3 km/h (2 Bft) O-NO 63 2 min 0,000 mm 1,3 UV-I 351 W/m 15,7 C 17,7 C 11,3 km/h (2 Bft) 100,00 %
27.08.2016 09:00 18,1 C 86 % 1018,5 hPa 0,0 l/m 6,5 km/h (2 Bft) NO 55 2 min 0,127 mm 1,3 UV-I 363 W/m 15,7 C 18,1 C 11,3 km/h (2 Bft) 100,00 %
27.08.2016 09:02 18,2 C 86 % 1018,5 hPa 0,0 l/m 6,4 km/h (2 Bft) O-NO 70 2 min 0,000 mm 1,4 UV-I 370 W/m 15,8 C 18,2 C 9,7 km/h (2 Bft) 100,00 %
27.08.2016 09:04 18,3 C 86 % 1018,5 hPa 0,0 l/m 8,0 km/h (2 Bft) O-NO 69 2 min 0,000 mm 1,4 UV-I 376 W/m 15,9 C 17,6 C 12,9 km/h (3 Bft) 100,00 %
27.08.2016 09:06 18,4 C 87 % 1018,5 hPa 0,0 l/m 5,9 km/h (2 Bft) NO 50 2 min 0,000 mm 1,4 UV-I 383 W/m 16,2 C 18,4 C 9,7 km/h (2 Bft) 100,00 %
27.08.2016 09:08 18,6 C 88 % 1018,5 hPa 0,0 l/m 5,4 km/h (1 Bft) O-NO 66 2 min 0,000 mm 1,5 UV-I 387 W/m 16,6 C 18,6 C 8,0 km/h (2 Bft) 98,00 %
27.08.2016 09:10 18,7 C 86 % 1018,5 hPa 0,0 l/m 6,8 km/h (2 Bft) NO 49 2 min 0,000 mm 1,5 UV-I 395 W/m 16,3 C 18,5 C 9,7 km/h (2 Bft) 95,74 %
27.08.2016 09:12 18,8 C 87 % 1018,5 hPa 0,0 l/m 5,8 km/h (2 Bft) O-NO 70 2 min 0,000 mm 1,5 UV-I 399 W/m 16,6 C 18,8 C 8,0 km/h (2 Bft) 97,87 %
27.08.2016 09:14 18,9 C 86 % 1018,5 hPa 0,0 l/m 6,8 km/h (2 Bft) O-NO 73 2 min 0,000 mm 1,6 UV-I 404 W/m 16,5 C 18,7 C 11,3 km/h (2 Bft) 97,96 %
27.08.2016 09:16 18,9 C 85 % 1018,6 hPa 0,0 l/m 6,3 km/h (2 Bft) O 79 2 min 0,000 mm 1,6 UV-I 408 W/m 16,3 C 18,9 C 11,3 km/h (2 Bft) 97,87 %
27.08.2016 09:18 19,1 C 86 % 1018,6 hPa 0,0 l/m 8,0 km/h (2 Bft) O-NO 78 2 min 0,000 mm 1,6 UV-I 413 W/m 16,7 C 18,4 C 11,3 km/h (2 Bft) 95,74 %
27.08.2016 09:20 19,1 C 85 % 1018,6 hPa 0,0 l/m 7,1 km/h (2 Bft) O 84 2 min 0,000 mm 1,7 UV-I 417 W/m 16,5 C 18,8 C 11,3 km/h (2 Bft) 97,87 %
27.08.2016 09:22 19,2 C 85 % 1018,6 hPa 0,0 l/m 6,6 km/h (2 Bft) O 79 2 min 0,000 mm 1,7 UV-I 423 W/m 16,6 C 19,1 C 11,3 km/h (2 Bft) 95,74 %
27.08.2016 09:24 19,2 C 85 % 1018,6 hPa 0,0 l/m 5,0 km/h (1 Bft) O-NO 76 2 min 0,000 mm 1,8 UV-I 427 W/m 16,6 C 19,2 C 8,0 km/h (2 Bft) 97,37 %
27.08.2016 09:26 19,3 C 85 % 1018,6 hPa 0,0 l/m 6,6 km/h (2 Bft) O-NO 72 2 min 0,000 mm 1,8 UV-I 431 W/m 16,7 C 19,2 C 11,3 km/h (2 Bft) 95,83 %
27.08.2016 09:28 19,4 C 85 % 1018,7 hPa 0,0 l/m 6,4 km/h (2 Bft) O-NO 76 2 min 0,000 mm 1,9 UV-I 440 W/m 16,8 C 19,4 C 8,0 km/h (2 Bft) 95,92 %
27.08.2016 09:30 19,4 C 85 % 1018,7 hPa 0,0 l/m 4,2 km/h (1 Bft) NO 53 2 min 0,000 mm 1,9 UV-I 445 W/m 16,8 C 19,4 C 6,4 km/h (2 Bft) 93,75 %
27.08.2016 09:32 19,5 C 84 % 1018,6 hPa 0,0 l/m 6,0 km/h (2 Bft) O-NO 78 2 min 0,000 mm 1,9 UV-I 450 W/m 16,7 C 19,5 C 8,0 km/h (2 Bft) 95,74 %
27.08.2016 09:34 19,6 C 85 % 1018,6 hPa 0,0 l/m 6,6 km/h (2 Bft) O 82 2 min 0,000 mm 2,0 UV-I 457 W/m 17,0 C 19,5 C 11,3 km/h (2 Bft) 97,87 %
27.08.2016 09:36 19,6 C 84 % 1018,6 hPa 0,0 l/m 5,1 km/h (1 Bft) NO 55 2 min 0,000 mm 2,0 UV-I 462 W/m 16,8 C 19,6 C 6,4 km/h (2 Bft) 97,87 %
27.08.2016 09:38 19,6 C 84 % 1018,6 hPa 0,0 l/m 7,1 km/h (2 Bft) O-NO 67 2 min 0,000 mm 2,1 UV-I 467 W/m 16,8 C 19,3 C 9,7 km/h (2 Bft) 93,62 %
27.08.2016 09:40 19,7 C 85 % 1018,6 hPa 0,0 l/m 7,7 km/h (2 Bft) O-NO 67 2 min 0,000 mm 2,1 UV-I 473 W/m 17,1 C 19,2 C 11,3 km/h (2 Bft) 98,00 %
27.08.2016 09:42 19,8 C 84 % 1018,6 hPa 0,0 l/m 6,4 km/h (2 Bft) O 93 2 min 0,000 mm 2,2 UV-I 479 W/m 17,0 C 19,8 C 9,7 km/h (2 Bft) 97,87 %
27.08.2016 09:44 19,9 C 83 % 1018,6 hPa 0,0 l/m 5,8 km/h (2 Bft) O-SO 105 2 min 0,000 mm 2,2 UV-I 483 W/m 16,9 C 19,9 C 11,3 km/h (2 Bft) 97,87 %
27.08.2016 09:46 20,0 C 85 % 1018,6 hPa 0,0 l/m 6,1 km/h (2 Bft) O-NO 76 2 min 0,000 mm 2,3 UV-I 488 W/m 17,4 C 20,0 C 9,7 km/h (2 Bft) 100,00 %
27.08.2016 09:48 20,0 C 82 % 1018,6 hPa 0,0 l/m 5,5 km/h (1 Bft) NO 46 2 min 0,000 mm 2,3 UV-I 493 W/m 16,8 C 20,0 C 8,0 km/h (2 Bft) 100,00 %
27.08.2016 09:50 20,1 C 83 % 1018,6 hPa 0,0 l/m 4,1 km/h (1 Bft) NO 46 2 min 0,000 mm 2,3 UV-I 498 W/m 17,1 C 20,1 C 6,4 km/h (2 Bft) 100,00 %
27.08.2016 09:52 20,2 C 84 % 1018,6 hPa 0,0 l/m 4,9 km/h (1 Bft) O-NO 68 2 min 0,000 mm 2,4 UV-I 502 W/m 17,4 C 20,2 C 8,0 km/h (2 Bft) 100,00 %
27.08.2016 09:54 20,3 C 82 % 1018,6 hPa 0,0 l/m 4,8 km/h (1 Bft) O-NO 69 2 min 0,000 mm 2,4 UV-I 507 W/m 17,1 C 20,3 C 6,4 km/h (2 Bft) 100,00 %
27.08.2016 09:56 20,3 C 83 % 1018,6 hPa 0,0 l/m 6,1 km/h (2 Bft) O-NO 76 2 min 0,000 mm 2,5 UV-I 512 W/m 17,3 C 20,3 C 9,7 km/h (2 Bft) 100,00 %
27.08.2016 09:58 20,3 C 83 % 1018,6 hPa 0,0 l/m 7,0 km/h (2 Bft) O 80 2 min 0,000 mm 2,5 UV-I 517 W/m 17,3 C 20,1 C 8,0 km/h (2 Bft) 100,00 %
27.08.2016 10:00 20,4 C 82 % 1018,6 hPa 0,0 l/m 5,4 km/h (1 Bft) NO 45 2 min 0,254 mm 2,6 UV-I 521 W/m 17,2 C 20,4 C 9,7 km/h (2 Bft) 100,00 %
27.08.2016 10:02 20,5 C 83 % 1018,6 hPa 0,0 l/m 6,1 km/h (2 Bft) NO 42 2 min 0,000 mm 2,6 UV-I 526 W/m 17,5 C 20,5 C 9,7 km/h (2 Bft) 100,00 %
27.08.2016 10:04 20,6 C 83 % 1018,6 hPa 0,0 l/m 6,9 km/h (2 Bft) O-NO 57 2 min 0,000 mm 2,7 UV-I 533 W/m 17,6 C 20,4 C 11,3 km/h (2 Bft) 100,00 %
27.08.2016 10:06 20,6 C 82 % 1018,6 hPa 0,0 l/m 6,3 km/h (2 Bft) O-NO 72 2 min 0,000 mm 2,7 UV-I 536 W/m 17,4 C 20,6 C 8,0 km/h (2 Bft) 97,87 %
27.08.2016 10:08 20,6 C 82 % 1018,6 hPa 0,0 l/m 3,3 km/h (1 Bft) NO 53 2 min 0,000 mm 2,8 UV-I 540 W/m 17,4 C 20,6 C 6,4 km/h (2 Bft) 100,00 %
27.08.2016 10:10 20,7 C 83 % 1018,6 hPa 0,0 l/m 4,5 km/h (1 Bft) O-NO 78 2 min 0,000 mm 2,8 UV-I 546 W/m 17,7 C 20,7 C 8,0 km/h (2 Bft) 97,87 %
27.08.2016 10:12 20,9 C 81 % 1018,6 hPa 0,0 l/m 6,2 km/h (2 Bft) O-NO 57 2 min 0,000 mm 2,9 UV-I 550 W/m 17,5 C 20,9 C 12,9 km/h (3 Bft) 97,87 %
27.08.2016 10:14 20,9 C 82 % 1018,6 hPa 0,0 l/m 6,1 km/h (2 Bft) NO 55 2 min 0,000 mm 2,9 UV-I 555 W/m 17,7 C 20,9 C 9,7 km/h (2 Bft) 95,74 %
27.08.2016 10:16 21,1 C 81 % 1018,7 hPa 0,0 l/m 6,5 km/h (2 Bft) O-NO 62 2 min 0,000 mm 3,0 UV-I 559 W/m 17,7 C 21,1 C 9,7 km/h (2 Bft) 98,00 %
27.08.2016 10:18 21,1 C 81 % 1018,7 hPa 0,0 l/m 6,6 km/h (2 Bft) NO 48 2 min 0,000 mm 3,0 UV-I 563 W/m 17,7 C 21,0 C 9,7 km/h (2 Bft) 97,87 %
27.08.2016 10:20 21,1 C 81 % 1018,6 hPa 0,0 l/m 3,9 km/h (1 Bft) O 84 2 min 0,000 mm 3,0 UV-I 567 W/m 17,7 C 21,1 C 6,4 km/h (2 Bft) 100,00 %
27.08.2016 10:22 21,2 C 81 % 1018,7 hPa 0,0 l/m 6,2 km/h (2 Bft) O-NO 75 2 min 0,000 mm 3,1 UV-I 572 W/m 17,8 C 21,2 C 11,3 km/h (2 Bft) 97,87 %
27.08.2016 10:24 21,3 C 81 % 1018,7 hPa 0,0 l/m 6,6 km/h (2 Bft) O-SO 108 2 min 0,000 mm 3,1 UV-I 577 W/m 17,9 C 21,2 C 11,3 km/h (2 Bft) 100,00 %
27.08.2016 10:26 21,3 C 81 % 1018,7 hPa 0,0 l/m 5,8 km/h (2 Bft) O-NO 58 2 min 0,000 mm 3,2 UV-I 580 W/m 17,9 C 21,3 C 9,7 km/h (2 Bft) 97,87 %
27.08.2016 10:28 21,4 C 79 % 1018,6 hPa 0,0 l/m 3,4 km/h (1 Bft) NO 45 2 min 0,000 mm 3,2 UV-I 584 W/m 17,6 C 21,4 C 8,0 km/h (2 Bft) 100,00 %
27.08.2016 10:30 21,4 C 80 % 1018,6 hPa 0,0 l/m 7,0 km/h (2 Bft) NO 40 2 min 0,000 mm 3,3 UV-I 590 W/m 17,8 C 21,2 C 9,7 km/h (2 Bft) 100,00 %
27.08.2016 10:32 21,6 C 80 % 1018,6 hPa 0,0 l/m 4,2 km/h (1 Bft) O 81 2 min 0,000 mm 3,3 UV-I 593 W/m 18,0 C 21,6 C 8,0 km/h (2 Bft) 100,00 %
27.08.2016 10:34 21,6 C 80 % 1018,6 hPa 0,0 l/m 5,8 km/h (2 Bft) O 86 2 min 0,000 mm 3,4 UV-I 598 W/m 18,0 C 21,6 C 11,3 km/h (2 Bft) 100,00 %
27.08.2016 10:36 21,6 C 79 % 1018,6 hPa 0,0 l/m 5,1 km/h (1 Bft) O-NO 65 2 min 0,000 mm 3,4 UV-I 603 W/m 17,8 C 21,6 C 8,0 km/h (2 Bft) 98,00 %
27.08.2016 10:38 21,6 C 78 % 1018,6 hPa 0,0 l/m 4,4 km/h (1 Bft) O-NO 78 2 min 0,000 mm 3,4 UV-I 607 W/m 17,6 C 21,6 C 8,0 km/h (2 Bft) 100,00 %
27.08.2016 10:40 21,7 C 80 % 1018,6 hPa 0,0 l/m 4,5 km/h (1 Bft) O-NO 59 2 min 0,000 mm 3,5 UV-I 612 W/m 18,1 C 21,7 C 8,0 km/h (2 Bft) 100,00 %
27.08.2016 10:42 21,8 C 79 % 1018,5 hPa 0,0 l/m 4,7 km/h (1 Bft) O-NO 69 2 min 0,000 mm 3,6 UV-I 616 W/m 18,0 C 21,8 C 11,3 km/h (2 Bft) 100,00 %
27.08.2016 10:44 21,9 C 78 % 1018,5 hPa 0,0 l/m 8,1 km/h (2 Bft) O 86 2 min 0,000 mm 3,6 UV-I 620 W/m 17,9 C 21,3 C 12,9 km/h (3 Bft) 100,00 %
27.08.2016 10:46 22,1 C 79 % 1018,5 hPa 0,0 l/m 8,6 km/h (2 Bft) O-NO 75 2 min 0,000 mm 3,7 UV-I 625 W/m 18,3 C 21,4 C 11,3 km/h (2 Bft) 97,92 %
27.08.2016 10:48 22,1 C 77 % 1018,5 hPa 0,0 l/m 5,9 km/h (2 Bft) O-NO 63 2 min 0,000 mm 3,7 UV-I 629 W/m 17,9 C 22,1 C 11,3 km/h (2 Bft) 100,00 %
27.08.2016 10:50 22,1 C 77 % 1018,5 hPa 0,0 l/m 7,2 km/h (2 Bft) O-NO 74 2 min 0,000 mm 3,8 UV-I 633 W/m 17,9 C 21,8 C 12,9 km/h (3 Bft) 100,00 %
27.08.2016 10:52 22,1 C 77 % 1018,4 hPa 0,0 l/m 6,1 km/h (2 Bft) O-NO 74 2 min 0,000 mm 3,8 UV-I 636 W/m 17,9 C 22,1 C 9,7 km/h (2 Bft) 100,00 %
27.08.2016 10:54 22,1 C 77 % 1018,4 hPa 0,0 l/m 3,6 km/h (1 Bft) O 97 2 min 0,000 mm 3,8 UV-I 641 W/m 17,9 C 22,1 C 8,0 km/h (2 Bft) 100,00 %
27.08.2016 10:56 22,2 C 77 % 1018,5 hPa 0,0 l/m 7,3 km/h (2 Bft) O-NO 73 2 min 0,000 mm 3,9 UV-I 644 W/m 18,0 C 21,9 C 12,9 km/h (3 Bft) 100,00 %
27.08.2016 10:58 22,2 C 76 % 1018,5 hPa 0,0 l/m 6,0 km/h (2 Bft) O-SO 120 2 min 0,000 mm 3,9 UV-I 648 W/m 17,8 C 22,2 C 11,3 km/h (2 Bft) 100,00 %
27.08.2016 11:00 22,3 C 76 % 1018,4 hPa 0,0 l/m 4,3 km/h (1 Bft) SO 131 2 min 0,355 mm 4,0 UV-I 651 W/m 17,9 C 22,3 C 8,0 km/h (2 Bft) 100,00 %
27.08.2016 11:02 22,5 C 76 % 1018,4 hPa 0,0 l/m 7,2 km/h (2 Bft) O-NO 71 2 min 0,000 mm 4,0 UV-I 656 W/m 18,0 C 22,2 C 12,9 km/h (3 Bft) 100,00 %
27.08.2016 11:04 22,6 C 77 % 1018,4 hPa 0,0 l/m 6,8 km/h (2 Bft) O-NO 67 2 min 0,000 mm 4,1 UV-I 657 W/m 18,4 C 22,5 C 12,9 km/h (3 Bft) 97,14 %
27.08.2016 11:06 22,7 C 74 % 1018,4 hPa 0,0 l/m 6,2 km/h (2 Bft) NO 54 2 min 0,000 mm 4,1 UV-I 662 W/m 17,8 C 22,7 C 9,7 km/h (2 Bft) 98,00 %
27.08.2016 11:08 22,7 C 76 % 1018,4 hPa 0,0 l/m 7,8 km/h (2 Bft) NO 52 2 min 0,000 mm 4,1 UV-I 665 W/m 18,2 C 22,2 C 9,7 km/h (2 Bft) 97,87 %
27.08.2016 11:10 22,8 C 75 % 1018,4 hPa 0,0 l/m 7,1 km/h (2 Bft) O 82 2 min 0,000 mm 4,2 UV-I 668 W/m 18,1 C 22,6 C 12,9 km/h (3 Bft) 95,74 %
27.08.2016 11:12 22,8 C 74 % 1018,4 hPa 0,0 l/m 7,6 km/h (2 Bft) O-NO 63 2 min 0,000 mm 4,2 UV-I 673 W/m 17,9 C 22,4 C 12,9 km/h (3 Bft) 95,74 %
27.08.2016 11:14 22,8 C 74 % 1018,3 hPa 0,0 l/m 5,5 km/h (1 Bft) O 94 2 min 0,000 mm 4,3 UV-I 677 W/m 17,9 C 22,8 C 9,7 km/h (2 Bft) 95,74 %
27.08.2016 11:16 22,8 C 74 % 1018,3 hPa 0,0 l/m 7,8 km/h (2 Bft) O 80 2 min 0,000 mm 4,3 UV-I 679 W/m 17,9 C 22,4 C 14,5 km/h (3 Bft) 97,87 %
27.08.2016 11:18 22,8 C 73 % 1018,3 hPa 0,0 l/m 4,7 km/h (1 Bft) O-NO 76 2 min 0,000 mm 4,3 UV-I 682 W/m 17,7 C 22,8 C 8,0 km/h (2 Bft) 97,87 %
27.08.2016 11:20 22,7 C 74 % 1018,3 hPa 0,0 l/m 4,8 km/h (1 Bft) O-NO 71 2 min 0,000 mm 4,4 UV-I 687 W/m 17,8 C 22,7 C 8,0 km/h (2 Bft) 97,87 %
27.08.2016 11:22 22,8 C 75 % 1018,3 hPa 0,0 l/m 5,9 km/h (2 Bft) O 80 2 min 0,000 mm 4,4 UV-I 689 W/m 18,1 C 22,8 C 9,7 km/h (2 Bft) 97,92 %
27.08.2016 11:24 22,9 C 75 % 1018,3 hPa 0,0 l/m 3,8 km/h (1 Bft) O-NO 57 2 min 0,000 mm 4,5 UV-I 690 W/m 18,2 C 22,9 C 6,4 km/h (2 Bft) 97,87 %
27.08.2016 11:26 23,1 C 74 % 1018,3 hPa 0,0 l/m 6,5 km/h (2 Bft) O-SO 114 2 min 0,000 mm 4,5 UV-I 694 W/m 18,2 C 23,1 C 12,9 km/h (3 Bft) 94,00 %
27.08.2016 11:28 23,1 C 73 % 1018,3 hPa 0,0 l/m 7,2 km/h (2 Bft) O-SO 104 2 min 0,000 mm 4,6 UV-I 698 W/m 18,0 C 22,8 C 12,9 km/h (3 Bft) 97,87 %
27.08.2016 11:30 23,2 C 74 % 1018,2 hPa 0,0 l/m 7,6 km/h (2 Bft) NO 53 2 min 0,000 mm 4,6 UV-I 701 W/m 18,3 C 22,8 C 12,9 km/h (3 Bft) 97,62 %
27.08.2016 11:32 23,3 C 74 % 1018,2 hPa 0,0 l/m 7,3 km/h (2 Bft) O-SO 109 2 min 0,000 mm 4,6 UV-I 704 W/m 18,4 C 23,0 C 11,3 km/h (2 Bft) 97,87 %
27.08.2016 11:34 23,4 C 75 % 1018,3 hPa 0,0 l/m 4,5 km/h (1 Bft) O 87 2 min 0,000 mm 4,7 UV-I 706 W/m 18,7 C 23,4 C 9,7 km/h (2 Bft) 95,74 %
27.08.2016 11:36 23,6 C 74 % 1018,3 hPa 0,0 l/m 5,2 km/h (1 Bft) O 81 2 min 0,000 mm 4,7 UV-I 710 W/m 18,7 C 23,6 C 9,7 km/h (2 Bft) 100,00 %
27.08.2016 11:38 23,7 C 75 % 1018,3 hPa 0,0 l/m 6,6 km/h (2 Bft) O-NO 59 2 min 0,000 mm 4,8 UV-I 712 W/m 19,0 C 23,6 C 12,9 km/h (3 Bft) 100,00 %
27.08.2016 11:40 23,9 C 73 % 1018,3 hPa 0,0 l/m 6,6 km/h (2 Bft) O-NO 74 2 min 0,000 mm 4,8 UV-I 714 W/m 18,8 C 23,9 C 12,9 km/h (3 Bft) 98,00 %
27.08.2016 11:42 24,0 C 74 % 1018,3 hPa 0,0 l/m 5,0 km/h (1 Bft) O-NO 69 2 min 0,000 mm 4,8 UV-I 716 W/m 19,1 C 24,0 C 6,4 km/h (2 Bft) 95,74 %
27.08.2016 11:44 23,9 C 73 % 1018,3 hPa 0,0 l/m 8,1 km/h (2 Bft) O-NO 71 2 min 0,000 mm 4,9 UV-I 719 W/m 18,8 C 23,4 C 12,9 km/h (3 Bft) 100,00 %
27.08.2016 11:46 23,8 C 74 % 1018,3 hPa 0,0 l/m 4,4 km/h (1 Bft) O-NO 69 2 min 0,000 mm 4,9 UV-I 722 W/m 18,9 C 23,8 C 8,0 km/h (2 Bft) 100,00 %
27.08.2016 11:48 23,7 C 71 % 1018,3 hPa 0,0 l/m 2,5 km/h (1 Bft) NO 46 2 min 0,000 mm 4,9 UV-I 726 W/m 18,1 C 23,7 C 4,8 km/h (1 Bft) 100,00 %
27.08.2016 11:50 23,7 C 73 % 1018,3 hPa 0,0 l/m 6,6 km/h (2 Bft) O 101 2 min 0,000 mm 5,0 UV-I 726 W/m 18,6 C 23,6 C 11,3 km/h (2 Bft) 97,87 %
27.08.2016 11:52 23,8 C 72 % 1018,3 hPa 0,0 l/m 6,6 km/h (2 Bft) O-NO 67 2 min 0,000 mm 5,0 UV-I 728 W/m 18,4 C 23,7 C 11,3 km/h (2 Bft) 100,00 %
27.08.2016 11:54 23,9 C 72 % 1018,3 hPa 0,0 l/m 5,0 km/h (1 Bft) O 79 2 min 0,000 mm 5,0 UV-I 732 W/m 18,5 C 23,9 C 9,7 km/h (2 Bft) 100,00 %
27.08.2016 11:56 24,1 C 72 % 1018,2 hPa 0,0 l/m 7,4 km/h (2 Bft) O-NO 76 2 min 0,000 mm 5,0 UV-I 732 W/m 18,7 C 23,8 C 12,9 km/h (3 Bft) 100,00 %
27.08.2016 11:58 24,3 C 70 % 1018,2 hPa 0,0 l/m 7,5 km/h (2 Bft) O-NO 66 2 min 0,000 mm 5,1 UV-I 733 W/m 18,5 C 24,0 C 14,5 km/h (3 Bft) 100,00 %
27.08.2016 12:00 24,3 C 71 % 1018,2 hPa 0,0 l/m 7,5 km/h (2 Bft) O 80 2 min 0,458 mm 5,1 UV-I 736 W/m 18,7 C 24,0 C 11,3 km/h (2 Bft) 100,00 %
27.08.2016 12:02 24,4 C 71 % 1018,2 hPa 0,0 l/m 8,9 km/h (2 Bft) O-NO 58 2 min 0,000 mm 5,1 UV-I 739 W/m 18,8 C 23,7 C 14,5 km/h (3 Bft) 100,00 %
27.08.2016 12:04 24,4 C 70 % 1018,2 hPa 0,0 l/m 6,0 km/h (2 Bft) O-NO 60 2 min 0,000 mm 5,2 UV-I 741 W/m 18,6 C 24,4 C 9,7 km/h (2 Bft) 100,00 %
27.08.2016 12:06 24,4 C 70 % 1018,2 hPa 0,0 l/m 5,3 km/h (1 Bft) O 82 2 min 0,000 mm 5,2 UV-I 745 W/m 18,6 C 24,4 C 9,7 km/h (2 Bft) 100,00 %
27.08.2016 12:08 24,5 C 71 % 1018,1 hPa 0,0 l/m 7,2 km/h (2 Bft) O-NO 67 2 min 0,000 mm 5,2 UV-I 747 W/m 18,9 C 24,3 C 11,3 km/h (2 Bft) 98,44 %
27.08.2016 12:10 24,5 C 70 % 1018,0 hPa 0,0 l/m 6,6 km/h (2 Bft) O 86 2 min 0,000 mm 5,3 UV-I 751 W/m 18,7 C 24,5 C 11,3 km/h (2 Bft) 100,00 %
27.08.2016 12:12 24,6 C 70 % 1018,0 hPa 0,0 l/m 7,8 km/h (2 Bft) NO 38 2 min 0,000 mm 5,3 UV-I 754 W/m 18,8 C 24,2 C 14,5 km/h (3 Bft) 100,00 %
27.08.2016 12:14 24,7 C 71 % 1018,0 hPa 0,0 l/m 8,1 km/h (2 Bft) NO 35 2 min 0,000 mm 5,4 UV-I 753 W/m 19,1 C 24,3 C 16,1 km/h (3 Bft) 95,74 %
27.08.2016 12:16 24,8 C 71 % 1018,0 hPa 0,0 l/m 7,1 km/h (2 Bft) N-NO 33 2 min 0,000 mm 5,4 UV-I 756 W/m 19,2 C 24,6 C 14,5 km/h (3 Bft) 100,00 %
27.08.2016 12:18 24,9 C 68 % 1018,0 hPa 0,0 l/m 6,3 km/h (2 Bft) O 92 2 min 0,000 mm 5,4 UV-I 757 W/m 18,6 C 24,9 C 14,5 km/h (3 Bft) 100,00 %
27.08.2016 12:20 24,9 C 67 % 1018,0 hPa 0,0 l/m 11,0 km/h (2 Bft) O 93 2 min 0,000 mm 5,4 UV-I 759 W/m 18,3 C 23,9 C 16,1 km/h (3 Bft) 97,87 %
27.08.2016 12:22 24,8 C 68 % 1018,0 hPa 0,0 l/m 7,1 km/h (2 Bft) O-NO 59 2 min 0,000 mm 5,4 UV-I 760 W/m 18,5 C 24,6 C 14,5 km/h (3 Bft) 100,00 %
27.08.2016 12:24 25,0 C 71 % 1017,9 hPa 0,0 l/m 7,1 km/h (2 Bft) O-NO 68 2 min 0,000 mm 5,5 UV-I 760 W/m 19,4 C 24,8 C 9,7 km/h (2 Bft) 100,00 %
27.08.2016 12:26 25,2 C 67 % 1017,9 hPa 0,0 l/m 7,3 km/h (2 Bft) O-NO 68 2 min 0,000 mm 5,5 UV-I 763 W/m 18,6 C 25,0 C 11,3 km/h (2 Bft) 97,87 %
27.08.2016 12:28 25,2 C 67 % 1017,9 hPa 0,0 l/m 7,6 km/h (2 Bft) O-NO 57 2 min 0,000 mm 5,5 UV-I 764 W/m 18,6 C 24,9 C 12,9 km/h (3 Bft) 97,87 %
27.08.2016 12:30 25,2 C 69 % 1017,9 hPa 0,0 l/m 9,5 km/h (2 Bft) NO 48 2 min 0,000 mm 5,5 UV-I 765 W/m 19,1 C 24,5 C 16,1 km/h (3 Bft) 97,87 %
27.08.2016 12:32 25,2 C 67 % 1017,9 hPa 0,0 l/m 5,8 km/h (2 Bft) NO 44 2 min 0,000 mm 5,5 UV-I 766 W/m 18,6 C 25,2 C 14,5 km/h (3 Bft) 100,00 %
27.08.2016 12:34 25,3 C 66 % 1017,8 hPa 0,0 l/m 7,9 km/h (2 Bft) O-NO 65 2 min 0,000 mm 5,5 UV-I 766 W/m 18,5 C 24,9 C 14,5 km/h (3 Bft) 100,00 %
27.08.2016 12:36 25,3 C 67 % 1017,8 hPa 0,0 l/m 7,7 km/h (2 Bft) O 84 2 min 0,000 mm 5,6 UV-I 768 W/m 18,7 C 25,0 C 12,9 km/h (3 Bft) 100,00 %
27.08.2016 12:38 25,3 C 66 % 1017,8 hPa 0,0 l/m 9,4 km/h (2 Bft) O-NO 58 2 min 0,000 mm 5,6 UV-I 768 W/m 18,5 C 24,6 C 16,1 km/h (3 Bft) 98,00 %
27.08.2016 12:40 25,3 C 66 % 1017,8 hPa 0,0 l/m 8,9 km/h (2 Bft) O-NO 74 2 min 0,000 mm 5,6 UV-I 771 W/m 18,5 C 24,7 C 12,9 km/h (3 Bft) 100,00 %
27.08.2016 12:42 25,4 C 67 % 1017,8 hPa 0,0 l/m 6,5 km/h (2 Bft) O 90 2 min 0,000 mm 5,6 UV-I 772 W/m 18,8 C 25,4 C 12,9 km/h (3 Bft) 100,00 %
27.08.2016 12:44 25,4 C 66 % 1017,7 hPa 0,0 l/m 6,6 km/h (2 Bft) NO 36 2 min 0,000 mm 5,6 UV-I 773 W/m 18,6 C 25,4 C 11,3 km/h (2 Bft) 97,92 %
27.08.2016 12:46 25,7 C 65 % 1017,8 hPa 0,0 l/m 7,1 km/h (2 Bft) O-NO 62 2 min 0,000 mm 5,6 UV-I 773 W/m 18,6 C 25,5 C 9,7 km/h (2 Bft) 100,00 %
27.08.2016 12:48 25,8 C 67 % 1017,8 hPa 0,0 l/m 10,1 km/h (2 Bft) O 80 2 min 0,000 mm 5,6 UV-I 774 W/m 19,2 C 25,0 C 16,1 km/h (3 Bft) 100,00 %
27.08.2016 12:50 25,8 C 65 % 1017,8 hPa 0,0 l/m 11,6 km/h (2 Bft) O 92 2 min 0,000 mm 5,6 UV-I 775 W/m 18,7 C 24,8 C 14,5 km/h (3 Bft) 100,00 %
27.08.2016 12:52 25,6 C 66 % 1017,7 hPa 0,0 l/m 6,7 km/h (2 Bft) O-SO 113 2 min 0,000 mm 5,6 UV-I 775 W/m 18,8 C 25,5 C 11,3 km/h (2 Bft) 100,00 %
27.08.2016 12:54 25,6 C 64 % 1017,7 hPa 0,0 l/m 6,8 km/h (2 Bft) NO 46 2 min 0,000 mm 5,7 UV-I 777 W/m 18,3 C 25,5 C 11,3 km/h (2 Bft) 100,00 %
27.08.2016 12:56 25,7 C 65 % 1017,7 hPa 0,0 l/m 7,0 km/h (2 Bft) N-NO 28 2 min 0,000 mm 5,7 UV-I 778 W/m 18,6 C 25,6 C 9,7 km/h (2 Bft) 97,87 %
27.08.2016 12:58 25,8 C 65 % 1017,7 hPa 0,0 l/m 9,2 km/h (2 Bft) O 91 2 min 0,000 mm 5,7 UV-I 779 W/m 18,7 C 25,2 C 14,5 km/h (3 Bft) 97,87 %
27.08.2016 13:00 26,0 C 64 % 1017,7 hPa 0,0 l/m 7,5 km/h (2 Bft) O-SO 108 2 min 0,000 mm 5,7 UV-I 779 W/m 18,6 C 25,8 C 12,9 km/h (3 Bft) 95,74 %
27.08.2016 13:02 26,1 C 65 % 1017,6 hPa 0,0 l/m 6,2 km/h (2 Bft) O-NO 76 2 min 0,508 mm 5,7 UV-I 779 W/m 19,0 C 26,1 C 14,5 km/h (3 Bft) 97,37 %
27.08.2016 13:04 26,2 C 63 % 1017,6 hPa 0,0 l/m 11,7 km/h (2 Bft) O 88 2 min 0,000 mm 5,7 UV-I 780 W/m 18,6 C 25,2 C 16,1 km/h (3 Bft) 95,74 %
27.08.2016 13:06 26,2 C 63 % 1017,6 hPa 0,0 l/m 8,7 km/h (2 Bft) NO 38 2 min 0,000 mm 5,7 UV-I 780 W/m 18,6 C 25,7 C 14,5 km/h (3 Bft) 97,14 %
27.08.2016 13:08 26,2 C 61 % 1017,7 hPa 0,0 l/m 7,5 km/h (2 Bft) NO 51 2 min 0,000 mm 5,7 UV-I 781 W/m 18,1 C 26,0 C 14,5 km/h (3 Bft) 98,39 %
27.08.2016 13:10 26,2 C 63 % 1017,6 hPa 0,0 l/m 6,7 km/h (2 Bft) O 84 2 min 0,000 mm 5,7 UV-I 780 W/m 18,6 C 26,1 C 9,7 km/h (2 Bft) 97,87 %
27.08.2016 13:12 26,2 C 61 % 1017,5 hPa 0,0 l/m 7,4 km/h (2 Bft) O 99 2 min 0,000 mm 5,7 UV-I 781 W/m 18,1 C 26,0 C 11,3 km/h (2 Bft) 95,74 %
27.08.2016 13:14 26,3 C 63 % 1017,5 hPa 0,0 l/m 10,4 km/h (2 Bft) O-NO 57 2 min 0,000 mm 5,7 UV-I 780 W/m 18,7 C 25,5 C 14,5 km/h (3 Bft) 98,00 %
27.08.2016 13:16 26,4 C 62 % 1017,5 hPa 0,0 l/m 10,2 km/h (2 Bft) O 92 2 min 0,000 mm 5,7 UV-I 782 W/m 18,5 C 25,7 C 14,5 km/h (3 Bft) 97,87 %
27.08.2016 13:18 26,5 C 61 % 1017,6 hPa 0,0 l/m 8,9 km/h (2 Bft) O-NO 70 2 min 0,000 mm 5,7 UV-I 781 W/m 18,4 C 26,0 C 14,5 km/h (3 Bft) 97,87 %
27.08.2016 13:20 26,4 C 62 % 1017,5 hPa 0,0 l/m 7,0 km/h (2 Bft) O-NO 73 2 min 0,000 mm 5,7 UV-I 782 W/m 18,5 C 26,3 C 12,9 km/h (3 Bft) 95,74 %
27.08.2016 13:22 26,3 C 61 % 1017,5 hPa 0,0 l/m 6,2 km/h (2 Bft) NO 44 2 min 0,000 mm 5,7 UV-I 780 W/m 18,2 C 26,3 C 11,3 km/h (2 Bft) 97,87 %
27.08.2016 13:24 26,4 C 62 % 1017,5 hPa 0,0 l/m 7,4 km/h (2 Bft) O-NO 62 2 min 0,000 mm 5,6 UV-I 779 W/m 18,5 C 26,2 C 12,9 km/h (3 Bft) 97,87 %
27.08.2016 13:26 26,5 C 61 % 1017,5 hPa 0,0 l/m 7,4 km/h (2 Bft) O-NO 78 2 min 0,000 mm 5,6 UV-I 777 W/m 18,4 C 26,3 C 11,3 km/h (2 Bft) 93,75 %
27.08.2016 13:28 26,5 C 60 % 1017,5 hPa 0,0 l/m 8,9 km/h (2 Bft) O-NO 64 2 min 0,000 mm 5,6 UV-I 780 W/m 18,1 C 26,0 C 12,9 km/h (3 Bft) 97,30 %
27.08.2016 13:30 26,6 C 61 % 1017,5 hPa 0,0 l/m 9,0 km/h (2 Bft) O-NO 70 2 min 0,000 mm 5,6 UV-I 780 W/m 18,4 C 26,1 C 14,5 km/h (3 Bft) 94,00 %
27.08.2016 13:32 26,7 C 62 % 1017,5 hPa 0,0 l/m 7,2 km/h (2 Bft) SO 126 2 min 0,000 mm 5,6 UV-I 780 W/m 18,8 C 26,5 C 11,3 km/h (2 Bft) 93,75 %
27.08.2016 13:34 26,8 C 60 % 1017,5 hPa 0,0 l/m 10,6 km/h (2 Bft) O-NO 75 2 min 0,000 mm 5,6 UV-I 780 W/m 18,4 C 26,1 C 14,5 km/h (3 Bft) 97,87 %
27.08.2016 13:36 26,9 C 61 % 1017,5 hPa 0,0 l/m 7,8 km/h (2 Bft) NO 44 2 min 0,000 mm 5,6 UV-I 779 W/m 18,7 C 26,6 C 12,9 km/h (3 Bft) 95,74 %
27.08.2016 13:38 26,9 C 60 % 1017,5 hPa 0,0 l/m 6,4 km/h (2 Bft) NO 49 2 min 0,000 mm 5,6 UV-I 779 W/m 18,5 C 26,9 C 14,5 km/h (3 Bft) 97,87 %
27.08.2016 13:40 27,0 C 61 % 1017,5 hPa 0,0 l/m 7,7 km/h (2 Bft) O-NO 65 2 min 0,000 mm 5,6 UV-I 776 W/m 18,8 C 26,8 C 14,5 km/h (3 Bft) 100,00 %
27.08.2016 13:42 27,1 C 58 % 1017,5 hPa 0,0 l/m 8,8 km/h (2 Bft) O-NO 72 2 min 0,000 mm 5,5 UV-I 775 W/m 18,1 C 26,7 C 16,1 km/h (3 Bft) 97,92 %
27.08.2016 13:44 26,9 C 58 % 1017,4 hPa 0,0 l/m 6,8 km/h (2 Bft) O-NO 71 2 min 0,000 mm 5,6 UV-I 778 W/m 17,9 C 26,8 C 11,3 km/h (2 Bft) 100,00 %
27.08.2016 13:46 26,8 C 60 % 1017,5 hPa 0,0 l/m 4,4 km/h (1 Bft) O-NO 71 2 min 0,000 mm 5,5 UV-I 775 W/m 18,4 C 26,8 C 8,0 km/h (2 Bft) 100,00 %
27.08.2016 13:48 26,9 C 58 % 1017,4 hPa 0,0 l/m 8,0 km/h (2 Bft) NO 56 2 min 0,000 mm 5,5 UV-I 773 W/m 17,9 C 26,6 C 14,5 km/h (3 Bft) 100,00 %
27.08.2016 13:50 27,0 C 59 % 1017,4 hPa 0,0 l/m 9,5 km/h (2 Bft) O-NO 60 2 min 0,000 mm 5,5 UV-I 768 W/m 18,3 C 26,4 C 12,9 km/h (3 Bft) 100,00 %
27.08.2016 13:52 27,1 C 61 % 1017,4 hPa 0,0 l/m 6,3 km/h (2 Bft) NO 53 2 min 0,000 mm 5,4 UV-I 767 W/m 18,9 C 27,1 C 9,7 km/h (2 Bft) 100,00 %
27.08.2016 13:54 27,2 C 59 % 1017,4 hPa 0,0 l/m 3,6 km/h (1 Bft) O-NO 61 2 min 0,000 mm 5,4 UV-I 769 W/m 18,5 C 27,2 C 8,0 km/h (2 Bft) 100,00 %
27.08.2016 13:56 27,2 C 59 % 1017,4 hPa 0,0 l/m 7,0 km/h (2 Bft) NO 44 2 min 0,000 mm 5,4 UV-I 766 W/m 18,5 C 27,1 C 12,9 km/h (3 Bft) 100,00 %
27.08.2016 13:58 27,3 C 58 % 1017,4 hPa 0,0 l/m 9,0 km/h (2 Bft) O-NO 58 2 min 0,000 mm 5,4 UV-I 766 W/m 18,3 C 26,9 C 16,1 km/h (3 Bft) 97,92 %
27.08.2016 14:00 27,4 C 56 % 1017,4 hPa 0,0 l/m 6,8 km/h (2 Bft) NO 36 2 min 0,533 mm 5,4 UV-I 766 W/m 17,8 C 27,3 C 9,7 km/h (2 Bft) 97,87 %
27.08.2016 14:02 27,4 C 55 % 1017,4 hPa 0,0 l/m 5,0 km/h (1 Bft) O-NO 78 2 min 0,000 mm 5,3 UV-I 763 W/m 17,5 C 27,4 C 12,9 km/h (3 Bft) 100,00 %
27.08.2016 14:04 27,4 C 57 % 1017,4 hPa 0,0 l/m 5,4 km/h (1 Bft) O-NO 67 2 min 0,000 mm 5,3 UV-I 761 W/m 18,1 C 27,4 C 11,3 km/h (2 Bft) 100,00 %
27.08.2016 14:06 27,4 C 58 % 1017,4 hPa 0,0 l/m 8,2 km/h (2 Bft) O-NO 71 2 min 0,000 mm 5,3 UV-I 760 W/m 18,4 C 27,1 C 12,9 km/h (3 Bft) 100,00 %
27.08.2016 14:08 27,5 C 57 % 1017,4 hPa 0,0 l/m 6,9 km/h (2 Bft) O 84 2 min 0,000 mm 5,3 UV-I 765 W/m 18,2 C 27,4 C 11,3 km/h (2 Bft) 100,00 %
27.08.2016 14:10 27,6 C 57 % 1017,3 hPa 0,0 l/m 7,1 km/h (2 Bft) O-NO 61 2 min 0,000 mm 5,2 UV-I 758 W/m 18,3 C 27,5 C 14,5 km/h (3 Bft) 100,00 %
27.08.2016 14:12 27,7 C 55 % 1017,4 hPa 0,0 l/m 5,2 km/h (1 Bft) O-NO 72 2 min 0,000 mm 5,2 UV-I 756 W/m 17,8 C 27,7 C 8,0 km/h (2 Bft) 94,44 %
27.08.2016 14:14 27,8 C 55 % 1017,3 hPa 0,0 l/m 8,7 km/h (2 Bft) NO 54 2 min 0,000 mm 5,2 UV-I 758 W/m 17,9 C 27,4 C 14,5 km/h (3 Bft) 100,00 %
27.08.2016 14:16 27,9 C 54 % 1017,3 hPa 0,0 l/m 9,0 km/h (2 Bft) O-NO 67 2 min 0,000 mm 5,2 UV-I 755 W/m 17,7 C 27,5 C 14,5 km/h (3 Bft) 97,87 %
27.08.2016 14:18 27,8 C 52 % 1017,3 hPa 0,0 l/m 9,7 km/h (2 Bft) O 88 2 min 0,000 mm 5,2 UV-I 755 W/m 17,0 C 27,3 C 16,1 km/h (3 Bft) 98,00 %
27.08.2016 14:20 27,8 C 53 % 1017,3 hPa 0,0 l/m 8,5 km/h (2 Bft) O-NO 76 2 min 0,000 mm 5,1 UV-I 755 W/m 17,3 C 27,5 C 11,3 km/h (2 Bft) 100,00 %
27.08.2016 14:22 27,9 C 56 % 1017,3 hPa 0,0 l/m 9,2 km/h (2 Bft) O-NO 59 2 min 0,000 mm 5,1 UV-I 754 W/m 18,3 C 27,5 C 14,5 km/h (3 Bft) 97,87 %
27.08.2016 14:24 27,9 C 52 % 1017,2 hPa 0,0 l/m 8,3 km/h (2 Bft) NO 53 2 min 0,000 mm 5,1 UV-I 751 W/m 17,1 C 27,6 C 11,3 km/h (2 Bft) 97,87 %
27.08.2016 14:26 27,9 C 55 % 1017,2 hPa 0,0 l/m 7,0 km/h (2 Bft) O-NO 68 2 min 0,000 mm 5,0 UV-I 750 W/m 18,0 C 27,8 C 12,9 km/h (3 Bft) 100,00 %
27.08.2016 14:28 28,0 C 53 % 1017,2 hPa 0,0 l/m 9,4 km/h (2 Bft) O 82 2 min 0,000 mm 4,9 UV-I 742 W/m 17,5 C 27,6 C 14,5 km/h (3 Bft) 100,00 %
27.08.2016 14:30 28,1 C 55 % 1017,2 hPa 0,0 l/m 8,4 km/h (2 Bft) O-NO 75 2 min 0,000 mm 4,9 UV-I 741 W/m 18,2 C 27,8 C 12,9 km/h (3 Bft) 100,00 %
27.08.2016 14:32 28,1 C 50 % 1017,2 hPa 0,0 l/m 7,0 km/h (2 Bft) NO 41 2 min 0,000 mm 4,9 UV-I 743 W/m 16,7 C 28,0 C 9,7 km/h (2 Bft) 97,87 %
27.08.2016 14:34 28,2 C 48 % 1017,2 hPa 0,0 l/m 7,1 km/h (2 Bft) NO 49 2 min 0,000 mm 4,9 UV-I 741 W/m 16,1 C 28,1 C 11,3 km/h (2 Bft) 100,00 %
27.08.2016 14:36 28,2 C 49 % 1017,2 hPa 0,0 l/m 6,4 km/h (2 Bft) O-NO 57 2 min 0,000 mm 4,9 UV-I 736 W/m 16,5 C 28,2 C 11,3 km/h (2 Bft) 100,00 %
27.08.2016 14:38 28,2 C 49 % 1017,1 hPa 0,0 l/m 5,8 km/h (2 Bft) O-NO 59 2 min 0,000 mm 4,8 UV-I 730 W/m 16,5 C 28,2 C 9,7 km/h (2 Bft) 100,00 %
27.08.2016 14:40 28,2 C 51 % 1017,2 hPa 0,0 l/m 5,8 km/h (2 Bft) O 84 2 min 0,000 mm 4,8 UV-I 730 W/m 17,1 C 28,2 C 9,7 km/h (2 Bft) 100,00 %
27.08.2016 14:42 28,1 C 53 % 1017,1 hPa 0,0 l/m 10,1 km/h (2 Bft) O-NO 57 2 min 0,000 mm 4,7 UV-I 724 W/m 17,6 C 27,6 C 16,1 km/h (3 Bft) 100,00 %
27.08.2016 14:44 28,2 C 48 % 1017,1 hPa 0,0 l/m 7,8 km/h (2 Bft) O-NO 59 2 min 0,000 mm 4,7 UV-I 722 W/m 16,1 C 28,0 C 14,5 km/h (3 Bft) 100,00 %
27.08.2016 14:46 28,3 C 48 % 1017,1 hPa 0,0 l/m 7,9 km/h (2 Bft) O 82 2 min 0,000 mm 4,6 UV-I 721 W/m 16,2 C 28,1 C 14,5 km/h (3 Bft) 100,00 %
27.08.2016 14:48 28,3 C 52 % 1017,0 hPa 0,0 l/m 6,1 km/h (2 Bft) NO 50 2 min 0,000 mm 4,6 UV-I 720 W/m 17,5 C 28,3 C 9,7 km/h (2 Bft) 100,00 %
27.08.2016 14:50 28,4 C 48 % 1017,1 hPa 0,0 l/m 9,5 km/h (2 Bft) N 9 2 min 0,000 mm 4,6 UV-I 719 W/m 16,3 C 28,0 C 14,5 km/h (3 Bft) 100,00 %
27.08.2016 14:52 28,4 C 50 % 1017,0 hPa 0,0 l/m 8,8 km/h (2 Bft) O 96 2 min 0,000 mm 4,5 UV-I 716 W/m 17,0 C 28,1 C 16,1 km/h (3 Bft) 100,00 %
27.08.2016 14:54 28,6 C 49 % 1017,0 hPa 0,0 l/m 7,5 km/h (2 Bft) NO 46 2 min 0,000 mm 4,5 UV-I 713 W/m 16,8 C 28,4 C 14,5 km/h (3 Bft) 97,87 %
27.08.2016 14:56 28,7 C 50 % 1017,0 hPa 0,0 l/m 9,0 km/h (2 Bft) O 79 2 min 0,000 mm 4,4 UV-I 708 W/m 17,2 C 28,4 C 16,1 km/h (3 Bft) 100,00 %
27.08.2016 14:58 28,6 C 47 % 1016,9 hPa 0,0 l/m 9,0 km/h (2 Bft) NO 52 2 min 0,000 mm 4,4 UV-I 705 W/m 16,2 C 28,3 C 14,5 km/h (3 Bft) 97,87 %
27.08.2016 15:00 28,7 C 50 % 1017,0 hPa 0,0 l/m 7,3 km/h (2 Bft) O-NO 60 2 min 0,533 mm 4,4 UV-I 703 W/m 17,2 C 28,6 C 9,7 km/h (2 Bft) 98,00 %
27.08.2016 15:02 28,6 C 48 % 1016,9 hPa 0,0 l/m 6,7 km/h (2 Bft) NO 44 2 min 0,000 mm 4,3 UV-I 702 W/m 16,5 C 28,6 C 11,3 km/h (2 Bft) 96,00 %
27.08.2016 15:04 28,6 C 51 % 1016,9 hPa 0,0 l/m 8,0 km/h (2 Bft) O-SO 121 2 min 0,000 mm 4,3 UV-I 697 W/m 17,4 C 28,4 C 14,5 km/h (3 Bft) 95,74 %
27.08.2016 15:06 28,5 C 48 % 1016,9 hPa 0,0 l/m 6,5 km/h (2 Bft) NO 49 2 min 0,000 mm 4,3 UV-I 699 W/m 16,4 C 28,5 C 14,5 km/h (3 Bft) 97,87 %
27.08.2016 15:08 28,6 C 43 % 1016,9 hPa 0,0 l/m 8,9 km/h (2 Bft) O-NO 60 2 min 0,000 mm 4,2 UV-I 698 W/m 14,8 C 28,3 C 14,5 km/h (3 Bft) 97,87 %
27.08.2016 15:10 28,7 C 45 % 1016,9 hPa 0,0 l/m 10,2 km/h (2 Bft) NO 36 2 min 0,000 mm 4,2 UV-I 694 W/m 15,6 C 28,2 C 16,1 km/h (3 Bft) 97,87 %
27.08.2016 15:12 28,7 C 43 % 1016,9 hPa 0,0 l/m 11,8 km/h (2 Bft) NO 51 2 min 0,000 mm 4,1 UV-I 687 W/m 14,9 C 28,1 C 16,1 km/h (3 Bft) 93,62 %
27.08.2016 15:14 28,7 C 39 % 1016,9 hPa 0,0 l/m 7,8 km/h (2 Bft) N-NO 28 2 min 0,000 mm 4,1 UV-I 689 W/m 13,4 C 28,5 C 12,9 km/h (3 Bft) 97,87 %
27.08.2016 15:16 28,8 C 43 % 1016,8 hPa 0,0 l/m 11,3 km/h (2 Bft) NO 44 2 min 0,000 mm 4,0 UV-I 683 W/m 15,0 C 28,2 C 19,3 km/h (3 Bft) 97,37 %
27.08.2016 15:18 28,8 C 43 % 1016,8 hPa 0,0 l/m 8,9 km/h (2 Bft) NO 42 2 min 0,000 mm 4,0 UV-I 680 W/m 15,0 C 28,5 C 12,9 km/h (3 Bft) 98,00 %
27.08.2016 15:20 28,8 C 44 % 1016,8 hPa 0,0 l/m 6,9 km/h (2 Bft) O-NO 78 2 min 0,000 mm 4,0 UV-I 677 W/m 15,3 C 28,7 C 11,3 km/h (2 Bft) 97,92 %
27.08.2016 15:22 28,8 C 47 % 1016,8 hPa 0,0 l/m 9,0 km/h (2 Bft) O-NO 67 2 min 0,000 mm 3,9 UV-I 672 W/m 16,3 C 28,5 C 17,7 km/h (3 Bft) 97,87 %
27.08.2016 15:24 28,8 C 48 % 1016,8 hPa 0,0 l/m 6,6 km/h (2 Bft) O-NO 69 2 min 0,000 mm 3,9 UV-I 668 W/m 16,7 C 28,8 C 12,9 km/h (3 Bft) 95,74 %
27.08.2016 15:26 28,8 C 49 % 1016,7 hPa 0,0 l/m 5,8 km/h (2 Bft) O-NO 74 2 min 0,000 mm 3,8 UV-I 663 W/m 17,0 C 28,8 C 14,5 km/h (3 Bft) 97,87 %
27.08.2016 15:28 28,9 C 44 % 1016,7 hPa 0,0 l/m 8,9 km/h (2 Bft) NO 53 2 min 0,000 mm 3,8 UV-I 660 W/m 15,4 C 28,6 C 12,9 km/h (3 Bft) 95,74 %
27.08.2016 15:30 29,0 C 49 % 1016,6 hPa 0,0 l/m 10,1 km/h (2 Bft) NO 34 2 min 0,000 mm 3,7 UV-I 657 W/m 17,2 C 28,6 C 17,7 km/h (3 Bft) 91,49 %
27.08.2016 15:32 29,1 C 45 % 1016,6 hPa 0,0 l/m 8,0 km/h (2 Bft) N-NO 19 2 min 0,000 mm 3,7 UV-I 651 W/m 15,9 C 28,9 C 14,5 km/h (3 Bft) 97,87 %
27.08.2016 15:34 29,0 C 46 % 1016,6 hPa 0,0 l/m 10,3 km/h (2 Bft) N-NO 31 2 min 0,000 mm 3,6 UV-I 647 W/m 16,2 C 28,6 C 16,1 km/h (3 Bft) 94,00 %
27.08.2016 15:36 29,2 C 44 % 1016,6 hPa 0,0 l/m 8,2 km/h (2 Bft) O 80 2 min 0,000 mm 3,6 UV-I 641 W/m 15,7 C 29,0 C 14,5 km/h (3 Bft) 97,37 %
27.08.2016 15:38 29,2 C 46 % 1016,5 hPa 0,0 l/m 6,7 km/h (2 Bft) O-NO 66 2 min 0,000 mm 3,5 UV-I 636 W/m 16,4 C 29,2 C 16,1 km/h (3 Bft) 100,00 %
27.08.2016 15:40 29,2 C 46 % 1016,5 hPa 0,0 l/m 9,4 km/h (2 Bft) NO 50 2 min 0,000 mm 3,5 UV-I 635 W/m 16,4 C 28,9 C 16,1 km/h (3 Bft) 100,00 %
27.08.2016 15:42 29,1 C 46 % 1016,6 hPa 0,0 l/m 9,5 km/h (2 Bft) O-NO 78 2 min 0,000 mm 3,4 UV-I 630 W/m 16,3 C 28,7 C 14,5 km/h (3 Bft) 97,87 %
27.08.2016 15:44 29,2 C 46 % 1016,5 hPa 0,0 l/m 9,4 km/h (2 Bft) NO 39 2 min 0,000 mm 3,3 UV-I 627 W/m 16,4 C 28,9 C 17,7 km/h (3 Bft) 100,00 %
27.08.2016 15:46 29,2 C 45 % 1016,5 hPa 0,0 l/m 10,2 km/h (2 Bft) NO 56 2 min 0,000 mm 3,3 UV-I 626 W/m 16,0 C 28,8 C 14,5 km/h (3 Bft) 97,87 %
27.08.2016 15:48 29,1 C 47 % 1016,5 hPa 0,0 l/m 9,2 km/h (2 Bft) O-NO 73 2 min 0,000 mm 3,3 UV-I 622 W/m 16,6 C 28,8 C 14,5 km/h (3 Bft) 100,00 %
27.08.2016 15:50 29,1 C 47 % 1016,5 hPa 0,0 l/m 7,7 km/h (2 Bft) NO 45 2 min 0,000 mm 3,2 UV-I 617 W/m 16,6 C 28,9 C 12,9 km/h (3 Bft) 100,00 %
27.08.2016 15:52 29,1 C 46 % 1016,4 hPa 0,0 l/m 8,3 km/h (2 Bft) O-NO 64 2 min 0,000 mm 3,2 UV-I 613 W/m 16,3 C 28,9 C 16,1 km/h (3 Bft) 100,00 %
27.08.2016 15:54 29,1 C 44 % 1016,5 hPa 0,0 l/m 11,2 km/h (2 Bft) N-NO 30 2 min 0,000 mm 3,1 UV-I 605 W/m 15,6 C 28,6 C 16,1 km/h (3 Bft) 100,00 %
27.08.2016 15:56 29,2 C 46 % 1016,4 hPa 0,0 l/m 9,5 km/h (2 Bft) O-NO 66 2 min 0,000 mm 3,1 UV-I 601 W/m 16,4 C 28,9 C 14,5 km/h (3 Bft) 100,00 %
27.08.2016 15:58 29,2 C 47 % 1016,3 hPa 0,0 l/m 6,8 km/h (2 Bft) N-NO 20 2 min 0,000 mm 3,0 UV-I 595 W/m 16,7 C 29,2 C 12,9 km/h (3 Bft) 100,00 %
27.08.2016 16:00 29,1 C 48 % 1016,4 hPa 0,0 l/m 7,3 km/h (2 Bft) O 84 2 min 0,000 mm 3,0 UV-I 595 W/m 16,9 C 29,0 C 12,9 km/h (3 Bft) 100,00 %
27.08.2016 16:02 29,1 C 49 % 1016,4 hPa 0,0 l/m 10,2 km/h (2 Bft) O-NO 59 2 min 0,508 mm 2,9 UV-I 589 W/m 17,3 C 28,7 C 12,9 km/h (3 Bft) 98,00 %
27.08.2016 16:04 29,1 C 49 % 1016,3 hPa 0,0 l/m 7,2 km/h (2 Bft) NO 44 2 min 0,000 mm 2,9 UV-I 584 W/m 17,3 C 29,0 C 11,3 km/h (2 Bft) 100,00 %
27.08.2016 16:06 29,2 C 45 % 1016,3 hPa 0,0 l/m 10,3 km/h (2 Bft) O-NO 76 2 min 0,000 mm 2,9 UV-I 580 W/m 16,0 C 28,8 C 16,1 km/h (3 Bft) 97,87 %
27.08.2016 16:08 29,3 C 44 % 1016,3 hPa 0,0 l/m 8,5 km/h (2 Bft) O-NO 57 2 min 0,000 mm 2,8 UV-I 574 W/m 15,8 C 29,1 C 16,1 km/h (3 Bft) 100,00 %
27.08.2016 16:10 29,3 C 44 % 1016,3 hPa 0,0 l/m 10,1 km/h (2 Bft) O-NO 67 2 min 0,000 mm 2,8 UV-I 571 W/m 15,8 C 28,9 C 14,5 km/h (3 Bft) 100,00 %
27.08.2016 16:12 29,2 C 38 % 1016,3 hPa 0,0 l/m 12,6 km/h (3 Bft) O-NO 65 2 min 0,000 mm 2,7 UV-I 569 W/m 13,4 C 28,6 C 20,9 km/h (4 Bft) 100,00 %
27.08.2016 16:14 29,2 C 40 % 1016,4 hPa 0,0 l/m 11,8 km/h (2 Bft) NO 51 2 min 0,000 mm 2,7 UV-I 564 W/m 14,2 C 28,6 C 19,3 km/h (3 Bft) 100,00 %
27.08.2016 16:16 29,2 C 42 % 1016,3 hPa 0,0 l/m 10,1 km/h (2 Bft) NO 53 2 min 0,000 mm 2,6 UV-I 560 W/m 14,9 C 28,8 C 16,1 km/h (3 Bft) 100,00 %
27.08.2016 16:18 29,2 C 44 % 1016,2 hPa 0,0 l/m 10,9 km/h (2 Bft) O-NO 74 2 min 0,000 mm 2,6 UV-I 554 W/m 15,7 C 28,7 C 20,9 km/h (4 Bft) 97,14 %
27.08.2016 16:20 29,1 C 45 % 1016,3 hPa 0,0 l/m 12,0 km/h (2 Bft) NO 55 2 min 0,000 mm 2,5 UV-I 552 W/m 15,9 C 28,5 C 17,7 km/h (3 Bft) 97,87 %
27.08.2016 16:22 29,1 C 44 % 1016,3 hPa 0,0 l/m 13,0 km/h (3 Bft) NO 51 2 min 0,000 mm 2,5 UV-I 546 W/m 15,6 C 28,4 C 17,7 km/h (3 Bft) 100,00 %
27.08.2016 16:24 29,2 C 45 % 1016,2 hPa 0,0 l/m 11,2 km/h (2 Bft) O-NO 78 2 min 0,000 mm 2,4 UV-I 538 W/m 16,0 C 28,7 C 16,1 km/h (3 Bft) 97,87 %
27.08.2016 16:26 29,2 C 44 % 1016,2 hPa 0,0 l/m 9,5 km/h (2 Bft) NO 46 2 min 0,000 mm 2,4 UV-I 534 W/m 15,7 C 28,9 C 16,1 km/h (3 Bft) 100,00 %
27.08.2016 16:28 29,2 C 44 % 1016,2 hPa 0,0 l/m 9,0 km/h (2 Bft) O 86 2 min 0,000 mm 2,3 UV-I 529 W/m 15,7 C 28,9 C 14,5 km/h (3 Bft) 97,87 %
27.08.2016 16:30 29,2 C 45 % 1016,2 hPa 0,0 l/m 9,1 km/h (2 Bft) O 85 2 min 0,000 mm 2,3 UV-I 523 W/m 16,0 C 28,9 C 14,5 km/h (3 Bft) 97,87 %
27.08.2016 16:32 29,3 C 44 % 1016,2 hPa 0,0 l/m 8,7 km/h (2 Bft) O 96 2 min 0,000 mm 2,2 UV-I 518 W/m 15,8 C 29,0 C 12,9 km/h (3 Bft) 100,00 %
27.08.2016 16:34 29,2 C 45 % 1016,1 hPa 0,0 l/m 9,9 km/h (2 Bft) O 84 2 min 0,000 mm 2,2 UV-I 512 W/m 16,0 C 28,8 C 14,5 km/h (3 Bft) 100,00 %
27.08.2016 16:36 29,3 C 45 % 1016,2 hPa 0,0 l/m 7,8 km/h (2 Bft) NO 54 2 min 0,000 mm 2,1 UV-I 506 W/m 16,1 C 29,1 C 12,9 km/h (3 Bft) 100,00 %
27.08.2016 16:38 29,3 C 46 % 1016,1 hPa 0,0 l/m 10,6 km/h (2 Bft) O-NO 69 2 min 0,000 mm 2,1 UV-I 502 W/m 16,5 C 28,9 C 16,1 km/h (3 Bft) 97,44 %
27.08.2016 16:40 29,3 C 45 % 1016,1 hPa 0,0 l/m 9,8 km/h (2 Bft) O-NO 59 2 min 0,000 mm 2,1 UV-I 495 W/m 16,1 C 28,9 C 14,5 km/h (3 Bft) 100,00 %
27.08.2016 16:42 29,2 C 47 % 1016,1 hPa 0,0 l/m 6,3 km/h (2 Bft) O 86 2 min 0,000 mm 2,0 UV-I 491 W/m 16,7 C 29,2 C 9,7 km/h (2 Bft) 96,00 %
27.08.2016 16:44 29,2 C 47 % 1016,1 hPa 0,0 l/m 6,6 km/h (2 Bft) O-NO 60 2 min 0,000 mm 2,0 UV-I 484 W/m 16,7 C 29,2 C 11,3 km/h (2 Bft) 100,00 %
27.08.2016 16:46 29,2 C 49 % 1016,0 hPa 0,0 l/m 11,1 km/h (2 Bft) O-NO 78 2 min 0,000 mm 1,9 UV-I 478 W/m 17,4 C 28,7 C 14,5 km/h (3 Bft) 97,56 %
27.08.2016 16:48 29,2 C 46 % 1016,0 hPa 0,0 l/m 12,7 km/h (3 Bft) NO 53 2 min 0,000 mm 1,9 UV-I 472 W/m 16,4 C 28,6 C 17,7 km/h (3 Bft) 100,00 %
27.08.2016 16:50 29,2 C 45 % 1016,0 hPa 0,0 l/m 13,6 km/h (3 Bft) NO 52 2 min 0,000 mm 1,8 UV-I 465 W/m 16,0 C 28,5 C 17,7 km/h (3 Bft) 100,00 %
27.08.2016 16:52 29,2 C 45 % 1016,0 hPa 0,0 l/m 10,0 km/h (2 Bft) N-NO 17 2 min 0,000 mm 1,8 UV-I 462 W/m 16,0 C 28,8 C 14,5 km/h (3 Bft) 100,00 %
27.08.2016 16:54 29,2 C 44 % 1016,0 hPa 0,0 l/m 8,4 km/h (2 Bft) O-NO 77 2 min 0,000 mm 1,8 UV-I 456 W/m 15,7 C 29,0 C 14,5 km/h (3 Bft) 95,74 %
27.08.2016 16:56 29,2 C 45 % 1016,0 hPa 0,0 l/m 9,8 km/h (2 Bft) O-NO 63 2 min 0,000 mm 1,7 UV-I 455 W/m 16,0 C 28,8 C 16,1 km/h (3 Bft) 97,96 %
27.08.2016 16:58 29,3 C 45 % 1015,9 hPa 0,0 l/m 7,5 km/h (2 Bft) O-NO 60 2 min 0,000 mm 1,7 UV-I 450 W/m 16,1 C 29,2 C 17,7 km/h (3 Bft) 100,00 %
27.08.2016 17:00 29,3 C 45 % 1016,0 hPa 0,0 l/m 9,5 km/h (2 Bft) O-NO 61 2 min 0,000 mm 1,6 UV-I 444 W/m 16,1 C 29,0 C 16,1 km/h (3 Bft) 97,87 %
27.08.2016 17:02 29,3 C 44 % 1015,9 hPa 0,0 l/m 10,7 km/h (2 Bft) O-NO 64 2 min 0,432 mm 1,6 UV-I 437 W/m 15,8 C 28,8 C 16,1 km/h (3 Bft) 97,50 %
27.08.2016 17:04 29,3 C 43 % 1016,0 hPa 0,0 l/m 9,9 km/h (2 Bft) O-NO 64 2 min 0,000 mm 1,6 UV-I 431 W/m 15,4 C 28,9 C 16,1 km/h (3 Bft) 97,96 %
27.08.2016 17:06 29,3 C 43 % 1015,9 hPa 0,0 l/m 9,5 km/h (2 Bft) O-NO 70 2 min 0,000 mm 1,5 UV-I 425 W/m 15,4 C 29,0 C 14,5 km/h (3 Bft) 97,87 %
27.08.2016 17:08 29,3 C 43 % 1016,0 hPa 0,0 l/m 11,0 km/h (2 Bft) NO 55 2 min 0,000 mm 1,5 UV-I 422 W/m 15,4 C 28,8 C 16,1 km/h (3 Bft) 96,00 %
27.08.2016 17:10 29,3 C 43 % 1016,0 hPa 0,0 l/m 9,5 km/h (2 Bft) NO 48 2 min 0,000 mm 1,4 UV-I 416 W/m 15,4 C 29,0 C 14,5 km/h (3 Bft) 95,74 %
27.08.2016 17:12 29,2 C 45 % 1015,9 hPa 0,0 l/m 11,3 km/h (2 Bft) O-NO 59 2 min 0,000 mm 1,4 UV-I 411 W/m 16,0 C 28,7 C 16,1 km/h (3 Bft) 96,23 %
27.08.2016 17:14 29,2 C 44 % 1015,9 hPa 0,0 l/m 10,6 km/h (2 Bft) O 80 2 min 0,000 mm 1,4 UV-I 405 W/m 15,7 C 28,7 C 14,5 km/h (3 Bft) 100,00 %
27.08.2016 17:16 29,2 C 45 % 1015,9 hPa 0,0 l/m 9,7 km/h (2 Bft) O-NO 58 2 min 0,000 mm 1,3 UV-I 399 W/m 16,0 C 28,8 C 14,5 km/h (3 Bft) 93,62 %
27.08.2016 17:18 29,2 C 45 % 1015,9 hPa 0,0 l/m 12,4 km/h (3 Bft) O-NO 77 2 min 0,000 mm 1,3 UV-I 394 W/m 16,0 C 28,6 C 17,7 km/h (3 Bft) 95,74 %
27.08.2016 17:20 29,1 C 47 % 1015,9 hPa 0,0 l/m 10,1 km/h (2 Bft) O-NO 63 2 min 0,000 mm 1,3 UV-I 386 W/m 16,6 C 28,7 C 14,5 km/h (3 Bft) 97,87 %
27.08.2016 17:22 29,1 C 47 % 1015,9 hPa 0,0 l/m 7,7 km/h (2 Bft) O 88 2 min 0,000 mm 1,2 UV-I 382 W/m 16,6 C 28,9 C 14,5 km/h (3 Bft) 97,87 %
27.08.2016 17:24 29,1 C 44 % 1015,9 hPa 0,0 l/m 10,2 km/h (2 Bft) O 84 2 min 0,000 mm 1,2 UV-I 374 W/m 15,6 C 28,7 C 17,7 km/h (3 Bft) 97,87 %
27.08.2016 17:26 29,2 C 43 % 1015,9 hPa 0,0 l/m 11,4 km/h (2 Bft) NO 51 2 min 0,000 mm 1,2 UV-I 368 W/m 15,3 C 28,7 C 16,1 km/h (3 Bft) 95,74 %
27.08.2016 17:28 29,2 C 43 % 1015,9 hPa 0,0 l/m 13,8 km/h (3 Bft) NO 47 2 min 0,000 mm 1,1 UV-I 363 W/m 15,3 C 28,5 C 17,7 km/h (3 Bft) 97,87 %
27.08.2016 17:30 29,1 C 43 % 1015,9 hPa 0,0 l/m 12,4 km/h (3 Bft) NO 54 2 min 0,000 mm 1,1 UV-I 359 W/m 15,2 C 28,5 C 16,1 km/h (3 Bft) 98,00 %
27.08.2016 17:32 29,0 C 44 % 1015,9 hPa 0,0 l/m 9,7 km/h (2 Bft) O-NO 70 2 min 0,000 mm 1,1 UV-I 353 W/m 15,5 C 28,6 C 14,5 km/h (3 Bft) 95,83 %
27.08.2016 17:34 28,9 C 43 % 1015,9 hPa 0,0 l/m 12,4 km/h (3 Bft) O-NO 73 2 min 0,000 mm 1,0 UV-I 348 W/m 15,0 C 28,2 C 16,1 km/h (3 Bft) 100,00 %
27.08.2016 17:36 29,0 C 46 % 1015,9 hPa 0,0 l/m 9,9 km/h (2 Bft) O-NO 59 2 min 0,000 mm 1,0 UV-I 342 W/m 16,2 C 28,6 C 16,1 km/h (3 Bft) 97,87 %
27.08.2016 17:38 28,9 C 47 % 1015,8 hPa 0,0 l/m 8,9 km/h (2 Bft) O-NO 65 2 min 0,000 mm 1,0 UV-I 336 W/m 16,4 C 28,6 C 14,5 km/h (3 Bft) 100,00 %
27.08.2016 17:40 28,9 C 47 % 1015,8 hPa 0,0 l/m 13,3 km/h (3 Bft) NO 37 2 min 0,000 mm 0,9 UV-I 329 W/m 16,4 C 28,2 C 17,7 km/h (3 Bft) 97,87 %
27.08.2016 17:42 28,9 C 44 % 1015,8 hPa 0,0 l/m 15,0 km/h (3 Bft) O-NO 57 2 min 0,000 mm 0,9 UV-I 323 W/m 15,4 C 28,0 C 22,5 km/h (4 Bft) 100,00 %
27.08.2016 17:44 28,8 C 45 % 1015,8 hPa 0,0 l/m 9,7 km/h (2 Bft) O-NO 60 2 min 0,000 mm 0,9 UV-I 317 W/m 15,7 C 28,4 C 17,7 km/h (3 Bft) 97,87 %
27.08.2016 17:46 28,8 C 46 % 1015,8 hPa 0,0 l/m 8,9 km/h (2 Bft) O-NO 62 2 min 0,000 mm 0,8 UV-I 310 W/m 16,0 C 28,5 C 12,9 km/h (3 Bft) 95,74 %
27.08.2016 17:48 28,8 C 48 % 1015,8 hPa 0,0 l/m 10,4 km/h (2 Bft) O-NO 65 2 min 0,000 mm 0,8 UV-I 305 W/m 16,7 C 28,3 C 16,1 km/h (3 Bft) 98,00 %
27.08.2016 17:50 28,7 C 47 % 1015,8 hPa 0,0 l/m 11,2 km/h (2 Bft) O-NO 78 2 min 0,000 mm 0,8 UV-I 300 W/m 16,3 C 28,1 C 17,7 km/h (3 Bft) 97,37 %
27.08.2016 17:52 28,7 C 49 % 1015,7 hPa 0,0 l/m 7,7 km/h (2 Bft) O-NO 65 2 min 0,000 mm 0,7 UV-I 294 W/m 16,9 C 28,5 C 12,9 km/h (3 Bft) 100,00 %
27.08.2016 17:54 28,7 C 51 % 1015,7 hPa 0,0 l/m 10,2 km/h (2 Bft) O-NO 78 2 min 0,000 mm 0,7 UV-I 287 W/m 17,5 C 28,2 C 14,5 km/h (3 Bft) 100,00 %
27.08.2016 17:56 28,7 C 51 % 1015,6 hPa 0,0 l/m 10,6 km/h (2 Bft) NO 52 2 min 0,000 mm 0,7 UV-I 280 W/m 17,5 C 28,2 C 16,1 km/h (3 Bft) 97,87 %
27.08.2016 17:58 28,6 C 50 % 1015,7 hPa 0,0 l/m 13,0 km/h (3 Bft) NO 42 2 min 0,000 mm 0,7 UV-I 272 W/m 17,1 C 27,8 C 17,7 km/h (3 Bft) 100,00 %
27.08.2016 18:00 28,6 C 49 % 1015,6 hPa 0,0 l/m 16,5 km/h (3 Bft) NO 56 2 min 0,000 mm 0,6 UV-I 267 W/m 16,8 C 27,6 C 22,5 km/h (4 Bft) 100,00 %
27.08.2016 18:02 28,5 C 48 % 1015,6 hPa 0,0 l/m 15,5 km/h (3 Bft) O-NO 63 2 min 0,330 mm 0,6 UV-I 262 W/m 16,4 C 27,5 C 20,9 km/h (4 Bft) 100,00 %
27.08.2016 18:04 28,4 C 48 % 1015,6 hPa 0,0 l/m 13,7 km/h (3 Bft) O-NO 63 2 min 0,000 mm 0,6 UV-I 256 W/m 16,3 C 27,5 C 19,3 km/h (3 Bft) 95,74 %
27.08.2016 18:06 28,4 C 49 % 1015,6 hPa 0,0 l/m 13,2 km/h (3 Bft) NO 52 2 min 0,000 mm 0,6 UV-I 250 W/m 16,6 C 27,6 C 17,7 km/h (3 Bft) 100,00 %
27.08.2016 18:08 28,3 C 50 % 1015,6 hPa 0,0 l/m 13,0 km/h (3 Bft) NO 39 2 min 0,000 mm 0,5 UV-I 244 W/m 16,9 C 27,5 C 17,7 km/h (3 Bft) 97,87 %
27.08.2016 18:10 28,3 C 50 % 1015,6 hPa 0,0 l/m 13,8 km/h (3 Bft) NO 40 2 min 0,000 mm 0,5 UV-I 236 W/m 16,9 C 27,4 C 20,9 km/h (4 Bft) 100,00 %
27.08.2016 18:12 28,2 C 51 % 1015,6 hPa 0,0 l/m 14,1 km/h (3 Bft) O-NO 66 2 min 0,000 mm 0,5 UV-I 229 W/m 17,1 C 27,3 C 20,9 km/h (4 Bft) 100,00 %
27.08.2016 18:14 28,2 C 52 % 1015,6 hPa 0,0 l/m 11,1 km/h (2 Bft) O-NO 60 2 min 0,000 mm 0,5 UV-I 222 W/m 17,4 C 27,6 C 16,1 km/h (3 Bft) 100,00 %
27.08.2016 18:16 28,2 C 52 % 1015,6 hPa 0,0 l/m 11,9 km/h (2 Bft) O-NO 63 2 min 0,000 mm 0,4 UV-I 214 W/m 17,4 C 27,5 C 17,7 km/h (3 Bft) 100,00 %
27.08.2016 18:18 28,1 C 53 % 1015,5 hPa 0,0 l/m 12,2 km/h (2 Bft) O-NO 63 2 min 0,000 mm 0,0 UV-I 208 W/m 17,6 C 27,3 C 19,3 km/h (3 Bft) 100,00 %
27.08.2016 18:20 28,1 C 53 % 1015,6 hPa 0,0 l/m 11,6 km/h (2 Bft) O-NO 68 2 min 0,000 mm 0,0 UV-I 201 W/m 17,6 C 27,4 C 17,7 km/h (3 Bft) 100,00 %
27.08.2016 18:22 28,1 C 53 % 1015,5 hPa 0,0 l/m 11,7 km/h (2 Bft) O-NO 69 2 min 0,000 mm 0,0 UV-I 194 W/m 17,6 C 27,4 C 16,1 km/h (3 Bft) 97,87 %
27.08.2016 18:24 28,0 C 53 % 1015,5 hPa 0,0 l/m 11,9 km/h (2 Bft) NO 44 2 min 0,000 mm 0,0 UV-I 186 W/m 17,5 C 27,3 C 17,7 km/h (3 Bft) 100,00 %
27.08.2016 18:26 27,9 C 54 % 1015,5 hPa 0,0 l/m 9,2 km/h (2 Bft) NO 42 2 min 0,000 mm 0,0 UV-I 179 W/m 17,7 C 27,5 C 14,5 km/h (3 Bft) 98,11 %
27.08.2016 18:28 27,9 C 56 % 1015,5 hPa 0,0 l/m 8,4 km/h (2 Bft) O-NO 76 2 min 0,000 mm 0,0 UV-I 172 W/m 18,3 C 27,6 C 12,9 km/h (3 Bft) 97,87 %
27.08.2016 18:30 27,8 C 54 % 1015,4 hPa 0,0 l/m 11,2 km/h (2 Bft) NO 55 2 min 0,000 mm 0,0 UV-I 165 W/m 17,6 C 27,1 C 16,1 km/h (3 Bft) 97,87 %
27.08.2016 18:32 27,8 C 54 % 1015,5 hPa 0,0 l/m 12,9 km/h (3 Bft) NO 55 2 min 0,000 mm 0,0 UV-I 159 W/m 17,6 C 26,9 C 17,7 km/h (3 Bft) 100,00 %
27.08.2016 18:34 27,7 C 54 % 1015,5 hPa 0,0 l/m 14,0 km/h (3 Bft) O-NO 63 2 min 0,000 mm 0,0 UV-I 153 W/m 17,5 C 26,7 C 19,3 km/h (3 Bft) 97,87 %
27.08.2016 18:36 27,7 C 54 % 1015,4 hPa 0,0 l/m 11,6 km/h (2 Bft) O-NO 61 2 min 0,000 mm 0,0 UV-I 146 W/m 17,5 C 26,9 C 17,7 km/h (3 Bft) 100,00 %
27.08.2016 18:38 27,6 C 53 % 1015,5 hPa 0,0 l/m 15,2 km/h (3 Bft) O-NO 65 2 min 0,000 mm 0,0 UV-I 140 W/m 17,1 C 26,4 C 20,9 km/h (4 Bft) 100,00 %
27.08.2016 18:40 27,6 C 52 % 1015,4 hPa 0,0 l/m 10,9 km/h (2 Bft) O-NO 57 2 min 0,000 mm 0,0 UV-I 132 W/m 16,8 C 26,9 C 16,1 km/h (3 Bft) 100,00 %
27.08.2016 18:42 27,4 C 53 % 1015,5 hPa 0,0 l/m 12,2 km/h (2 Bft) O-NO 63 2 min 0,000 mm 0,0 UV-I 126 W/m 17,0 C 26,5 C 16,1 km/h (3 Bft) 98,11 %
27.08.2016 18:44 27,4 C 54 % 1015,4 hPa 0,0 l/m 9,9 km/h (2 Bft) NO 55 2 min 0,000 mm 0,0 UV-I 121 W/m 17,3 C 26,8 C 14,5 km/h (3 Bft) 97,87 %
27.08.2016 18:46 27,3 C 54 % 1015,4 hPa 0,0 l/m 8,1 km/h (2 Bft) O-NO 64 2 min 0,000 mm 0,0 UV-I 115 W/m 17,2 C 27,0 C 12,9 km/h (3 Bft) 100,00 %
27.08.2016 18:48 27,3 C 55 % 1015,4 hPa 0,0 l/m 7,7 km/h (2 Bft) O 83 2 min 0,000 mm 0,0 UV-I 109 W/m 17,4 C 27,1 C 12,9 km/h (3 Bft) 100,00 %
27.08.2016 18:50 27,2 C 55 % 1015,4 hPa 0,0 l/m 7,4 km/h (2 Bft) O 81 2 min 0,000 mm 0,0 UV-I 103 W/m 17,4 C 27,0 C 14,5 km/h (3 Bft) 97,87 %
27.08.2016 18:52 27,2 C 55 % 1015,4 hPa 0,0 l/m 8,5 km/h (2 Bft) O-NO 73 2 min 0,000 mm 0,0 UV-I 97 W/m 17,4 C 26,8 C 14,5 km/h (3 Bft) 100,00 %
27.08.2016 18:54 27,1 C 56 % 1015,4 hPa 0,0 l/m 7,9 km/h (2 Bft) NO 52 2 min 0,000 mm 0,0 UV-I 91 W/m 17,5 C 26,8 C 12,9 km/h (3 Bft) 100,00 %
27.08.2016 18:56 27,0 C 56 % 1015,4 hPa 0,0 l/m 8,5 km/h (2 Bft) NO 50 2 min 0,000 mm 0,0 UV-I 86 W/m 17,5 C 26,6 C 14,5 km/h (3 Bft) 97,87 %
27.08.2016 18:58 26,9 C 57 % 1015,4 hPa 0,0 l/m 8,0 km/h (2 Bft) O-NO 61 2 min 0,000 mm 0,0 UV-I 80 W/m 17,6 C 26,6 C 11,3 km/h (2 Bft) 95,74 %
27.08.2016 19:00 26,8 C 57 % 1015,4 hPa 0,0 l/m 6,7 km/h (2 Bft) O-NO 60 0 min 0,000 mm 0,0 UV-I 75 W/m 17,6 C 26,7 C 11,3 km/h (2 Bft) 93,62 %
27.08.2016 19:02 26,7 C 58 % 1015,4 hPa 0,0 l/m 7,6 km/h (2 Bft) O-NO 73 0 min 0,204 mm 0,0 UV-I 70 W/m 17,7 C 26,5 C 11,3 km/h (2 Bft) 97,87 %
27.08.2016 19:04 26,7 C 59 % 1015,4 hPa 0,0 l/m 7,5 km/h (2 Bft) NO 50 0 min 0,000 mm 0,0 UV-I 65 W/m 18,0 C 26,5 C 11,3 km/h (2 Bft) 97,87 %
27.08.2016 19:06 26,6 C 60 % 1015,4 hPa 0,0 l/m 6,1 km/h (2 Bft) O-NO 67 0 min 0,000 mm 0,0 UV-I 60 W/m 18,2 C 26,6 C 8,0 km/h (2 Bft) 98,00 %
27.08.2016 19:08 26,4 C 60 % 1015,4 hPa 0,0 l/m 5,7 km/h (1 Bft) O-NO 67 0 min 0,000 mm 0,0 UV-I 55 W/m 18,0 C 26,4 C 8,0 km/h (2 Bft) 95,74 %
27.08.2016 19:10 26,3 C 60 % 1015,4 hPa 0,0 l/m 4,6 km/h (1 Bft) O-NO 74 0 min 0,000 mm 0,0 UV-I 51 W/m 17,9 C 26,3 C 8,0 km/h (2 Bft) 97,87 %
27.08.2016 19:12 26,2 C 61 % 1015,4 hPa 0,0 l/m 3,6 km/h (1 Bft) O-NO 73 0 min 0,000 mm 0,0 UV-I 47 W/m 18,1 C 26,2 C 6,4 km/h (2 Bft) 95,74 %
27.08.2016 19:14 26,1 C 61 % 1015,4 hPa 0,0 l/m 3,7 km/h (1 Bft) O-NO 73 0 min 0,000 mm 0,0 UV-I 42 W/m 18,0 C 26,1 C 4,8 km/h (1 Bft) 96,00 %
27.08.2016 19:16 26,1 C 61 % 1015,4 hPa 0,0 l/m 2,9 km/h (1 Bft) O-NO 73 0 min 0,000 mm 0,0 UV-I 39 W/m 18,0 C 26,1 C 4,8 km/h (1 Bft) 95,74 %
27.08.2016 19:18 25,9 C 62 % 1015,4 hPa 0,0 l/m 2,0 km/h (1 Bft) O-NO 73 0 min 0,000 mm 0,0 UV-I 34 W/m 18,0 C 25,9 C 4,8 km/h (1 Bft) 97,92 %
27.08.2016 19:20 25,9 C 62 % 1015,3 hPa 0,0 l/m 4,1 km/h (1 Bft) O-NO 60 0 min 0,000 mm 0,0 UV-I 30 W/m 18,0 C 25,9 C 6,4 km/h (2 Bft) 97,87 %
27.08.2016 19:22 25,8 C 63 % 1015,4 hPa 0,0 l/m 3,0 km/h (1 Bft) O-NO 57 0 min 0,000 mm 0,0 UV-I 26 W/m 18,2 C 25,8 C 4,8 km/h (1 Bft) 95,12 %
27.08.2016 19:24 25,6 C 63 % 1015,4 hPa 0,0 l/m 2,8 km/h (1 Bft) O-NO 71 0 min 0,000 mm 0,0 UV-I 24 W/m 18,0 C 25,6 C 4,8 km/h (1 Bft) 97,87 %
27.08.2016 19:26 25,5 C 64 % 1015,4 hPa 0,0 l/m 4,9 km/h (1 Bft) NO 40 0 min 0,000 mm 0,0 UV-I 21 W/m 18,2 C 25,5 C 6,4 km/h (2 Bft) 97,87 %
27.08.2016 19:28 25,4 C 65 % 1015,4 hPa 0,0 l/m 3,5 km/h (1 Bft) NO 41 0 min 0,000 mm 0,0 UV-I 19 W/m 18,3 C 25,4 C 4,8 km/h (1 Bft) 100,00 %
27.08.2016 19:30 25,3 C 65 % 1015,4 hPa 0,0 l/m 5,0 km/h (1 Bft) O-NO 61 0 min 0,000 mm 0,0 UV-I 17 W/m 18,2 C 25,3 C 6,4 km/h (2 Bft) 100,00 %
27.08.2016 19:32 25,1 C 66 % 1015,4 hPa 0,0 l/m 3,7 km/h (1 Bft) O-NO 61 0 min 0,000 mm 0,0 UV-I 16 W/m 18,3 C 25,1 C 4,8 km/h (1 Bft) 100,00 %
27.08.2016 19:34 25,0 C 67 % 1015,4 hPa 0,0 l/m 3,5 km/h (1 Bft) O-NO 61 0 min 0,000 mm 0,0 UV-I 14 W/m 18,4 C 25,0 C 6,4 km/h (2 Bft) 100,00 %
27.08.2016 19:36 24,8 C 67 % 1015,4 hPa 0,0 l/m 3,9 km/h (1 Bft) O-NO 62 0 min 0,000 mm 0,0 UV-I 14 W/m 18,2 C 24,8 C 6,4 km/h (2 Bft) 100,00 %
27.08.2016 19:38 24,7 C 68 % 1015,3 hPa 0,0 l/m 3,1 km/h (1 Bft) O-NO 62 0 min 0,000 mm 0,0 UV-I 12 W/m 18,4 C 24,7 C 6,4 km/h (2 Bft) 100,00 %
27.08.2016 19:40 24,6 C 68 % 1015,4 hPa 0,0 l/m 2,9 km/h (1 Bft) O-NO 62 0 min 0,000 mm 0,0 UV-I 12 W/m 18,3 C 24,6 C 4,8 km/h (1 Bft) 97,87 %
27.08.2016 19:42 24,6 C 68 % 1015,3 hPa 0,0 l/m 2,8 km/h (1 Bft) O-NO 62 2 min 0,000 mm 0,0 UV-I 11 W/m 18,3 C 24,6 C 4,8 km/h (1 Bft) 100,00 %
27.08.2016 19:44 24,5 C 69 % 1015,3 hPa 0,0 l/m 1,8 km/h (1 Bft) O-NO 62 0 min 0,000 mm 0,0 UV-I 11 W/m 18,4 C 24,5 C 3,2 km/h (1 Bft) 97,87 %
27.08.2016 19:46 24,4 C 69 % 1015,3 hPa 0,0 l/m 2,1 km/h (1 Bft) O-NO 69 0 min 0,000 mm 0,0 UV-I 9 W/m 18,3 C 24,4 C 3,2 km/h (1 Bft) 97,87 %
27.08.2016 19:48 24,3 C 69 % 1015,3 hPa 0,0 l/m 2,3 km/h (1 Bft) O-NO 69 0 min 0,000 mm 0,0 UV-I 9 W/m 18,2 C 24,3 C 3,2 km/h (1 Bft) 97,87 %
27.08.2016 19:50 24,3 C 69 % 1015,4 hPa 0,0 l/m 2,5 km/h (1 Bft) O-NO 68 0 min 0,000 mm 0,0 UV-I 8 W/m 18,2 C 24,3 C 4,8 km/h (1 Bft) 97,87 %
27.08.2016 19:52 24,2 C 69 % 1015,3 hPa 0,0 l/m 3,7 km/h (1 Bft) O-NO 68 0 min 0,000 mm 0,0 UV-I 7 W/m 18,1 C 24,2 C 4,8 km/h (1 Bft) 100,00 %
27.08.2016 19:54 24,0 C 70 % 1015,4 hPa 0,0 l/m 3,3 km/h (1 Bft) O-NO 64 0 min 0,000 mm 0,0 UV-I 6 W/m 18,2 C 24,0 C 6,4 km/h (2 Bft) 100,00 %
27.08.2016 19:56 23,9 C 70 % 1015,4 hPa 0,0 l/m 3,1 km/h (1 Bft) O-NO 64 0 min 0,000 mm 0,0 UV-I 5 W/m 18,1 C 23,9 C 6,4 km/h (2 Bft) 100,00 %
27.08.2016 19:58 23,9 C 71 % 1015,3 hPa 0,0 l/m 4,2 km/h (1 Bft) O-NO 66 0 min 0,000 mm 0,0 UV-I 5 W/m 18,3 C 23,9 C 6,4 km/h (2 Bft) 100,00 %
27.08.2016 20:00 23,8 C 71 % 1015,3 hPa 0,0 l/m 3,4 km/h (1 Bft) O-NO 66 0 min 0,000 mm 0,0 UV-I 2 W/m 18,2 C 23,8 C 6,4 km/h (2 Bft) 100,00 %
27.08.2016 20:02 23,7 C 72 % 1015,3 hPa 0,0 l/m 3,0 km/h (1 Bft) O-NO 66 0 min 0,050 mm 0,0 UV-I 0 W/m 18,3 C 23,7 C 4,8 km/h (1 Bft) 100,00 %
27.08.2016 20:04 23,6 C 72 % 1015,4 hPa 0,0 l/m 2,9 km/h (1 Bft) O-NO 66 0 min 0,000 mm 0,0 UV-I 0 W/m 18,2 C 23,6 C 4,8 km/h (1 Bft) 95,74 %
27.08.2016 20:06 23,5 C 72 % 1015,3 hPa 0,0 l/m 2,6 km/h (1 Bft) O-NO 66 0 min 0,000 mm 0,0 UV-I 0 W/m 18,2 C 23,5 C 4,8 km/h (1 Bft) 100,00 %
27.08.2016 20:08 23,4 C 73 % 1015,4 hPa 0,0 l/m 2,3 km/h (1 Bft) O-NO 66 0 min 0,000 mm 0,0 UV-I 0 W/m 18,3 C 23,4 C 4,8 km/h (1 Bft) 97,87 %
27.08.2016 20:10 23,3 C 73 % 1015,3 hPa 0,0 l/m 1,4 km/h (1 Bft) O-NO 66 0 min 0,000 mm 0,0 UV-I 0 W/m 18,2 C 23,3 C 3,2 km/h (1 Bft) 100,00 %
27.08.2016 20:12 23,3 C 73 % 1015,4 hPa 0,0 l/m 1,9 km/h (1 Bft) O-NO 66 0 min 0,000 mm 0,0 UV-I 0 W/m 18,2 C 23,3 C 3,2 km/h (1 Bft) 97,87 %
27.08.2016 20:14 23,3 C 73 % 1015,4 hPa 0,0 l/m 1,5 km/h (1 Bft) O-NO 66 0 min 0,000 mm 0,0 UV-I 0 W/m 18,2 C 23,3 C 3,2 km/h (1 Bft) 100,00 %
27.08.2016 20:16 23,2 C 73 % 1015,4 hPa 0,0 l/m 1,9 km/h (1 Bft) O-NO 66 0 min 0,000 mm 0,0 UV-I 0 W/m 18,1 C 23,2 C 3,2 km/h (1 Bft) 100,00 %
27.08.2016 20:18 23,2 C 73 % 1015,4 hPa 0,0 l/m 1,7 km/h (1 Bft) O-NO 66 0 min 0,000 mm 0,0 UV-I 0 W/m 18,1 C 23,2 C 3,2 km/h (1 Bft) 100,00 %
27.08.2016 20:20 23,2 C 74 % 1015,4 hPa 0,0 l/m 0,8 km/h (0 Bft) O-NO 66 0 min 0,000 mm 0,0 UV-I 0 W/m 18,3 C 23,2 C 1,6 km/h (1 Bft) 100,00 %
27.08.2016 20:22 23,2 C 74 % 1015,4 hPa 0,0 l/m 0,6 km/h (0 Bft) O-NO 66 0 min 0,000 mm 0,0 UV-I 0 W/m 18,3 C 23,2 C 1,6 km/h (1 Bft) 97,22 %
27.08.2016 20:24 23,1 C 74 % 1015,4 hPa 0,0 l/m 0,0 km/h (0 Bft) O-NO 66 0 min 0,000 mm 0,0 UV-I 0 W/m 18,2 C 23,1 C 1,6 km/h (1 Bft) 100,00 %
27.08.2016 20:26 23,1 C 74 % 1015,4 hPa 0,0 l/m 0,9 km/h (0 Bft) O-NO 66 0 min 0,000 mm 0,0 UV-I 0 W/m 18,2 C 23,1 C 3,2 km/h (1 Bft) 98,00 %
27.08.2016 20:28 22,9 C 75 % 1015,4 hPa 0,0 l/m 2,5 km/h (1 Bft) O-NO 66 0 min 0,000 mm 0,0 UV-I 0 W/m 18,2 C 22,9 C 3,2 km/h (1 Bft) 100,00 %
27.08.2016 20:30 22,8 C 75 % 1015,5 hPa 0,0 l/m 2,5 km/h (1 Bft) O-NO 66 0 min 0,000 mm 0,0 UV-I 0 W/m 18,1 C 22,8 C 3,2 km/h (1 Bft) 100,00 %
27.08.2016 20:32 22,7 C 75 % 1015,5 hPa 0,0 l/m 2,7 km/h (1 Bft) O-NO 66 0 min 0,000 mm 0,0 UV-I 0 W/m 18,0 C 22,7 C 4,8 km/h (1 Bft) 100,00 %
27.08.2016 20:34 22,7 C 76 % 1015,5 hPa 0,0 l/m 3,8 km/h (1 Bft) O-NO 66 0 min 0,000 mm 0,0 UV-I 0 W/m 18,2 C 22,7 C 6,4 km/h (2 Bft) 100,00 %
27.08.2016 20:36 22,6 C 76 % 1015,5 hPa 0,0 l/m 4,1 km/h (1 Bft) O-NO 69 0 min 0,000 mm 0,0 UV-I 0 W/m 18,1 C 22,6 C 4,8 km/h (1 Bft) 100,00 %
27.08.2016 20:38 22,5 C 76 % 1015,5 hPa 0,0 l/m 4,6 km/h (1 Bft) O-NO 78 0 min 0,000 mm 0,0 UV-I 0 W/m 18,0 C 22,5 C 6,4 km/h (2 Bft) 97,87 %
27.08.2016 20:40 22,4 C 76 % 1015,5 hPa 0,0 l/m 4,4 km/h (1 Bft) O-NO 76 0 min 0,000 mm 0,0 UV-I 0 W/m 18,0 C 22,4 C 6,4 km/h (2 Bft) 98,00 %
27.08.2016 20:42 22,4 C 76 % 1015,5 hPa 0,0 l/m 4,7 km/h (1 Bft) O-NO 76 0 min 0,000 mm 0,0 UV-I 0 W/m 18,0 C 22,4 C 6,4 km/h (2 Bft) 100,00 %
27.08.2016 20:44 22,5 C 76 % 1015,5 hPa 0,0 l/m 4,5 km/h (1 Bft) O-NO 76 0 min 0,000 mm 0,0 UV-I 0 W/m 18,0 C 22,5 C 6,4 km/h (2 Bft) 100,00 %
27.08.2016 20:46 22,6 C 77 % 1015,5 hPa 0,0 l/m 4,9 km/h (1 Bft) O-NO 71 0 min 0,000 mm 0,0 UV-I 0 W/m 18,4 C 22,6 C 6,4 km/h (2 Bft) 95,74 %
27.08.2016 20:48 22,6 C 76 % 1015,5 hPa 0,0 l/m 4,4 km/h (1 Bft) O-NO 71 0 min 0,000 mm 0,0 UV-I 0 W/m 18,1 C 22,6 C 6,4 km/h (2 Bft) 100,00 %
27.08.2016 20:50 22,6 C 76 % 1015,5 hPa 0,0 l/m 4,3 km/h (1 Bft) O-NO 69 0 min 0,000 mm 0,0 UV-I 0 W/m 18,1 C 22,6 C 6,4 km/h (2 Bft) 97,87 %
27.08.2016 20:52 22,6 C 77 % 1015,5 hPa 0,0 l/m 5,4 km/h (1 Bft) O-NO 76 0 min 0,000 mm 0,0 UV-I 0 W/m 18,4 C 22,6 C 8,0 km/h (2 Bft) 97,87 %
27.08.2016 20:54 22,7 C 77 % 1015,5 hPa 0,0 l/m 5,8 km/h (2 Bft) O-NO 71 0 min 0,000 mm 0,0 UV-I 0 W/m 18,5 C 22,7 C 8,0 km/h (2 Bft) 95,74 %
27.08.2016 20:56 22,7 C 77 % 1015,5 hPa 0,0 l/m 4,3 km/h (1 Bft) O-NO 69 0 min 0,000 mm 0,0 UV-I 0 W/m 18,5 C 22,7 C 6,4 km/h (2 Bft) 97,96 %
27.08.2016 20:58 22,8 C 76 % 1015,5 hPa 0,0 l/m 3,2 km/h (1 Bft) O-NO 69 0 min 0,000 mm 0,0 UV-I 0 W/m 18,3 C 22,8 C 4,8 km/h (1 Bft) 94,00 %
27.08.2016 21:00 22,8 C 76 % 1015,5 hPa 0,0 l/m 3,2 km/h (1 Bft) O-NO 69 0 min 0,026 mm 0,0 UV-I 0 W/m 18,3 C 22,8 C 4,8 km/h (1 Bft) 97,87 %
27.08.2016 21:02 22,7 C 76 % 1015,5 hPa 0,0 l/m 2,9 km/h (1 Bft) O-NO 69 0 min 0,000 mm 0,0 UV-I 0 W/m 18,2 C 22,7 C 4,8 km/h (1 Bft) 95,74 %
27.08.2016 21:04 22,7 C 77 % 1015,6 hPa 0,0 l/m 3,4 km/h (1 Bft) O-NO 69 0 min 0,000 mm 0,0 UV-I 0 W/m 18,5 C 22,7 C 4,8 km/h (1 Bft) 97,14 %
27.08.2016 21:06 22,7 C 77 % 1015,6 hPa 0,0 l/m 4,4 km/h (1 Bft) O-NO 69 0 min 0,000 mm 0,0 UV-I 0 W/m 18,5 C 22,7 C 6,4 km/h (2 Bft) 97,96 %
27.08.2016 21:08 22,7 C 77 % 1015,5 hPa 0,0 l/m 2,9 km/h (1 Bft) O-NO 69 0 min 0,000 mm 0,0 UV-I 0 W/m 18,5 C 22,7 C 4,8 km/h (1 Bft) 96,00 %
27.08.2016 21:10 22,7 C 77 % 1015,6 hPa 0,0 l/m 3,2 km/h (1 Bft) O-NO 64 0 min 0,000 mm 0,0 UV-I 0 W/m 18,5 C 22,7 C 4,8 km/h (1 Bft) 97,87 %
27.08.2016 21:12 22,5 C 77 % 1015,6 hPa 0,0 l/m 3,8 km/h (1 Bft) O-NO 62 0 min 0,000 mm 0,0 UV-I 0 W/m 18,3 C 22,5 C 6,4 km/h (2 Bft) 95,83 %
27.08.2016 21:14 22,4 C 78 % 1015,6 hPa 0,0 l/m 4,3 km/h (1 Bft) O-NO 61 0 min 0,000 mm 0,0 UV-I 0 W/m 18,4 C 22,4 C 6,4 km/h (2 Bft) 97,87 %
27.08.2016 21:16 22,4 C 78 % 1015,5 hPa 0,0 l/m 4,2 km/h (1 Bft) O-NO 59 0 min 0,000 mm 0,0 UV-I 0 W/m 18,4 C 22,4 C 6,4 km/h (2 Bft) 95,92 %
27.08.2016 21:18 22,3 C 78 % 1015,5 hPa 0,0 l/m 4,0 km/h (1 Bft) O-NO 59 0 min 0,000 mm 0,0 UV-I 0 W/m 18,3 C 22,3 C 4,8 km/h (1 Bft) 98,00 %
27.08.2016 21:20 22,3 C 78 % 1015,5 hPa 0,0 l/m 4,5 km/h (1 Bft) O-NO 71 0 min 0,000 mm 0,0 UV-I 0 W/m 18,3 C 22,3 C 6,4 km/h (2 Bft) 97,87 %
27.08.2016 21:22 22,3 C 78 % 1015,4 hPa 0,0 l/m 4,8 km/h (1 Bft) O-NO 71 0 min 0,000 mm 0,0 UV-I 0 W/m 18,3 C 22,3 C 6,4 km/h (2 Bft) 97,87 %
27.08.2016 21:24 22,2 C 79 % 1015,4 hPa 0,0 l/m 4,2 km/h (1 Bft) NO 42 0 min 0,000 mm 0,0 UV-I 0 W/m 18,4 C 22,2 C 6,4 km/h (2 Bft) 97,14 %
27.08.2016 21:26 22,2 C 79 % 1015,5 hPa 0,0 l/m 4,6 km/h (1 Bft) O-NO 60 0 min 0,000 mm 0,0 UV-I 0 W/m 18,4 C 22,2 C 6,4 km/h (2 Bft) 100,00 %
27.08.2016 21:28 22,2 C 79 % 1015,4 hPa 0,0 l/m 3,9 km/h (1 Bft) O-NO 57 0 min 0,000 mm 0,0 UV-I 0 W/m 18,4 C 22,2 C 6,4 km/h (2 Bft) 100,00 %
27.08.2016 21:30 22,1 C 79 % 1015,4 hPa 0,0 l/m 3,6 km/h (1 Bft) O-NO 57 0 min 0,000 mm 0,0 UV-I 0 W/m 18,3 C 22,1 C 4,8 km/h (1 Bft) 100,00 %
27.08.2016 21:32 22,1 C 79 % 1015,4 hPa 0,0 l/m 3,8 km/h (1 Bft) O-NO 63 0 min 0,000 mm 0,0 UV-I 0 W/m 18,3 C 22,1 C 4,8 km/h (1 Bft) 100,00 %
27.08.2016 21:34 22,1 C 80 % 1015,4 hPa 0,0 l/m 4,1 km/h (1 Bft) O-NO 68 0 min 0,000 mm 0,0 UV-I 0 W/m 18,5 C 22,1 C 8,0 km/h (2 Bft) 100,00 %
27.08.2016 21:36 22,1 C 80 % 1015,4 hPa 0,0 l/m 4,1 km/h (1 Bft) O-NO 68 0 min 0,000 mm 0,0 UV-I 0 W/m 18,5 C 22,1 C 4,8 km/h (1 Bft) 100,00 %
27.08.2016 21:38 22,0 C 80 % 1015,4 hPa 0,0 l/m 4,6 km/h (1 Bft) O-NO 68 0 min 0,000 mm 0,0 UV-I 0 W/m 18,4 C 22,0 C 6,4 km/h (2 Bft) 100,00 %
27.08.2016 21:40 22,0 C 80 % 1015,4 hPa 0,0 l/m 4,0 km/h (1 Bft) O-NO 68 0 min 0,000 mm 0,0 UV-I 0 W/m 18,4 C 22,0 C 4,8 km/h (1 Bft) 100,00 %
27.08.2016 21:42 22,0 C 80 % 1015,4 hPa 0,0 l/m 2,8 km/h (1 Bft) O-NO 68 0 min 0,000 mm 0,0 UV-I 0 W/m 18,4 C 22,0 C 6,4 km/h (2 Bft) 97,87 %
27.08.2016 21:44 22,0 C 80 % 1015,4 hPa 0,0 l/m 2,9 km/h (1 Bft) O-NO 67 0 min 0,000 mm 0,0 UV-I 0 W/m 18,4 C 22,0 C 4,8 km/h (1 Bft) 98,00 %
27.08.2016 21:46 21,9 C 80 % 1015,4 hPa 0,0 l/m 3,8 km/h (1 Bft) O-NO 67 0 min 0,000 mm 0,0 UV-I 0 W/m 18,3 C 21,9 C 4,8 km/h (1 Bft) 100,00 %
27.08.2016 21:48 21,7 C 81 % 1015,5 hPa 0,0 l/m 3,2 km/h (1 Bft) O-NO 67 0 min 0,000 mm 0,0 UV-I 0 W/m 18,3 C 21,7 C 4,8 km/h (1 Bft) 100,00 %
27.08.2016 21:50 21,6 C 81 % 1015,5 hPa 0,0 l/m 3,4 km/h (1 Bft) O-NO 67 0 min 0,000 mm 0,0 UV-I 0 W/m 18,2 C 21,6 C 4,8 km/h (1 Bft) 96,00 %
27.08.2016 21:52 21,6 C 81 % 1015,5 hPa 0,0 l/m 4,1 km/h (1 Bft) O-NO 66 0 min 0,000 mm 0,0 UV-I 0 W/m 18,2 C 21,6 C 6,4 km/h (2 Bft) 100,00 %
27.08.2016 21:54 21,6 C 81 % 1015,5 hPa 0,0 l/m 3,5 km/h (1 Bft) O-NO 65 0 min 0,000 mm 0,0 UV-I 0 W/m 18,2 C 21,6 C 4,8 km/h (1 Bft) 100,00 %
27.08.2016 21:56 21,5 C 81 % 1015,4 hPa 0,0 l/m 3,4 km/h (1 Bft) O-NO 61 0 min 0,000 mm 0,0 UV-I 0 W/m 18,1 C 21,5 C 6,4 km/h (2 Bft) 97,87 %
27.08.2016 21:58 21,4 C 82 % 1015,4 hPa 0,0 l/m 3,3 km/h (1 Bft) O-NO 61 0 min 0,000 mm 0,0 UV-I 0 W/m 18,2 C 21,4 C 4,8 km/h (1 Bft) 100,00 %
27.08.2016 22:00 21,3 C 82 % 1015,4 hPa 0,0 l/m 4,0 km/h (1 Bft) O-NO 71 0 min 0,000 mm 0,0 UV-I 0 W/m 18,1 C 21,3 C 6,4 km/h (2 Bft) 100,00 %
27.08.2016 22:02 21,3 C 82 % 1015,4 hPa 0,0 l/m 3,5 km/h (1 Bft) O-NO 67 0 min 0,025 mm 0,0 UV-I 0 W/m 18,1 C 21,3 C 4,8 km/h (1 Bft) 97,87 %
27.08.2016 22:04 21,3 C 82 % 1015,5 hPa 0,0 l/m 2,7 km/h (1 Bft) O-NO 67 0 min 0,000 mm 0,0 UV-I 0 W/m 18,1 C 21,3 C 4,8 km/h (1 Bft) 97,87 %
27.08.2016 22:06 21,3 C 83 % 1015,5 hPa 0,0 l/m 2,2 km/h (1 Bft) O-NO 67 0 min 0,000 mm 0,0 UV-I 0 W/m 18,3 C 21,3 C 4,8 km/h (1 Bft) 98,00 %
27.08.2016 22:08 21,3 C 82 % 1015,5 hPa 0,0 l/m 2,8 km/h (1 Bft) O-NO 67 0 min 0,000 mm 0,0 UV-I 0 W/m 18,1 C 21,3 C 4,8 km/h (1 Bft) 100,00 %
27.08.2016 22:10 21,4 C 82 % 1015,5 hPa 0,0 l/m 3,3 km/h (1 Bft) O-NO 67 0 min 0,000 mm 0,0 UV-I 0 W/m 18,2 C 21,4 C 4,8 km/h (1 Bft) 100,00 %
27.08.2016 22:12 21,4 C 82 % 1015,5 hPa 0,0 l/m 5,4 km/h (1 Bft) O 82 0 min 0,000 mm 0,0 UV-I 0 W/m 18,2 C 21,4 C 6,4 km/h (2 Bft) 93,62 %
27.08.2016 22:14 21,4 C 82 % 1015,4 hPa 0,0 l/m 5,9 km/h (2 Bft) O-NO 75 0 min 0,000 mm 0,0 UV-I 0 W/m 18,2 C 21,4 C 8,0 km/h (2 Bft) 98,00 %
27.08.2016 22:16 21,4 C 82 % 1015,4 hPa 0,0 l/m 6,6 km/h (2 Bft) O-NO 67 0 min 0,000 mm 0,0 UV-I 0 W/m 18,2 C 21,3 C 9,7 km/h (2 Bft) 98,00 %
27.08.2016 22:18 21,4 C 82 % 1015,4 hPa 0,0 l/m 6,2 km/h (2 Bft) O-NO 70 0 min 0,000 mm 0,0 UV-I 0 W/m 18,2 C 21,4 C 8,0 km/h (2 Bft) 100,00 %
27.08.2016 22:20 21,4 C 81 % 1015,4 hPa 0,0 l/m 6,3 km/h (2 Bft) O-NO 63 0 min 0,000 mm 0,0 UV-I 0 W/m 18,0 C 21,4 C 8,0 km/h (2 Bft) 100,00 %
27.08.2016 22:22 21,5 C 81 % 1015,4 hPa 0,0 l/m 6,2 km/h (2 Bft) O 79 0 min 0,000 mm 0,0 UV-I 0 W/m 18,1 C 21,5 C 9,7 km/h (2 Bft) 96,00 %
27.08.2016 22:24 21,6 C 81 % 1015,4 hPa 0,0 l/m 6,3 km/h (2 Bft) O-NO 76 0 min 0,000 mm 0,0 UV-I 0 W/m 18,2 C 21,6 C 11,3 km/h (2 Bft) 100,00 %
27.08.2016 22:26 21,6 C 81 % 1015,4 hPa 0,0 l/m 6,4 km/h (2 Bft) O-NO 63 0 min 0,000 mm 0,0 UV-I 0 W/m 18,2 C 21,6 C 9,7 km/h (2 Bft) 100,00 %
27.08.2016 22:28 21,6 C 80 % 1015,3 hPa 0,0 l/m 6,6 km/h (2 Bft) O-NO 77 0 min 0,000 mm 0,0 UV-I 0 W/m 18,0 C 21,5 C 9,7 km/h (2 Bft) 97,87 %
27.08.2016 22:30 21,6 C 80 % 1015,3 hPa 0,0 l/m 8,0 km/h (2 Bft) O-NO 60 0 min 0,000 mm 0,0 UV-I 0 W/m 18,0 C 21,0 C 11,3 km/h (2 Bft) 100,00 %
27.08.2016 22:32 21,7 C 80 % 1015,3 hPa 0,0 l/m 8,3 km/h (2 Bft) O-NO 58 0 min 0,000 mm 0,0 UV-I 0 W/m 18,1 C 21,0 C 12,9 km/h (3 Bft) 100,00 %
27.08.2016 22:34 21,7 C 80 % 1015,3 hPa 0,0 l/m 9,1 km/h (2 Bft) O-NO 78 0 min 0,000 mm 0,0 UV-I 0 W/m 18,1 C 20,8 C 14,5 km/h (3 Bft) 100,00 %
27.08.2016 22:36 21,8 C 80 % 1015,3 hPa 0,0 l/m 8,6 km/h (2 Bft) O 84 0 min 0,000 mm 0,0 UV-I 0 W/m 18,2 C 21,0 C 12,9 km/h (3 Bft) 100,00 %
27.08.2016 22:38 21,8 C 79 % 1015,3 hPa 0,0 l/m 7,0 km/h (2 Bft) O 87 0 min 0,000 mm 0,0 UV-I 0 W/m 18,0 C 21,6 C 12,9 km/h (3 Bft) 100,00 %
27.08.2016 22:40 21,8 C 79 % 1015,3 hPa 0,0 l/m 7,4 km/h (2 Bft) O 86 0 min 0,000 mm 0,0 UV-I 0 W/m 18,0 C 21,4 C 11,3 km/h (2 Bft) 100,00 %
27.08.2016 22:42 21,8 C 79 % 1015,3 hPa 0,0 l/m 6,4 km/h (2 Bft) O 84 0 min 0,000 mm 0,0 UV-I 0 W/m 18,0 C 21,8 C 12,9 km/h (3 Bft) 100,00 %
27.08.2016 22:44 21,8 C 79 % 1015,3 hPa 0,0 l/m 5,5 km/h (1 Bft) O-NO 68 0 min 0,000 mm 0,0 UV-I 0 W/m 18,0 C 21,8 C 9,7 km/h (2 Bft) 100,00 %
27.08.2016 22:46 21,8 C 79 % 1015,3 hPa 0,0 l/m 4,6 km/h (1 Bft) O-NO 74 0 min 0,000 mm 0,0 UV-I 0 W/m 18,0 C 21,8 C 6,4 km/h (2 Bft) 100,00 %
27.08.2016 22:48 21,8 C 79 % 1015,4 hPa 0,0 l/m 3,6 km/h (1 Bft) O 85 0 min 0,000 mm 0,0 UV-I 0 W/m 18,0 C 21,8 C 4,8 km/h (1 Bft) 97,87 %
27.08.2016 22:50 21,7 C 79 % 1015,3 hPa 0,0 l/m 4,3 km/h (1 Bft) O-NO 63 0 min 0,000 mm 0,0 UV-I 0 W/m 17,9 C 21,7 C 6,4 km/h (2 Bft) 100,00 %
27.08.2016 22:52 21,6 C 80 % 1015,3 hPa 0,0 l/m 4,1 km/h (1 Bft) O-NO 78 0 min 0,000 mm 0,0 UV-I 0 W/m 18,0 C 21,6 C 6,4 km/h (2 Bft) 97,87 %
27.08.2016 22:54 21,5 C 80 % 1015,4 hPa 0,0 l/m 4,3 km/h (1 Bft) O-NO 57 0 min 0,000 mm 0,0 UV-I 0 W/m 17,9 C 21,5 C 6,4 km/h (2 Bft) 97,87 %
27.08.2016 22:56 21,4 C 80 % 1015,3 hPa 0,0 l/m 4,4 km/h (1 Bft) NO 46 0 min 0,000 mm 0,0 UV-I 0 W/m 17,8 C 21,4 C 6,4 km/h (2 Bft) 97,87 %
27.08.2016 22:58 21,3 C 80 % 1015,4 hPa 0,0 l/m 4,0 km/h (1 Bft) NO 55 0 min 0,000 mm 0,0 UV-I 0 W/m 17,7 C 21,3 C 4,8 km/h (1 Bft) 97,87 %
27.08.2016 23:00 21,2 C 80 % 1015,4 hPa 0,0 l/m 4,1 km/h (1 Bft) NO 52 0 min 0,026 mm 0,0 UV-I 0 W/m 17,6 C 21,2 C 6,4 km/h (2 Bft) 97,87 %
27.08.2016 23:02 21,1 C 81 % 1015,4 hPa 0,0 l/m 4,1 km/h (1 Bft) NO 52 0 min 0,000 mm 0,0 UV-I 0 W/m 17,7 C 21,1 C 6,4 km/h (2 Bft) 95,74 %
27.08.2016 23:04 20,9 C 81 % 1015,4 hPa 0,0 l/m 4,4 km/h (1 Bft) NO 52 0 min 0,000 mm 0,0 UV-I 0 W/m 17,5 C 20,9 C 6,4 km/h (2 Bft) 97,87 %
27.08.2016 23:06 20,9 C 82 % 1015,4 hPa 0,0 l/m 4,0 km/h (1 Bft) O-NO 59 0 min 0,000 mm 0,0 UV-I 0 W/m 17,7 C 20,9 C 6,4 km/h (2 Bft) 97,92 %
27.08.2016 23:08 20,8 C 82 % 1015,4 hPa 0,0 l/m 3,8 km/h (1 Bft) O-NO 68 0 min 0,000 mm 0,0 UV-I 0 W/m 17,6 C 20,8 C 6,4 km/h (2 Bft) 97,87 %
27.08.2016 23:10 20,8 C 82 % 1015,4 hPa 0,0 l/m 4,0 km/h (1 Bft) O-NO 67 0 min 0,000 mm 0,0 UV-I 0 W/m 17,6 C 20,8 C 6,4 km/h (2 Bft) 97,87 %
27.08.2016 23:12 20,8 C 82 % 1015,4 hPa 0,0 l/m 4,7 km/h (1 Bft) O-NO 64 0 min 0,000 mm 0,0 UV-I 0 W/m 17,6 C 20,8 C 6,4 km/h (2 Bft) 97,87 %
27.08.2016 23:14 20,8 C 82 % 1015,4 hPa 0,0 l/m 3,8 km/h (1 Bft) O-NO 64 0 min 0,000 mm 0,0 UV-I 0 W/m 17,6 C 20,8 C 4,8 km/h (1 Bft) 97,87 %
27.08.2016 23:16 20,8 C 82 % 1015,4 hPa 0,0 l/m 2,7 km/h (1 Bft) O-NO 64 0 min 0,000 mm 0,0 UV-I 0 W/m 17,6 C 20,8 C 3,2 km/h (1 Bft) 97,87 %
27.08.2016 23:18 20,8 C 82 % 1015,4 hPa 0,0 l/m 3,0 km/h (1 Bft) O-NO 64 0 min 0,000 mm 0,0 UV-I 0 W/m 17,6 C 20,8 C 4,8 km/h (1 Bft) 95,74 %
27.08.2016 23:20 20,7 C 82 % 1015,4 hPa 0,0 l/m 2,2 km/h (1 Bft) O-NO 64 0 min 0,000 mm 0,0 UV-I 0 W/m 17,5 C 20,7 C 4,8 km/h (1 Bft) 98,00 %
27.08.2016 23:22 20,8 C 82 % 1015,5 hPa 0,0 l/m 1,7 km/h (1 Bft) O-NO 64 0 min 0,000 mm 0,0 UV-I 0 W/m 17,6 C 20,8 C 3,2 km/h (1 Bft) 97,87 %
27.08.2016 23:24 20,8 C 82 % 1015,5 hPa 0,0 l/m 0,3 km/h (0 Bft) O-NO 64 0 min 0,000 mm 0,0 UV-I 0 W/m 17,6 C 20,8 C 1,6 km/h (1 Bft) 95,74 %
27.08.2016 23:26 20,7 C 82 % 1015,5 hPa 0,0 l/m 0,0 km/h (0 Bft) O-NO 64 0 min 0,000 mm 0,0 UV-I 0 W/m 17,5 C 20,7 C 1,6 km/h (1 Bft) 97,37 %
27.08.2016 23:28 20,6 C 82 % 1015,5 hPa 0,0 l/m 0,1 km/h (0 Bft) O-NO 64 0 min 0,000 mm 0,0 UV-I 0 W/m 17,4 C 20,6 C 1,6 km/h (1 Bft) 100,00 %
27.08.2016 23:30 20,6 C 83 % 1015,5 hPa 0,0 l/m 0,0 km/h (0 Bft) O-NO 64 0 min 0,000 mm 0,0 UV-I 0 W/m 17,6 C 20,6 C 0,0 km/h (0 Bft) 95,74 %
27.08.2016 23:32 20,5 C 83 % 1015,5 hPa 0,0 l/m 1,2 km/h (1 Bft) O-NO 64 0 min 0,000 mm 0,0 UV-I 0 W/m 17,5 C 20,5 C 3,2 km/h (1 Bft) 97,87 %
27.08.2016 23:34 20,4 C 83 % 1015,5 hPa 0,0 l/m 0,7 km/h (0 Bft) O-NO 64 0 min 0,000 mm 0,0 UV-I 0 W/m 17,4 C 20,4 C 3,2 km/h (1 Bft) 97,87 %
27.08.2016 23:36 20,4 C 83 % 1015,5 hPa 0,0 l/m 1,3 km/h (1 Bft) O-NO 64 0 min 0,000 mm 0,0 UV-I 0 W/m 17,4 C 20,4 C 3,2 km/h (1 Bft) 97,87 %
27.08.2016 23:38 20,4 C 83 % 1015,5 hPa 0,0 l/m 0,3 km/h (0 Bft) O-NO 64 0 min 0,000 mm 0,0 UV-I 0 W/m 17,4 C 20,4 C 1,6 km/h (1 Bft) 100,00 %
27.08.2016 23:40 20,4 C 83 % 1015,5 hPa 0,0 l/m 0,5 km/h (0 Bft) O-NO 64 0 min 0,000 mm 0,0 UV-I 0 W/m 17,4 C 20,4 C 1,6 km/h (1 Bft) 97,87 %
27.08.2016 23:42 20,3 C 84 % 1015,5 hPa 0,0 l/m 0,0 km/h (0 Bft) O-NO 64 0 min 0,000 mm 0,0 UV-I 0 W/m 17,5 C 20,3 C 0,0 km/h (0 Bft) 100,00 %
27.08.2016 23:44 20,3 C 84 % 1015,5 hPa 0,0 l/m 0,0 km/h (0 Bft) O-NO 64 0 min 0,000 mm 0,0 UV-I 0 W/m 17,5 C 20,3 C 0,0 km/h (0 Bft) 97,87 %
27.08.2016 23:46 20,2 C 84 % 1015,6 hPa 0,0 l/m 0,0 km/h (0 Bft) O-NO 64 0 min 0,000 mm 0,0 UV-I 0 W/m 17,4 C 20,2 C 0,0 km/h (0 Bft) 100,00 %
27.08.2016 23:48 20,1 C 84 % 1015,5 hPa 0,0 l/m 0,0 km/h (0 Bft) O-NO 64 0 min 0,000 mm 0,0 UV-I 0 W/m 17,3 C 20,1 C 0,0 km/h (0 Bft) 100,00 %
27.08.2016 23:50 20,1 C 84 % 1015,5 hPa 0,0 l/m 1,2 km/h (1 Bft) O-NO 64 0 min 0,000 mm 0,0 UV-I 0 W/m 17,3 C 20,1 C 1,6 km/h (1 Bft) 97,87 %
27.08.2016 23:52 19,9 C 84 % 1015,6 hPa 0,0 l/m 1,3 km/h (1 Bft) O-NO 64 0 min 0,000 mm 0,0 UV-I 0 W/m 17,1 C 19,9 C 1,6 km/h (1 Bft) 100,00 %
27.08.2016 23:54 19,8 C 85 % 1015,5 hPa 0,0 l/m 1,4 km/h (1 Bft) O-NO 64 0 min 0,000 mm 0,0 UV-I 0 W/m 17,2 C 19,8 C 1,6 km/h (1 Bft) 97,87 %
27.08.2016 23:56 19,8 C 85 % 1015,5 hPa 0,0 l/m 1,7 km/h (1 Bft) O-NO 64 0 min 0,000 mm 0,0 UV-I 0 W/m 17,2 C 19,8 C 3,2 km/h (1 Bft) 100,00 %
27.08.2016 23:58 19,9 C 85 % 1015,5 hPa 0,0 l/m 1,7 km/h (1 Bft) O-NO 64 0 min 0,000 mm 0,0 UV-I 0 W/m 17,3 C 19,9 C 3,2 km/h (1 Bft) 100,00 %
_ Min-Zeit 06:08 16:12 19:20 - 01:44 - - - - - - 06:08 06:08 01:54 05:22
Minimum _ 13,8 C 38 % 1015,3 hPa - 0,0 km/h (0 Bft) - - - - - - 12,9 C 13,8 C 0,0 km/h (0 Bft) 89,58 %
_ Max-Zeit 16:08 08:00 09:28 00:00 18:00 - - 06:26 14:00 12:54 13:16 12:24 16:42 17:42 00:00
Maximum _ 29,3 C 97 % 1018,7 hPa 0,0 l/m 16,5 km/h
NO (3 Bft)
- - 2 min 0,533 mm 5,7 UV-I 782 W/m 19,4 C 29,2 C 22,5 km/h
O-NO (4 Bft)
100,00 %
Durchschnitt _ 21,4 C 75 % 1017,2 hPa #0,0 l/m 4,7 km/h (1 Bft) O-NO - #10:40 h #4,420 mm 3,3 UV-I 438 W/m 16,3 C 21,3 C 7,6 km/h (2 Bft) 98,47 %